﻿<?xml version="1.0" encoding="utf-8"?><gpx creator="Garmin Desktop App" version="1.1" xsi:schemaLocation="http://www.topografix.com/GPX/1/1 http://www.topografix.com/GPX/1/1/gpx.xsd http://www.garmin.com/xmlschemas/WaypointExtension/v1 http://www8.garmin.com/xmlschemas/WaypointExtensionv1.xsd http://www.garmin.com/xmlschemas/TrackPointExtension/v1 http://www.garmin.com/xmlschemas/TrackPointExtensionv1.xsd http://www.garmin.com/xmlschemas/GpxExtensions/v3 http://www8.garmin.com/xmlschemas/GpxExtensionsv3.xsd http://www.garmin.com/xmlschemas/ActivityExtension/v1 http://www8.garmin.com/xmlschemas/ActivityExtensionv1.xsd http://www.garmin.com/xmlschemas/AdventuresExtensions/v1 http://www8.garmin.com/xmlschemas/AdventuresExtensionv1.xsd http://www.garmin.com/xmlschemas/PressureExtension/v1 http://www.garmin.com/xmlschemas/PressureExtensionv1.xsd http://www.garmin.com/xmlschemas/TripExtensions/v1 http://www.garmin.com/xmlschemas/TripExtensionsv1.xsd http://www.garmin.com/xmlschemas/TripMetaDataExtensions/v1 http://www.garmin.com/xmlschemas/TripMetaDataExtensionsv1.xsd http://www.garmin.com/xmlschemas/ViaPointTransportationModeExtensions/v1 http://www.garmin.com/xmlschemas/ViaPointTransportationModeExtensionsv1.xsd http://www.garmin.com/xmlschemas/CreationTimeExtension/v1 http://www.garmin.com/xmlschemas/CreationTimeExtensionsv1.xsd http://www.garmin.com/xmlschemas/AccelerationExtension/v1 http://www.garmin.com/xmlschemas/AccelerationExtensionv1.xsd http://www.garmin.com/xmlschemas/PowerExtension/v1 http://www.garmin.com/xmlschemas/PowerExtensionv1.xsd http://www.garmin.com/xmlschemas/VideoExtension/v1 http://www.garmin.com/xmlschemas/VideoExtensionv1.xsd" xmlns="http://www.topografix.com/GPX/1/1" xmlns:xsi="http://www.w3.org/2001/XMLSchema-instance" xmlns:wptx1="http://www.garmin.com/xmlschemas/WaypointExtension/v1" xmlns:gpxtrx="http://www.garmin.com/xmlschemas/GpxExtensions/v3" xmlns:gpxtpx="http://www.garmin.com/xmlschemas/TrackPointExtension/v1" xmlns:gpxx="http://www.garmin.com/xmlschemas/GpxExtensions/v3" xmlns:trp="http://www.garmin.com/xmlschemas/TripExtensions/v1" xmlns:adv="http://www.garmin.com/xmlschemas/AdventuresExtensions/v1" xmlns:prs="http://www.garmin.com/xmlschemas/PressureExtension/v1" xmlns:tmd="http://www.garmin.com/xmlschemas/TripMetaDataExtensions/v1" xmlns:vptm="http://www.garmin.com/xmlschemas/ViaPointTransportationModeExtensions/v1" xmlns:ctx="http://www.garmin.com/xmlschemas/CreationTimeExtension/v1" xmlns:gpxacc="http://www.garmin.com/xmlschemas/AccelerationExtension/v1" xmlns:gpxpx="http://www.garmin.com/xmlschemas/PowerExtension/v1" xmlns:vidx1="http://www.garmin.com/xmlschemas/VideoExtension/v1">

  <metadata>
    <link href="http://www.garmin.com">
      <text>Garmin International</text>
    </link>
    <time>2020-07-27T18:00:10Z</time>
    <bounds maxlat="45.690103629603982" maxlon="6.986104901880026" minlat="45.668162321671844" minlon="6.96042861789465" />
  </metadata>

  <trk>
    <name>cascate del rutor2020-07-26</name>
    <extensions>
      <gpxx:TrackExtension>
        <gpxx:DisplayColor>Yellow</gpxx:DisplayColor>
      </gpxx:TrackExtension>
    </extensions>
    <trkseg>
      <trkpt lat="45.690004052594304" lon="6.96042861789465">
        <ele>1653.7</ele>
        <time>2020-07-26T06:45:02Z</time>
      </trkpt>
      <trkpt lat="45.690004220232368" lon="6.960428953170776">
        <ele>1653.7</ele>
        <time>2020-07-26T06:45:03Z</time>
      </trkpt>
      <trkpt lat="45.689999274909496" lon="6.960429036989808">
        <ele>1615.9200000000001</ele>
        <time>2020-07-26T06:45:07Z</time>
      </trkpt>
      <trkpt lat="45.689998352900147" lon="6.960429456084967">
        <ele>1615.9200000000001</ele>
        <time>2020-07-26T06:45:08Z</time>
      </trkpt>
      <trkpt lat="45.689976140856743" lon="6.960444711148739">
        <ele>1616.0699999999999</ele>
        <time>2020-07-26T06:45:20Z</time>
      </trkpt>
      <trkpt lat="45.689960131421685" lon="6.960458373650909">
        <ele>1616.1400000000001</ele>
        <time>2020-07-26T06:45:40Z</time>
      </trkpt>
      <trkpt lat="45.689944541081786" lon="6.960542276501656">
        <ele>1615.54</ele>
        <time>2020-07-26T06:45:55Z</time>
      </trkpt>
      <trkpt lat="45.68994621746242" lon="6.960617462173104">
        <ele>1615.5699999999999</ele>
        <time>2020-07-26T06:46:05Z</time>
      </trkpt>
      <trkpt lat="45.68993741646409" lon="6.960635483264923">
        <ele>1615.47</ele>
        <time>2020-07-26T06:46:07Z</time>
      </trkpt>
      <trkpt lat="45.689913276582956" lon="6.960645206272602">
        <ele>1615.52</ele>
        <time>2020-07-26T06:46:10Z</time>
      </trkpt>
      <trkpt lat="45.689874803647399" lon="6.960655180737376">
        <ele>1615.1199999999999</ele>
        <time>2020-07-26T06:46:21Z</time>
      </trkpt>
      <trkpt lat="45.689867259934545" lon="6.960653252899647">
        <ele>1614.26</ele>
        <time>2020-07-26T06:46:36Z</time>
      </trkpt>
      <trkpt lat="45.689881006255746" lon="6.960679152980447">
        <ele>1614.8399999999999</ele>
        <time>2020-07-26T06:46:53Z</time>
      </trkpt>
      <trkpt lat="45.689894752576947" lon="6.960681499913335">
        <ele>1614.9400000000001</ele>
        <time>2020-07-26T06:47:10Z</time>
      </trkpt>
      <trkpt lat="45.689869271591306" lon="6.960688708350062">
        <ele>1614.9300000000001</ele>
        <time>2020-07-26T06:47:17Z</time>
      </trkpt>
      <trkpt lat="45.68984261713922" lon="6.96069004945457">
        <ele>1614.9200000000001</ele>
        <time>2020-07-26T06:47:19Z</time>
      </trkpt>
      <trkpt lat="45.689754271879792" lon="6.960763139650226">
        <ele>1614.3299999999999</ele>
        <time>2020-07-26T06:47:27Z</time>
      </trkpt>
      <trkpt lat="45.689632566645741" lon="6.960937818512321">
        <ele>1614.6300000000001</ele>
        <time>2020-07-26T06:47:40Z</time>
      </trkpt>
      <trkpt lat="45.68956651724875" lon="6.961070839315653">
        <ele>1615.76</ele>
        <time>2020-07-26T06:47:51Z</time>
      </trkpt>
      <trkpt lat="45.689552184194326" lon="6.961080646142364">
        <ele>1615.1300000000001</ele>
        <time>2020-07-26T06:48:08Z</time>
      </trkpt>
      <trkpt lat="45.689559141173959" lon="6.961089866235852">
        <ele>1614.97</ele>
        <time>2020-07-26T06:48:28Z</time>
      </trkpt>
      <trkpt lat="45.68955922499299" lon="6.961104953661561">
        <ele>1614.5699999999999</ele>
        <time>2020-07-26T06:48:41Z</time>
      </trkpt>
      <trkpt lat="45.689556878060102" lon="6.961159938946366">
        <ele>1614.5</ele>
        <time>2020-07-26T06:49:02Z</time>
      </trkpt>
      <trkpt lat="45.689551765099168" lon="6.96117234416306">
        <ele>1614.4400000000001</ele>
        <time>2020-07-26T06:49:19Z</time>
      </trkpt>
      <trkpt lat="45.689546065405011" lon="6.96116547100246">
        <ele>1614.6199999999999</ele>
        <time>2020-07-26T06:49:38Z</time>
      </trkpt>
      <trkpt lat="45.689554447308183" lon="6.961188772693276">
        <ele>1614.52</ele>
        <time>2020-07-26T06:49:54Z</time>
      </trkpt>
      <trkpt lat="45.689557380974293" lon="6.961191622540355">
        <ele>1614.47</ele>
        <time>2020-07-26T06:49:55Z</time>
      </trkpt>
      <trkpt lat="45.689577665179968" lon="6.961228335276246">
        <ele>1614.02</ele>
        <time>2020-07-26T06:49:58Z</time>
      </trkpt>
      <trkpt lat="45.689608762040734" lon="6.961300754919648">
        <ele>1613.73</ele>
        <time>2020-07-26T06:50:02Z</time>
      </trkpt>
      <trkpt lat="45.689667267724872" lon="6.961483648046851">
        <ele>1614.79</ele>
        <time>2020-07-26T06:50:15Z</time>
      </trkpt>
      <trkpt lat="45.689706159755588" lon="6.961546009406447">
        <ele>1615.6800000000001</ele>
        <time>2020-07-26T06:50:21Z</time>
      </trkpt>
      <trkpt lat="45.689847143366933" lon="6.961680958047509">
        <ele>1617.53</ele>
        <time>2020-07-26T06:50:35Z</time>
      </trkpt>
      <trkpt lat="45.689901961013675" lon="6.961727561429143">
        <ele>1618.5799999999999</ele>
        <time>2020-07-26T06:50:42Z</time>
      </trkpt>
      <trkpt lat="45.689926939085126" lon="6.96174843236804">
        <ele>1619.1500000000001</ele>
        <time>2020-07-26T06:50:45Z</time>
      </trkpt>
      <trkpt lat="45.689955186098814" lon="6.961779948323965">
        <ele>1619.6600000000001</ele>
        <time>2020-07-26T06:50:48Z</time>
      </trkpt>
      <trkpt lat="45.690024252980947" lon="6.961935181170702">
        <ele>1620.28</ele>
        <time>2020-07-26T06:51:00Z</time>
      </trkpt>
      <trkpt lat="45.690039256587625" lon="6.961974324658513">
        <ele>1620.4000000000001</ele>
        <time>2020-07-26T06:51:03Z</time>
      </trkpt>
      <trkpt lat="45.690053254365921" lon="6.962088569998741">
        <ele>1620.6600000000001</ele>
        <time>2020-07-26T06:51:13Z</time>
      </trkpt>
      <trkpt lat="45.690048560500145" lon="6.962230140343308">
        <ele>1622.78</ele>
        <time>2020-07-26T06:51:27Z</time>
      </trkpt>
      <trkpt lat="45.690053086727858" lon="6.962253525853157">
        <ele>1622.8499999999999</ele>
        <time>2020-07-26T06:51:29Z</time>
      </trkpt>
      <trkpt lat="45.690055936574936" lon="6.962294932454824">
        <ele>1623.24</ele>
        <time>2020-07-26T06:51:32Z</time>
      </trkpt>
      <trkpt lat="45.690070353448391" lon="6.962361484766007">
        <ele>1623.48</ele>
        <time>2020-07-26T06:51:37Z</time>
      </trkpt>
      <trkpt lat="45.690071862190962" lon="6.96250875480473">
        <ele>1624.0699999999999</ele>
        <time>2020-07-26T06:51:48Z</time>
      </trkpt>
      <trkpt lat="45.690050153061748" lon="6.962644709274173">
        <ele>1624.72</ele>
        <time>2020-07-26T06:51:59Z</time>
      </trkpt>
      <trkpt lat="45.689951749518514" lon="6.962712099775672">
        <ele>1626.45</ele>
        <time>2020-07-26T06:52:12Z</time>
      </trkpt>
      <trkpt lat="45.689835492521524" lon="6.962746297940612">
        <ele>1628.1900000000001</ele>
        <time>2020-07-26T06:52:26Z</time>
      </trkpt>
      <trkpt lat="45.689728790894151" lon="6.962811760604382">
        <ele>1628.98</ele>
        <time>2020-07-26T06:52:39Z</time>
      </trkpt>
      <trkpt lat="45.689692916348577" lon="6.962830033153296">
        <ele>1628.9300000000001</ele>
        <time>2020-07-26T06:52:43Z</time>
      </trkpt>
      <trkpt lat="45.689612533897161" lon="6.962846126407385">
        <ele>1629.03</ele>
        <time>2020-07-26T06:52:52Z</time>
      </trkpt>
      <trkpt lat="45.689482362940907" lon="6.962784938514233">
        <ele>1629.3599999999999</ele>
        <time>2020-07-26T06:53:06Z</time>
      </trkpt>
      <trkpt lat="45.68942042067647" lon="6.962827518582344">
        <ele>1629.4200000000001</ele>
        <time>2020-07-26T06:53:17Z</time>
      </trkpt>
      <trkpt lat="45.689405417069793" lon="6.962841767817736">
        <ele>1629.3900000000001</ele>
        <time>2020-07-26T06:53:19Z</time>
      </trkpt>
      <trkpt lat="45.689363172277808" lon="6.962862303480506">
        <ele>1629.02</ele>
        <time>2020-07-26T06:53:24Z</time>
      </trkpt>
      <trkpt lat="45.689253117889166" lon="6.962866326794028">
        <ele>1627.8399999999999</ele>
        <time>2020-07-26T06:53:36Z</time>
      </trkpt>
      <trkpt lat="45.689162090420723" lon="6.962848892435432">
        <ele>1626.8800000000001</ele>
        <time>2020-07-26T06:53:44Z</time>
      </trkpt>
      <trkpt lat="45.689141135662794" lon="6.962856519967318">
        <ele>1626.55</ele>
        <time>2020-07-26T06:53:46Z</time>
      </trkpt>
      <trkpt lat="45.689100231975317" lon="6.962853753939271">
        <ele>1621.76</ele>
        <time>2020-07-26T06:53:50Z</time>
      </trkpt>
      <trkpt lat="45.689087826758623" lon="6.962855095043778">
        <ele>1627.8699999999999</ele>
        <time>2020-07-26T06:53:51Z</time>
      </trkpt>
      <trkpt lat="45.689076595008373" lon="6.962853670120239">
        <ele>1627.6300000000001</ele>
        <time>2020-07-26T06:53:52Z</time>
      </trkpt>
      <trkpt lat="45.689045414328575" lon="6.962844114750624">
        <ele>1625.97</ele>
        <time>2020-07-26T06:53:55Z</time>
      </trkpt>
      <trkpt lat="45.688944663852453" lon="6.962820226326585">
        <ele>1625.03</ele>
        <time>2020-07-26T06:54:07Z</time>
      </trkpt>
      <trkpt lat="45.688875177875161" lon="6.962823830544949">
        <ele>1623.6099999999999</ele>
        <time>2020-07-26T06:54:14Z</time>
      </trkpt>
      <trkpt lat="45.688713742420077" lon="6.962831793352962">
        <ele>1622.03</ele>
        <time>2020-07-26T06:54:30Z</time>
      </trkpt>
      <trkpt lat="45.688681807368994" lon="6.962843108922243">
        <ele>1621.77</ele>
        <time>2020-07-26T06:54:33Z</time>
      </trkpt>
      <trkpt lat="45.688558090478182" lon="6.962864650413394">
        <ele>1620.6900000000001</ele>
        <time>2020-07-26T06:54:46Z</time>
      </trkpt>
      <trkpt lat="45.688447030261159" lon="6.962836822494865">
        <ele>1619.95</ele>
        <time>2020-07-26T06:54:57Z</time>
      </trkpt>
      <trkpt lat="45.688376454636455" lon="6.962799187749624">
        <ele>1619.1099999999999</ele>
        <time>2020-07-26T06:55:03Z</time>
      </trkpt>
      <trkpt lat="45.688279056921601" lon="6.962688714265823">
        <ele>1618.51</ele>
        <time>2020-07-26T06:55:15Z</time>
      </trkpt>
      <trkpt lat="45.688201189041138" lon="6.962554771453142">
        <ele>1619.0799999999999</ele>
        <time>2020-07-26T06:55:27Z</time>
      </trkpt>
      <trkpt lat="45.688180401921272" lon="6.962514873594046">
        <ele>1618.9000000000001</ele>
        <time>2020-07-26T06:55:31Z</time>
      </trkpt>
      <trkpt lat="45.688167829066515" lon="6.962490566074848">
        <ele>1618.78</ele>
        <time>2020-07-26T06:55:33Z</time>
      </trkpt>
      <trkpt lat="45.688110496848822" lon="6.962394006550312">
        <ele>1619.1400000000001</ele>
        <time>2020-07-26T06:55:45Z</time>
      </trkpt>
      <trkpt lat="45.688097923994064" lon="6.962411608546972">
        <ele>1619.3800000000001</ele>
        <time>2020-07-26T06:55:53Z</time>
      </trkpt>
      <trkpt lat="45.688096079975367" lon="6.962401298806071">
        <ele>1619.55</ele>
        <time>2020-07-26T06:56:00Z</time>
      </trkpt>
      <trkpt lat="45.688016200438142" lon="6.962328208610416">
        <ele>1620.73</ele>
        <time>2020-07-26T06:56:09Z</time>
      </trkpt>
      <trkpt lat="45.687933973968029" lon="6.962423929944634">
        <ele>1621.55</ele>
        <time>2020-07-26T06:56:18Z</time>
      </trkpt>
      <trkpt lat="45.687987953424454" lon="6.962640518322587">
        <ele>1621.73</ele>
        <time>2020-07-26T06:56:31Z</time>
      </trkpt>
      <trkpt lat="45.688023241236806" lon="6.962753422558308">
        <ele>1623.96</ele>
        <time>2020-07-26T06:56:43Z</time>
      </trkpt>
      <trkpt lat="45.688027683645487" lon="6.962864566594362">
        <ele>1625.25</ele>
        <time>2020-07-26T06:56:56Z</time>
      </trkpt>
      <trkpt lat="45.688021061941981" lon="6.962868086993694">
        <ele>1625.3299999999999</ele>
        <time>2020-07-26T06:56:57Z</time>
      </trkpt>
      <trkpt lat="45.687931794673204" lon="6.962855011224747">
        <ele>1627.71</ele>
        <time>2020-07-26T06:57:09Z</time>
      </trkpt>
      <trkpt lat="45.687841940671206" lon="6.962876133620739">
        <ele>1629.5899999999999</ele>
        <time>2020-07-26T06:57:22Z</time>
      </trkpt>
      <trkpt lat="45.687769185751677" lon="6.962949642911553">
        <ele>1630.1800000000001</ele>
        <time>2020-07-26T06:57:32Z</time>
      </trkpt>
      <trkpt lat="45.687742279842496" lon="6.962971854954958">
        <ele>1630.6500000000001</ele>
        <time>2020-07-26T06:57:35Z</time>
      </trkpt>
      <trkpt lat="45.687702633440495" lon="6.962997084483504">
        <ele>1631.0699999999999</ele>
        <time>2020-07-26T06:57:39Z</time>
      </trkpt>
      <trkpt lat="45.687600458040833" lon="6.962994150817394">
        <ele>1632.29</ele>
        <time>2020-07-26T06:57:50Z</time>
      </trkpt>
      <trkpt lat="45.687516136094928" lon="6.962996330112219">
        <ele>1633.1400000000001</ele>
        <time>2020-07-26T06:58:01Z</time>
      </trkpt>
      <trkpt lat="45.687457965686917" lon="6.962992809712887">
        <ele>1634.1099999999999</ele>
        <time>2020-07-26T06:58:09Z</time>
      </trkpt>
      <trkpt lat="45.687391581013799" lon="6.962958360090852">
        <ele>1636.0799999999999</ele>
        <time>2020-07-26T06:58:20Z</time>
      </trkpt>
      <trkpt lat="45.687346737831831" lon="6.962890466675162">
        <ele>1637.53</ele>
        <time>2020-07-26T06:58:31Z</time>
      </trkpt>
      <trkpt lat="45.687290662899613" lon="6.962872026488185">
        <ele>1638.24</ele>
        <time>2020-07-26T06:58:40Z</time>
      </trkpt>
      <trkpt lat="45.687242466956377" lon="6.962839839980006">
        <ele>1638.3499999999999</ele>
        <time>2020-07-26T06:58:45Z</time>
      </trkpt>
      <trkpt lat="45.687173651531339" lon="6.962791811674833">
        <ele>1639.03</ele>
        <time>2020-07-26T06:58:52Z</time>
      </trkpt>
      <trkpt lat="45.687128892168403" lon="6.962761888280511">
        <ele>1639.5</ele>
        <time>2020-07-26T06:58:57Z</time>
      </trkpt>
      <trkpt lat="45.68709259852767" lon="6.962752332910895">
        <ele>1639.53</ele>
        <time>2020-07-26T06:59:00Z</time>
      </trkpt>
      <trkpt lat="45.68699486553669" lon="6.962699946016073">
        <ele>1640.6600000000001</ele>
        <time>2020-07-26T06:59:12Z</time>
      </trkpt>
      <trkpt lat="45.686936527490616" lon="6.962621239945293">
        <ele>1641.5599999999999</ele>
        <time>2020-07-26T06:59:22Z</time>
      </trkpt>
      <trkpt lat="45.686882631853223" lon="6.962513281032443">
        <ele>1643.26</ele>
        <time>2020-07-26T06:59:36Z</time>
      </trkpt>
      <trkpt lat="45.686844410374761" lon="6.962403394281864">
        <ele>1643.8099999999999</ele>
        <time>2020-07-26T06:59:42Z</time>
      </trkpt>
      <trkpt lat="45.686795879155397" lon="6.962227625772357">
        <ele>1644.8900000000001</ele>
        <time>2020-07-26T06:59:53Z</time>
      </trkpt>
      <trkpt lat="45.686730835586786" lon="6.962089408189058">
        <ele>1647.03</ele>
        <time>2020-07-26T07:00:06Z</time>
      </trkpt>
      <trkpt lat="45.686642741784453" lon="6.962032997980714">
        <ele>1649.4200000000001</ele>
        <time>2020-07-26T07:00:20Z</time>
      </trkpt>
      <trkpt lat="45.686578787863255" lon="6.961985304951668">
        <ele>1651.76</ele>
        <time>2020-07-26T07:00:32Z</time>
      </trkpt>
      <trkpt lat="45.686489185318351" lon="6.961937109008431">
        <ele>1654.3699999999999</ele>
        <time>2020-07-26T07:00:47Z</time>
      </trkpt>
      <trkpt lat="45.686407629400492" lon="6.961885057389736">
        <ele>1656.53</ele>
        <time>2020-07-26T07:01:02Z</time>
      </trkpt>
      <trkpt lat="45.686340406537056" lon="6.961880279704928">
        <ele>1658.0599999999999</ele>
        <time>2020-07-26T07:01:15Z</time>
      </trkpt>
      <trkpt lat="45.686293467879295" lon="6.961876507848501">
        <ele>1656.8099999999999</ele>
        <time>2020-07-26T07:01:28Z</time>
      </trkpt>
      <trkpt lat="45.686295982450247" lon="6.961841974407435">
        <ele>1657.9100000000001</ele>
        <time>2020-07-26T07:02:34Z</time>
      </trkpt>
      <trkpt lat="45.686266729608178" lon="6.961842142045498">
        <ele>1659.1600000000001</ele>
        <time>2020-07-26T07:04:22Z</time>
      </trkpt>
      <trkpt lat="45.686247702687979" lon="6.961844488978386">
        <ele>1659.9300000000001</ele>
        <time>2020-07-26T07:04:37Z</time>
      </trkpt>
      <trkpt lat="45.686186514794827" lon="6.961777182295919">
        <ele>1662.1600000000001</ele>
        <time>2020-07-26T07:04:52Z</time>
      </trkpt>
      <trkpt lat="45.686117950826883" lon="6.961682718247175">
        <ele>1664.79</ele>
        <time>2020-07-26T07:05:06Z</time>
      </trkpt>
      <trkpt lat="45.686018709093332" lon="6.961623206734657">
        <ele>1665.6400000000001</ele>
        <time>2020-07-26T07:05:18Z</time>
      </trkpt>
      <trkpt lat="45.685859117656946" lon="6.9615329336375">
        <ele>1666.72</ele>
        <time>2020-07-26T07:05:34Z</time>
      </trkpt>
      <trkpt lat="45.685735065490007" lon="6.96149529889226">
        <ele>1667.1700000000001</ele>
        <time>2020-07-26T07:05:48Z</time>
      </trkpt>
      <trkpt lat="45.68564772605896" lon="6.961433021351695">
        <ele>1668.8900000000001</ele>
        <time>2020-07-26T07:06:01Z</time>
      </trkpt>
      <trkpt lat="45.685523087158799" lon="6.961327744647861">
        <ele>1669.52</ele>
        <time>2020-07-26T07:06:16Z</time>
      </trkpt>
      <trkpt lat="45.685382941737771" lon="6.961136134341359">
        <ele>1670.3900000000001</ele>
        <time>2020-07-26T07:06:34Z</time>
      </trkpt>
      <trkpt lat="45.685346564278007" lon="6.961053488776088">
        <ele>1671.6600000000001</ele>
        <time>2020-07-26T07:06:41Z</time>
      </trkpt>
      <trkpt lat="45.685265092179179" lon="6.960929520428181">
        <ele>1673.6300000000001</ele>
        <time>2020-07-26T07:06:54Z</time>
      </trkpt>
      <trkpt lat="45.685204742476344" lon="6.960837235674262">
        <ele>1675.53</ele>
        <time>2020-07-26T07:07:07Z</time>
      </trkpt>
      <trkpt lat="45.685177417472005" lon="6.960803037509322">
        <ele>1676.1500000000001</ele>
        <time>2020-07-26T07:07:18Z</time>
      </trkpt>
      <trkpt lat="45.685128048062325" lon="6.960882833227515">
        <ele>1676.3900000000001</ele>
        <time>2020-07-26T07:07:53Z</time>
      </trkpt>
      <trkpt lat="45.685176327824593" lon="6.960895238444209">
        <ele>1676.79</ele>
        <time>2020-07-26T07:08:18Z</time>
      </trkpt>
      <trkpt lat="45.685178088024259" lon="6.96092315018177">
        <ele>1676.5899999999999</ele>
        <time>2020-07-26T07:08:30Z</time>
      </trkpt>
      <trkpt lat="45.685155037790537" lon="6.961017865687609">
        <ele>1677.6900000000001</ele>
        <time>2020-07-26T07:08:43Z</time>
      </trkpt>
      <trkpt lat="45.685128131881356" lon="6.96114887483418">
        <ele>1680.3900000000001</ele>
        <time>2020-07-26T07:08:57Z</time>
      </trkpt>
      <trkpt lat="45.685118325054646" lon="6.961251050233841">
        <ele>1683.4000000000001</ele>
        <time>2020-07-26T07:09:09Z</time>
      </trkpt>
      <trkpt lat="45.68510633893311" lon="6.961367726325989">
        <ele>1685.0899999999999</ele>
        <time>2020-07-26T07:09:23Z</time>
      </trkpt>
      <trkpt lat="45.685058478266001" lon="6.961515918374062">
        <ele>1686.99</ele>
        <time>2020-07-26T07:09:37Z</time>
      </trkpt>
      <trkpt lat="45.68503400310874" lon="6.961635863408446">
        <ele>1688.76</ele>
        <time>2020-07-26T07:09:53Z</time>
      </trkpt>
      <trkpt lat="45.684941466897726" lon="6.961680119857192">
        <ele>1691.49</ele>
        <time>2020-07-26T07:10:09Z</time>
      </trkpt>
      <trkpt lat="45.684866700321436" lon="6.961717586964369">
        <ele>1694.1300000000001</ele>
        <time>2020-07-26T07:10:22Z</time>
      </trkpt>
      <trkpt lat="45.684806602075696" lon="6.9617401342839">
        <ele>1696.46</ele>
        <time>2020-07-26T07:10:35Z</time>
      </trkpt>
      <trkpt lat="45.684743570163846" lon="6.961784055456519">
        <ele>1699.2</ele>
        <time>2020-07-26T07:10:50Z</time>
      </trkpt>
      <trkpt lat="45.684713311493397" lon="6.961784642189741">
        <ele>1701.8299999999999</ele>
        <time>2020-07-26T07:11:04Z</time>
      </trkpt>
      <trkpt lat="45.684716496616602" lon="6.961778607219458">
        <ele>1701.8099999999999</ele>
        <time>2020-07-26T07:11:06Z</time>
      </trkpt>
      <trkpt lat="45.684765698388219" lon="6.961837196722627">
        <ele>1703.9000000000001</ele>
        <time>2020-07-26T07:11:20Z</time>
      </trkpt>
      <trkpt lat="45.684794532135129" lon="6.961970888078213">
        <ele>1706.23</ele>
        <time>2020-07-26T07:11:35Z</time>
      </trkpt>
      <trkpt lat="45.684834765270352" lon="6.962103825062513">
        <ele>1707.0999999999999</ele>
        <time>2020-07-26T07:11:48Z</time>
      </trkpt>
      <trkpt lat="45.684847002848983" lon="6.96222335100174">
        <ele>1708.8699999999999</ele>
        <time>2020-07-26T07:12:02Z</time>
      </trkpt>
      <trkpt lat="45.684913136065006" lon="6.962337177246809">
        <ele>1710.1199999999999</ele>
        <time>2020-07-26T07:12:16Z</time>
      </trkpt>
      <trkpt lat="45.684953033924103" lon="6.962451338768005">
        <ele>1712.6500000000001</ele>
        <time>2020-07-26T07:12:33Z</time>
      </trkpt>
      <trkpt lat="45.685008857399225" lon="6.962548987939954">
        <ele>1714.4400000000001</ele>
        <time>2020-07-26T07:12:47Z</time>
      </trkpt>
      <trkpt lat="45.684955883771181" lon="6.96253415197134">
        <ele>1716.55</ele>
        <time>2020-07-26T07:13:00Z</time>
      </trkpt>
      <trkpt lat="45.684854043647647" lon="6.962488386780024">
        <ele>1718.3</ele>
        <time>2020-07-26T07:13:15Z</time>
      </trkpt>
      <trkpt lat="45.684768883511424" lon="6.962436754256487">
        <ele>1719.99</ele>
        <time>2020-07-26T07:13:30Z</time>
      </trkpt>
      <trkpt lat="45.684718005359173" lon="6.962403059005737">
        <ele>1722.3099999999999</ele>
        <time>2020-07-26T07:13:43Z</time>
      </trkpt>
      <trkpt lat="45.684674587100744" lon="6.962300967425108">
        <ele>1724.5799999999999</ele>
        <time>2020-07-26T07:13:59Z</time>
      </trkpt>
      <trkpt lat="45.684613650664687" lon="6.962201306596398">
        <ele>1727</ele>
        <time>2020-07-26T07:14:14Z</time>
      </trkpt>
      <trkpt lat="45.68460644222796" lon="6.962190996855497">
        <ele>1727.01</ele>
        <time>2020-07-26T07:14:15Z</time>
      </trkpt>
      <trkpt lat="45.684551540762186" lon="6.962114470079541">
        <ele>1728.4300000000001</ele>
        <time>2020-07-26T07:14:31Z</time>
      </trkpt>
      <trkpt lat="45.684553552418947" lon="6.962163336575031">
        <ele>1728.6199999999999</ele>
        <time>2020-07-26T07:14:45Z</time>
      </trkpt>
      <trkpt lat="45.68457274697721" lon="6.962215220555663">
        <ele>1729.77</ele>
        <time>2020-07-26T07:15:01Z</time>
      </trkpt>
      <trkpt lat="45.684573836624622" lon="6.962329046800733">
        <ele>1731.4400000000001</ele>
        <time>2020-07-26T07:15:14Z</time>
      </trkpt>
      <trkpt lat="45.684588672593236" lon="6.962482938542962">
        <ele>1732.4000000000001</ele>
        <time>2020-07-26T07:15:27Z</time>
      </trkpt>
      <trkpt lat="45.684555899351835" lon="6.962484531104565">
        <ele>1733.8900000000001</ele>
        <time>2020-07-26T07:15:39Z</time>
      </trkpt>
      <trkpt lat="45.684501333162189" lon="6.962372297421098">
        <ele>1736.03</ele>
        <time>2020-07-26T07:15:53Z</time>
      </trkpt>
      <trkpt lat="45.684466045349836" lon="6.962272385135293">
        <ele>1738.78</ele>
        <time>2020-07-26T07:16:08Z</time>
      </trkpt>
      <trkpt lat="45.684425141662359" lon="6.962160151451826">
        <ele>1740.71</ele>
        <time>2020-07-26T07:16:26Z</time>
      </trkpt>
      <trkpt lat="45.6844144128263" lon="6.962086390703917">
        <ele>1740.3299999999999</ele>
        <time>2020-07-26T07:16:47Z</time>
      </trkpt>
      <trkpt lat="45.6843953859061" lon="6.962080271914601">
        <ele>1741.2</ele>
        <time>2020-07-26T07:17:06Z</time>
      </trkpt>
      <trkpt lat="45.684394463896751" lon="6.962062502279878">
        <ele>1740.52</ele>
        <time>2020-07-26T07:17:31Z</time>
      </trkpt>
      <trkpt lat="45.684381974861026" lon="6.961996285244823">
        <ele>1740.51</ele>
        <time>2020-07-26T07:17:52Z</time>
      </trkpt>
      <trkpt lat="45.684371581301093" lon="6.961973821744323">
        <ele>1740.1600000000001</ele>
        <time>2020-07-26T07:18:10Z</time>
      </trkpt>
      <trkpt lat="45.684320451691747" lon="6.961899725720286">
        <ele>1740.1199999999999</ele>
        <time>2020-07-26T07:18:26Z</time>
      </trkpt>
      <trkpt lat="45.684245266020298" lon="6.961823785677552">
        <ele>1739.76</ele>
        <time>2020-07-26T07:18:37Z</time>
      </trkpt>
      <trkpt lat="45.684223640710115" lon="6.961809620261192">
        <ele>1739.5999999999999</ele>
        <time>2020-07-26T07:18:41Z</time>
      </trkpt>
      <trkpt lat="45.684151137247682" lon="6.961795622482896">
        <ele>1738.55</ele>
        <time>2020-07-26T07:18:50Z</time>
      </trkpt>
      <trkpt lat="45.684060361236334" lon="6.961767543107271">
        <ele>1737.2</ele>
        <time>2020-07-26T07:19:03Z</time>
      </trkpt>
      <trkpt lat="45.684019206091762" lon="6.961732255294919">
        <ele>1737.1199999999999</ele>
        <time>2020-07-26T07:19:08Z</time>
      </trkpt>
      <trkpt lat="45.683979224413633" lon="6.961705852299929">
        <ele>1736.8299999999999</ele>
        <time>2020-07-26T07:19:11Z</time>
      </trkpt>
      <trkpt lat="45.683886855840683" lon="6.961705014109612">
        <ele>1737.3499999999999</ele>
        <time>2020-07-26T07:19:21Z</time>
      </trkpt>
      <trkpt lat="45.683732545003295" lon="6.961714653298259">
        <ele>1738.5699999999999</ele>
        <time>2020-07-26T07:19:37Z</time>
      </trkpt>
      <trkpt lat="45.683669680729508" lon="6.961732087656856">
        <ele>1738.4300000000001</ele>
        <time>2020-07-26T07:19:44Z</time>
      </trkpt>
      <trkpt lat="45.683524506166577" lon="6.961792102083564">
        <ele>1740.04</ele>
        <time>2020-07-26T07:19:59Z</time>
      </trkpt>
      <trkpt lat="45.683406991884112" lon="6.961776679381728">
        <ele>1742.04</ele>
        <time>2020-07-26T07:20:15Z</time>
      </trkpt>
      <trkpt lat="45.683369608595967" lon="6.961804255843163">
        <ele>1743.79</ele>
        <time>2020-07-26T07:20:31Z</time>
      </trkpt>
      <trkpt lat="45.683371620252728" lon="6.961886985227466">
        <ele>1745.2</ele>
        <time>2020-07-26T07:20:46Z</time>
      </trkpt>
      <trkpt lat="45.683418391272426" lon="6.961935348808765">
        <ele>1747.6300000000001</ele>
        <time>2020-07-26T07:20:59Z</time>
      </trkpt>
      <trkpt lat="45.683399280533195" lon="6.962003661319614">
        <ele>1749.4100000000001</ele>
        <time>2020-07-26T07:21:14Z</time>
      </trkpt>
      <trkpt lat="45.683332309126854" lon="6.962067196145654">
        <ele>1751.1300000000001</ele>
        <time>2020-07-26T07:21:31Z</time>
      </trkpt>
      <trkpt lat="45.683274725452065" lon="6.962028052657843">
        <ele>1752.8399999999999</ele>
        <time>2020-07-26T07:21:46Z</time>
      </trkpt>
      <trkpt lat="45.683279000222683" lon="6.962138777598739">
        <ele>1754.78</ele>
        <time>2020-07-26T07:22:03Z</time>
      </trkpt>
      <trkpt lat="45.683262571692467" lon="6.962135843932629">
        <ele>1756.02</ele>
        <time>2020-07-26T07:22:17Z</time>
      </trkpt>
      <trkpt lat="45.68321336992085" lon="6.962138442322612">
        <ele>1756.9000000000001</ele>
        <time>2020-07-26T07:22:32Z</time>
      </trkpt>
      <trkpt lat="45.683200461789966" lon="6.962096197530627">
        <ele>1758.98</ele>
        <time>2020-07-26T07:22:48Z</time>
      </trkpt>
      <trkpt lat="45.683209011331201" lon="6.962121091783047">
        <ele>1757.76</ele>
        <time>2020-07-26T07:23:06Z</time>
      </trkpt>
      <trkpt lat="45.683221919462085" lon="6.962126540020108">
        <ele>1757.21</ele>
        <time>2020-07-26T07:23:26Z</time>
      </trkpt>
      <trkpt lat="45.683241114020348" lon="6.962142800912261">
        <ele>1756.9400000000001</ele>
        <time>2020-07-26T07:23:46Z</time>
      </trkpt>
      <trkpt lat="45.683245388790965" lon="6.962157553061843">
        <ele>1757.28</ele>
        <time>2020-07-26T07:24:01Z</time>
      </trkpt>
      <trkpt lat="45.683248406276107" lon="6.962156044319272">
        <ele>1757.4100000000001</ele>
        <time>2020-07-26T07:24:17Z</time>
      </trkpt>
      <trkpt lat="45.683253183960915" lon="6.962156044319272">
        <ele>1757.3199999999999</ele>
        <time>2020-07-26T07:24:36Z</time>
      </trkpt>
      <trkpt lat="45.683269361034036" lon="6.962211364880204">
        <ele>1756.4100000000001</ele>
        <time>2020-07-26T07:24:53Z</time>
      </trkpt>
      <trkpt lat="45.683280425146222" lon="6.962250843644142">
        <ele>1755.5899999999999</ele>
        <time>2020-07-26T07:24:57Z</time>
      </trkpt>
      <trkpt lat="45.683278581127524" lon="6.962363161146641">
        <ele>1755.49</ele>
        <time>2020-07-26T07:25:08Z</time>
      </trkpt>
      <trkpt lat="45.683289309963584" lon="6.962511772289872">
        <ele>1756.8099999999999</ele>
        <time>2020-07-26T07:25:20Z</time>
      </trkpt>
      <trkpt lat="45.683335494250059" lon="6.962660634890199">
        <ele>1756.5</ele>
        <time>2020-07-26T07:25:35Z</time>
      </trkpt>
      <trkpt lat="45.683392826467752" lon="6.962721990421414">
        <ele>1756.8099999999999</ele>
        <time>2020-07-26T07:25:45Z</time>
      </trkpt>
      <trkpt lat="45.683392994105816" lon="6.962794242426753">
        <ele>1758.9300000000001</ele>
        <time>2020-07-26T07:25:59Z</time>
      </trkpt>
      <trkpt lat="45.683306492865086" lon="6.962888706475496">
        <ele>1760.47</ele>
        <time>2020-07-26T07:26:15Z</time>
      </trkpt>
      <trkpt lat="45.683202305808663" lon="6.963013261556625">
        <ele>1761.6800000000001</ele>
        <time>2020-07-26T07:26:31Z</time>
      </trkpt>
      <trkpt lat="45.683179423213005" lon="6.963037736713886">
        <ele>1761.79</ele>
        <time>2020-07-26T07:26:34Z</time>
      </trkpt>
      <trkpt lat="45.683114547282457" lon="6.963121807202697">
        <ele>1762.9200000000001</ele>
        <time>2020-07-26T07:26:44Z</time>
      </trkpt>
      <trkpt lat="45.68308437243104" lon="6.963205542415381">
        <ele>1764.22</ele>
        <time>2020-07-26T07:26:54Z</time>
      </trkpt>
      <trkpt lat="45.683054532855749" lon="6.963316686451435">
        <ele>1767.23</ele>
        <time>2020-07-26T07:27:09Z</time>
      </trkpt>
      <trkpt lat="45.683049419894814" lon="6.963432859629393">
        <ele>1770.3499999999999</ele>
        <time>2020-07-26T07:27:25Z</time>
      </trkpt>
      <trkpt lat="45.682997787371278" lon="6.963557163253427">
        <ele>1772.96</ele>
        <time>2020-07-26T07:27:41Z</time>
      </trkpt>
      <trkpt lat="45.682931486517191" lon="6.963676773011684">
        <ele>1774.47</ele>
        <time>2020-07-26T07:27:55Z</time>
      </trkpt>
      <trkpt lat="45.682881362736225" lon="6.963771069422364">
        <ele>1775.5699999999999</ele>
        <time>2020-07-26T07:28:04Z</time>
      </trkpt>
      <trkpt lat="45.682840626686811" lon="6.963940300047398">
        <ele>1776.4200000000001</ele>
        <time>2020-07-26T07:28:18Z</time>
      </trkpt>
      <trkpt lat="45.68282587453723" lon="6.963984053581953">
        <ele>1777.1500000000001</ele>
        <time>2020-07-26T07:28:23Z</time>
      </trkpt>
      <trkpt lat="45.682829562574625" lon="6.964089246466756">
        <ele>1778.0599999999999</ele>
        <time>2020-07-26T07:28:30Z</time>
      </trkpt>
      <trkpt lat="45.68280684761703" lon="6.964246574789286">
        <ele>1777.6400000000001</ele>
        <time>2020-07-26T07:28:42Z</time>
      </trkpt>
      <trkpt lat="45.682787485420704" lon="6.96429175324738">
        <ele>1777.6199999999999</ele>
        <time>2020-07-26T07:28:46Z</time>
      </trkpt>
      <trkpt lat="45.68273987621069" lon="6.964439442381263">
        <ele>1779.03</ele>
        <time>2020-07-26T07:28:59Z</time>
      </trkpt>
      <trkpt lat="45.682675922289491" lon="6.964529799297452">
        <ele>1780.8099999999999</ele>
        <time>2020-07-26T07:29:10Z</time>
      </trkpt>
      <trkpt lat="45.682668378576636" lon="6.964537594467402">
        <ele>1781.0899999999999</ele>
        <time>2020-07-26T07:29:11Z</time>
      </trkpt>
      <trkpt lat="45.682575842365623" lon="6.964636752381921">
        <ele>1783.96</ele>
        <time>2020-07-26T07:29:23Z</time>
      </trkpt>
      <trkpt lat="45.682464279234409" lon="6.964776897802949">
        <ele>1784.29</ele>
        <time>2020-07-26T07:29:37Z</time>
      </trkpt>
      <trkpt lat="45.682392111048102" lon="6.964862896129489">
        <ele>1785.6300000000001</ele>
        <time>2020-07-26T07:29:50Z</time>
      </trkpt>
      <trkpt lat="45.682329414412379" lon="6.964993653818965">
        <ele>1787.8399999999999</ele>
        <time>2020-07-26T07:30:04Z</time>
      </trkpt>
      <trkpt lat="45.682278871536255" lon="6.965101612731814">
        <ele>1790.4100000000001</ele>
        <time>2020-07-26T07:30:16Z</time>
      </trkpt>
      <trkpt lat="45.682272333651781" lon="6.96510823443532">
        <ele>1789.8</ele>
        <time>2020-07-26T07:30:28Z</time>
      </trkpt>
      <trkpt lat="45.682257497683167" lon="6.965154753997922">
        <ele>1790.5</ele>
        <time>2020-07-26T07:30:35Z</time>
      </trkpt>
      <trkpt lat="45.682249283418059" lon="6.965196076780558">
        <ele>1791.3</ele>
        <time>2020-07-26T07:30:38Z</time>
      </trkpt>
      <trkpt lat="45.682142917066813" lon="6.965373605489731">
        <ele>1792.0899999999999</ele>
        <time>2020-07-26T07:30:51Z</time>
      </trkpt>
      <trkpt lat="45.682139312848449" lon="6.965405708178878">
        <ele>1792.79</ele>
        <time>2020-07-26T07:31:04Z</time>
      </trkpt>
      <trkpt lat="45.682131014764309" lon="6.96543856523931">
        <ele>1792.5599999999999</ele>
        <time>2020-07-26T07:31:25Z</time>
      </trkpt>
      <trkpt lat="45.682053230702877" lon="6.965533951297402">
        <ele>1793.8599999999999</ele>
        <time>2020-07-26T07:31:38Z</time>
      </trkpt>
      <trkpt lat="45.681996569037437" lon="6.965644927695394">
        <ele>1795.5599999999999</ele>
        <time>2020-07-26T07:31:52Z</time>
      </trkpt>
      <trkpt lat="45.681967986747622" lon="6.965726651251316">
        <ele>1797.0699999999999</ele>
        <time>2020-07-26T07:32:04Z</time>
      </trkpt>
      <trkpt lat="45.681911911815405" lon="6.965776020660996">
        <ele>1797.6300000000001</ele>
        <time>2020-07-26T07:32:14Z</time>
      </trkpt>
      <trkpt lat="45.681820213794708" lon="6.965839806944132">
        <ele>1798.5999999999999</ele>
        <time>2020-07-26T07:32:28Z</time>
      </trkpt>
      <trkpt lat="45.681773358955979" lon="6.965877022594214">
        <ele>1799.5</ele>
        <time>2020-07-26T07:32:39Z</time>
      </trkpt>
      <trkpt lat="45.681755421683192" lon="6.965907281264663">
        <ele>1799.8099999999999</ele>
        <time>2020-07-26T07:32:53Z</time>
      </trkpt>
      <trkpt lat="45.681727174669504" lon="6.965966541320086">
        <ele>1800.1900000000001</ele>
        <time>2020-07-26T07:33:08Z</time>
      </trkpt>
      <trkpt lat="45.68169909529388" lon="6.966023873537779">
        <ele>1801.99</ele>
        <time>2020-07-26T07:33:21Z</time>
      </trkpt>
      <trkpt lat="45.681670177727938" lon="6.966078691184521">
        <ele>1802.8</ele>
        <time>2020-07-26T07:33:31Z</time>
      </trkpt>
      <trkpt lat="45.68163170479238" lon="6.966163096949458">
        <ele>1804.5699999999999</ele>
        <time>2020-07-26T07:33:42Z</time>
      </trkpt>
      <trkpt lat="45.68157160654664" lon="6.966210957616568">
        <ele>1806.79</ele>
        <time>2020-07-26T07:33:57Z</time>
      </trkpt>
      <trkpt lat="45.681519471108913" lon="6.966250101104379">
        <ele>1806.99</ele>
        <time>2020-07-26T07:34:06Z</time>
      </trkpt>
      <trkpt lat="45.68142794072628" lon="6.966252699494362">
        <ele>1807.98</ele>
        <time>2020-07-26T07:34:18Z</time>
      </trkpt>
      <trkpt lat="45.681417882442474" lon="6.966251190751791">
        <ele>1808.1800000000001</ele>
        <time>2020-07-26T07:34:19Z</time>
      </trkpt>
      <trkpt lat="45.681311767548323" lon="6.96624917909503">
        <ele>1809.6199999999999</ele>
        <time>2020-07-26T07:34:31Z</time>
      </trkpt>
      <trkpt lat="45.681205317378044" lon="6.966244904324412">
        <ele>1811.3800000000001</ele>
        <time>2020-07-26T07:34:46Z</time>
      </trkpt>
      <trkpt lat="45.681107081472874" lon="6.966264182701707">
        <ele>1813.29</ele>
        <time>2020-07-26T07:35:00Z</time>
      </trkpt>
      <trkpt lat="45.681099705398083" lon="6.966281030327082">
        <ele>1813.1800000000001</ele>
        <time>2020-07-26T07:35:12Z</time>
      </trkpt>
      <trkpt lat="45.681059220805764" lon="6.966354204341769">
        <ele>1814.5799999999999</ele>
        <time>2020-07-26T07:35:23Z</time>
      </trkpt>
      <trkpt lat="45.681082690134645" lon="6.966436514630914">
        <ele>1817.1099999999999</ele>
        <time>2020-07-26T07:35:36Z</time>
      </trkpt>
      <trkpt lat="45.681142956018448" lon="6.966455290094018">
        <ele>1819.48</ele>
        <time>2020-07-26T07:35:49Z</time>
      </trkpt>
      <trkpt lat="45.681193666532636" lon="6.966505497694016">
        <ele>1822.27</ele>
        <time>2020-07-26T07:36:04Z</time>
      </trkpt>
      <trkpt lat="45.681172460317612" lon="6.966530391946435">
        <ele>1822.99</ele>
        <time>2020-07-26T07:36:23Z</time>
      </trkpt>
      <trkpt lat="45.681122923269868" lon="6.966545647010207">
        <ele>1824.74</ele>
        <time>2020-07-26T07:36:37Z</time>
      </trkpt>
      <trkpt lat="45.681076068431139" lon="6.966602560132742">
        <ele>1826.5599999999999</ele>
        <time>2020-07-26T07:36:50Z</time>
      </trkpt>
      <trkpt lat="45.681042959913611" lon="6.966635333374143">
        <ele>1827.5699999999999</ele>
        <time>2020-07-26T07:37:08Z</time>
      </trkpt>
      <trkpt lat="45.681018568575382" lon="6.966669028624892">
        <ele>1829.0899999999999</ele>
        <time>2020-07-26T07:37:22Z</time>
      </trkpt>
      <trkpt lat="45.680991327390075" lon="6.966721247881651">
        <ele>1829.04</ele>
        <time>2020-07-26T07:37:40Z</time>
      </trkpt>
      <trkpt lat="45.680930139496922" lon="6.966823926195502">
        <ele>1831.0599999999999</ele>
        <time>2020-07-26T07:37:55Z</time>
      </trkpt>
      <trkpt lat="45.680892253294587" lon="6.966811772435904">
        <ele>1831.5899999999999</ele>
        <time>2020-07-26T07:38:01Z</time>
      </trkpt>
      <trkpt lat="45.68085721693933" lon="6.96676324121654">
        <ele>1831.1700000000001</ele>
        <time>2020-07-26T07:38:07Z</time>
      </trkpt>
      <trkpt lat="45.680790664628148" lon="6.966711692512035">
        <ele>1832.99</ele>
        <time>2020-07-26T07:38:20Z</time>
      </trkpt>
      <trkpt lat="45.680701732635498" lon="6.966704316437244">
        <ele>1835.51</ele>
        <time>2020-07-26T07:38:33Z</time>
      </trkpt>
      <trkpt lat="45.68062168546021" lon="6.966711273416877">
        <ele>1836.72</ele>
        <time>2020-07-26T07:38:45Z</time>
      </trkpt>
      <trkpt lat="45.680580614134669" lon="6.966707836836577">
        <ele>1837.0999999999999</ele>
        <time>2020-07-26T07:38:50Z</time>
      </trkpt>
      <trkpt lat="45.680532669648528" lon="6.966716218739748">
        <ele>1837.1099999999999</ele>
        <time>2020-07-26T07:38:55Z</time>
      </trkpt>
      <trkpt lat="45.680457567796111" lon="6.966696521267295">
        <ele>1837.77</ele>
        <time>2020-07-26T07:39:07Z</time>
      </trkpt>
      <trkpt lat="45.680394116789103" lon="6.966661987826228">
        <ele>1840.49</ele>
        <time>2020-07-26T07:39:20Z</time>
      </trkpt>
      <trkpt lat="45.680351620540023" lon="6.966617228463292">
        <ele>1841.53</ele>
        <time>2020-07-26T07:39:27Z</time>
      </trkpt>
      <trkpt lat="45.680266041308641" lon="6.966573223471642">
        <ele>1841.0799999999999</ele>
        <time>2020-07-26T07:39:42Z</time>
      </trkpt>
      <trkpt lat="45.680244583636522" lon="6.966607673093677">
        <ele>1841.48</ele>
        <time>2020-07-26T07:40:00Z</time>
      </trkpt>
      <trkpt lat="45.680235782638192" lon="6.96659023873508">
        <ele>1841.6400000000001</ele>
        <time>2020-07-26T07:40:13Z</time>
      </trkpt>
      <trkpt lat="45.680178618058562" lon="6.966578336432576">
        <ele>1841.5899999999999</ele>
        <time>2020-07-26T07:40:27Z</time>
      </trkpt>
      <trkpt lat="45.680095050483942" lon="6.96659560315311">
        <ele>1842.0899999999999</ele>
        <time>2020-07-26T07:40:36Z</time>
      </trkpt>
      <trkpt lat="45.680055487900972" lon="6.966591579839587">
        <ele>1842.51</ele>
        <time>2020-07-26T07:40:40Z</time>
      </trkpt>
      <trkpt lat="45.680006956681609" lon="6.966511448845267">
        <ele>1842.22</ele>
        <time>2020-07-26T07:40:53Z</time>
      </trkpt>
      <trkpt lat="45.67999966442585" lon="6.966509353369474">
        <ele>1842.1600000000001</ele>
        <time>2020-07-26T07:41:07Z</time>
      </trkpt>
      <trkpt lat="45.680005364120007" lon="6.966572720557451">
        <ele>1842.02</ele>
        <time>2020-07-26T07:41:28Z</time>
      </trkpt>
      <trkpt lat="45.68001382984221" lon="6.966658551245928">
        <ele>1841.48</ele>
        <time>2020-07-26T07:41:38Z</time>
      </trkpt>
      <trkpt lat="45.679931184276938" lon="6.96672460064292">
        <ele>1839.8</ele>
        <time>2020-07-26T07:41:51Z</time>
      </trkpt>
      <trkpt lat="45.67985943518579" lon="6.966768018901348">
        <ele>1838.6500000000001</ele>
        <time>2020-07-26T07:42:01Z</time>
      </trkpt>
      <trkpt lat="45.679757511243224" lon="6.96678277105093">
        <ele>1837.8800000000001</ele>
        <time>2020-07-26T07:42:10Z</time>
      </trkpt>
      <trkpt lat="45.679714344441891" lon="6.966815879568458">
        <ele>1837.78</ele>
        <time>2020-07-26T07:42:14Z</time>
      </trkpt>
      <trkpt lat="45.679657096043229" lon="6.966823255643249">
        <ele>1837.4000000000001</ele>
        <time>2020-07-26T07:42:21Z</time>
      </trkpt>
      <trkpt lat="45.679577132686973" lon="6.966778161004186">
        <ele>1836.0599999999999</ele>
        <time>2020-07-26T07:42:30Z</time>
      </trkpt>
      <trkpt lat="45.679524494335055" lon="6.966762486845255">
        <ele>1836.27</ele>
        <time>2020-07-26T07:42:42Z</time>
      </trkpt>
      <trkpt lat="45.679498929530382" lon="6.966709513217211">
        <ele>1836.1800000000001</ele>
        <time>2020-07-26T07:42:53Z</time>
      </trkpt>
      <trkpt lat="45.6794807408005" lon="6.966657293960452">
        <ele>1836.48</ele>
        <time>2020-07-26T07:43:00Z</time>
      </trkpt>
      <trkpt lat="45.679465821012855" lon="6.966632399708033">
        <ele>1835.96</ele>
        <time>2020-07-26T07:43:11Z</time>
      </trkpt>
      <trkpt lat="45.679505383595824" lon="6.966688139364123">
        <ele>1836.25</ele>
        <time>2020-07-26T07:43:22Z</time>
      </trkpt>
      <trkpt lat="45.679520471021533" lon="6.966702053323388">
        <ele>1836.0899999999999</ele>
        <time>2020-07-26T07:43:36Z</time>
      </trkpt>
      <trkpt lat="45.679476298391819" lon="6.966803222894669">
        <ele>1836.2</ele>
        <time>2020-07-26T07:43:47Z</time>
      </trkpt>
      <trkpt lat="45.679458864033222" lon="6.966809425503016">
        <ele>1836.23</ele>
        <time>2020-07-26T07:43:49Z</time>
      </trkpt>
      <trkpt lat="45.67936833947897" lon="6.966874385252595">
        <ele>1838.8</ele>
        <time>2020-07-26T07:44:04Z</time>
      </trkpt>
      <trkpt lat="45.679347803816199" lon="6.966864913702011">
        <ele>1839.2</ele>
        <time>2020-07-26T07:44:23Z</time>
      </trkpt>
      <trkpt lat="45.679317712783813" lon="6.966917803511024">
        <ele>1840.3800000000001</ele>
        <time>2020-07-26T07:44:41Z</time>
      </trkpt>
      <trkpt lat="45.679245879873633" lon="6.966985696926713">
        <ele>1842.05</ele>
        <time>2020-07-26T07:44:54Z</time>
      </trkpt>
      <trkpt lat="45.679185781627893" lon="6.967071108520031">
        <ele>1842.76</ele>
        <time>2020-07-26T07:45:04Z</time>
      </trkpt>
      <trkpt lat="45.679139429703355" lon="6.967175295576453">
        <ele>1843.47</ele>
        <time>2020-07-26T07:45:15Z</time>
      </trkpt>
      <trkpt lat="45.679056029766798" lon="6.967273196205497">
        <ele>1844.6800000000001</ele>
        <time>2020-07-26T07:45:28Z</time>
      </trkpt>
      <trkpt lat="45.679007582366467" lon="6.967277135699987">
        <ele>1844.7</ele>
        <time>2020-07-26T07:45:36Z</time>
      </trkpt>
      <trkpt lat="45.678936503827572" lon="6.967155262827873">
        <ele>1844.6099999999999</ele>
        <time>2020-07-26T07:45:49Z</time>
      </trkpt>
      <trkpt lat="45.67886509001255" lon="6.967147551476955">
        <ele>1844.73</ele>
        <time>2020-07-26T07:45:58Z</time>
      </trkpt>
      <trkpt lat="45.678809769451618" lon="6.967137157917023">
        <ele>1843.5599999999999</ele>
        <time>2020-07-26T07:46:06Z</time>
      </trkpt>
      <trkpt lat="45.678726453334093" lon="6.967084938660264">
        <ele>1841.8800000000001</ele>
        <time>2020-07-26T07:46:17Z</time>
      </trkpt>
      <trkpt lat="45.67871849052608" lon="6.9670778978616">
        <ele>1841.8800000000001</ele>
        <time>2020-07-26T07:46:18Z</time>
      </trkpt>
      <trkpt lat="45.678661577403545" lon="6.967040430754423">
        <ele>1841.3800000000001</ele>
        <time>2020-07-26T07:46:24Z</time>
      </trkpt>
      <trkpt lat="45.678602065891027" lon="6.966929873451591">
        <ele>1841.1199999999999</ele>
        <time>2020-07-26T07:46:33Z</time>
      </trkpt>
      <trkpt lat="45.678498633205891" lon="6.966834152117372">
        <ele>1840.8499999999999</ele>
        <time>2020-07-26T07:46:45Z</time>
      </trkpt>
      <trkpt lat="45.678473655134439" lon="6.966816131025553">
        <ele>1840.9300000000001</ele>
        <time>2020-07-26T07:46:48Z</time>
      </trkpt>
      <trkpt lat="45.678392266854644" lon="6.966728204861283">
        <ele>1841.6500000000001</ele>
        <time>2020-07-26T07:46:59Z</time>
      </trkpt>
      <trkpt lat="45.6783168297261" lon="6.966610942035914">
        <ele>1842.3800000000001</ele>
        <time>2020-07-26T07:47:11Z</time>
      </trkpt>
      <trkpt lat="45.678244326263666" lon="6.966441795229912">
        <ele>1843.3699999999999</ele>
        <time>2020-07-26T07:47:25Z</time>
      </trkpt>
      <trkpt lat="45.678151035681367" lon="6.966274660080671">
        <ele>1844.23</ele>
        <time>2020-07-26T07:47:39Z</time>
      </trkpt>
      <trkpt lat="45.678099738433957" lon="6.966258147731423">
        <ele>1846.6199999999999</ele>
        <time>2020-07-26T07:47:51Z</time>
      </trkpt>
      <trkpt lat="45.678093200549483" lon="6.966299051418901">
        <ele>1847.3199999999999</ele>
        <time>2020-07-26T07:48:02Z</time>
      </trkpt>
      <trkpt lat="45.678086159750819" lon="6.966397454962134">
        <ele>1849.0999999999999</ele>
        <time>2020-07-26T07:48:12Z</time>
      </trkpt>
      <trkpt lat="45.678085656836629" lon="6.966417990624905">
        <ele>1849.26</ele>
        <time>2020-07-26T07:48:14Z</time>
      </trkpt>
      <trkpt lat="45.678050285205245" lon="6.966452021151781">
        <ele>1851.25</ele>
        <time>2020-07-26T07:48:27Z</time>
      </trkpt>
      <trkpt lat="45.67800460383296" lon="6.966373063623905">
        <ele>1853.77</ele>
        <time>2020-07-26T07:48:41Z</time>
      </trkpt>
      <trkpt lat="45.677966214716434" lon="6.966300560161471">
        <ele>1855.8</ele>
        <time>2020-07-26T07:48:54Z</time>
      </trkpt>
      <trkpt lat="45.677937883883715" lon="6.96618908084929">
        <ele>1857.3499999999999</ele>
        <time>2020-07-26T07:49:08Z</time>
      </trkpt>
      <trkpt lat="45.677915001288056" lon="6.966094197705388">
        <ele>1859.27</ele>
        <time>2020-07-26T07:49:21Z</time>
      </trkpt>
      <trkpt lat="45.677868733182549" lon="6.966089755296707">
        <ele>1859.98</ele>
        <time>2020-07-26T07:49:40Z</time>
      </trkpt>
      <trkpt lat="45.677776783704758" lon="6.965967379510403">
        <ele>1860.8800000000001</ele>
        <time>2020-07-26T07:49:54Z</time>
      </trkpt>
      <trkpt lat="45.677768317982554" lon="6.965931756421924">
        <ele>1860.5899999999999</ele>
        <time>2020-07-26T07:49:57Z</time>
      </trkpt>
      <trkpt lat="45.677712578326464" lon="6.965814828872681">
        <ele>1859.6400000000001</ele>
        <time>2020-07-26T07:50:06Z</time>
      </trkpt>
      <trkpt lat="45.677705034613609" lon="6.965806195512414">
        <ele>1859.8800000000001</ele>
        <time>2020-07-26T07:50:07Z</time>
      </trkpt>
      <trkpt lat="45.677668154239655" lon="6.965766632929444">
        <ele>1860.2</ele>
        <time>2020-07-26T07:50:12Z</time>
      </trkpt>
      <trkpt lat="45.67759657278657" lon="6.965710306540132">
        <ele>1861.8800000000001</ele>
        <time>2020-07-26T07:50:24Z</time>
      </trkpt>
      <trkpt lat="45.67754284478724" lon="6.965673929080367">
        <ele>1863.9400000000001</ele>
        <time>2020-07-26T07:50:33Z</time>
      </trkpt>
      <trkpt lat="45.677497331053019" lon="6.965541495010257">
        <ele>1864.3399999999999</ele>
        <time>2020-07-26T07:50:44Z</time>
      </trkpt>
      <trkpt lat="45.677453326061368" lon="6.965577285736799">
        <ele>1866.5899999999999</ele>
        <time>2020-07-26T07:50:57Z</time>
      </trkpt>
      <trkpt lat="45.677381996065378" lon="6.965513080358505">
        <ele>1869.1199999999999</ele>
        <time>2020-07-26T07:51:11Z</time>
      </trkpt>
      <trkpt lat="45.677324328571558" lon="6.965473936870694">
        <ele>1870.97</ele>
        <time>2020-07-26T07:51:24Z</time>
      </trkpt>
      <trkpt lat="45.677266577258706" lon="6.965403445065022">
        <ele>1871.9000000000001</ele>
        <time>2020-07-26T07:51:35Z</time>
      </trkpt>
      <trkpt lat="45.677212346345186" lon="6.965295989066362">
        <ele>1874.3199999999999</ele>
        <time>2020-07-26T07:51:50Z</time>
      </trkpt>
      <trkpt lat="45.677177058532834" lon="6.96519423276186">
        <ele>1876.23</ele>
        <time>2020-07-26T07:52:03Z</time>
      </trkpt>
      <trkpt lat="45.677108829841018" lon="6.965097924694419">
        <ele>1878.0699999999999</ele>
        <time>2020-07-26T07:52:17Z</time>
      </trkpt>
      <trkpt lat="45.677074631676078" lon="6.965148048475385">
        <ele>1880.54</ele>
        <time>2020-07-26T07:52:30Z</time>
      </trkpt>
      <trkpt lat="45.677066668868065" lon="6.965259443968535">
        <ele>1882.49</ele>
        <time>2020-07-26T07:52:43Z</time>
      </trkpt>
      <trkpt lat="45.677041271701455" lon="6.965284841135144">
        <ele>1884.25</ele>
        <time>2020-07-26T07:52:54Z</time>
      </trkpt>
      <trkpt lat="45.677008079364896" lon="6.965301185846329">
        <ele>1885.73</ele>
        <time>2020-07-26T07:53:05Z</time>
      </trkpt>
      <trkpt lat="45.67698335275054" lon="6.965358266606927">
        <ele>1888.23</ele>
        <time>2020-07-26T07:53:18Z</time>
      </trkpt>
      <trkpt lat="45.676978826522827" lon="6.965415515005589">
        <ele>1889.6300000000001</ele>
        <time>2020-07-26T07:53:30Z</time>
      </trkpt>
      <trkpt lat="45.676978826522827" lon="6.965431021526456">
        <ele>1889.99</ele>
        <time>2020-07-26T07:53:47Z</time>
      </trkpt>
      <trkpt lat="45.676956027746201" lon="6.965494891628623">
        <ele>1891.8299999999999</ele>
        <time>2020-07-26T07:54:01Z</time>
      </trkpt>
      <trkpt lat="45.676950495690107" lon="6.96552355773747">
        <ele>1892.5699999999999</ele>
        <time>2020-07-26T07:54:17Z</time>
      </trkpt>
      <trkpt lat="45.677018724381924" lon="6.96561642922461">
        <ele>1894.03</ele>
        <time>2020-07-26T07:54:31Z</time>
      </trkpt>
      <trkpt lat="45.677065998315811" lon="6.965662781149149">
        <ele>1895.3900000000001</ele>
        <time>2020-07-26T07:54:41Z</time>
      </trkpt>
      <trkpt lat="45.677077816799283" lon="6.965751377865672">
        <ele>1897</ele>
        <time>2020-07-26T07:54:52Z</time>
      </trkpt>
      <trkpt lat="45.677117463201284" lon="6.965825138613582">
        <ele>1897.6099999999999</ele>
        <time>2020-07-26T07:55:02Z</time>
      </trkpt>
      <trkpt lat="45.677146967500448" lon="6.965880710631609">
        <ele>1898.8900000000001</ele>
        <time>2020-07-26T07:55:14Z</time>
      </trkpt>
      <trkpt lat="45.67716951481998" lon="6.965929577127099">
        <ele>1900.3399999999999</ele>
        <time>2020-07-26T07:55:27Z</time>
      </trkpt>
      <trkpt lat="45.677180495113134" lon="6.965977940708399">
        <ele>1902.78</ele>
        <time>2020-07-26T07:55:39Z</time>
      </trkpt>
      <trkpt lat="45.677156941965222" lon="6.966032339259982">
        <ele>1904.8</ele>
        <time>2020-07-26T07:55:53Z</time>
      </trkpt>
      <trkpt lat="45.677182925865054" lon="6.96611674502492">
        <ele>1906.51</ele>
        <time>2020-07-26T07:56:06Z</time>
      </trkpt>
      <trkpt lat="45.677247382700443" lon="6.966257812455297">
        <ele>1908.53</ele>
        <time>2020-07-26T07:56:23Z</time>
      </trkpt>
      <trkpt lat="45.677273282781243" lon="6.966373147442937">
        <ele>1910.53</ele>
        <time>2020-07-26T07:56:38Z</time>
      </trkpt>
      <trkpt lat="45.677292728796601" lon="6.966489152982831">
        <ele>1912.8199999999999</ele>
        <time>2020-07-26T07:56:52Z</time>
      </trkpt>
      <trkpt lat="45.677324580028653" lon="6.966549837961793">
        <ele>1913.5699999999999</ele>
        <time>2020-07-26T07:57:05Z</time>
      </trkpt>
      <trkpt lat="45.677360957488418" lon="6.96658973582089">
        <ele>1912.8099999999999</ele>
        <time>2020-07-26T07:57:12Z</time>
      </trkpt>
      <trkpt lat="45.677405800670385" lon="6.966702556237578">
        <ele>1912.4000000000001</ele>
        <time>2020-07-26T07:57:24Z</time>
      </trkpt>
      <trkpt lat="45.677383253350854" lon="6.966817807406187">
        <ele>1914.96</ele>
        <time>2020-07-26T07:57:39Z</time>
      </trkpt>
      <trkpt lat="45.677314605563879" lon="6.966861058026552">
        <ele>1917.3900000000001</ele>
        <time>2020-07-26T07:57:53Z</time>
      </trkpt>
      <trkpt lat="45.677312342450023" lon="6.966870445758104">
        <ele>1918.22</ele>
        <time>2020-07-26T07:58:08Z</time>
      </trkpt>
      <trkpt lat="45.677253669127822" lon="6.966921407729387">
        <ele>1920.98</ele>
        <time>2020-07-26T07:58:24Z</time>
      </trkpt>
      <trkpt lat="45.677248639985919" lon="6.966981589794159">
        <ele>1923.27</ele>
        <time>2020-07-26T07:58:37Z</time>
      </trkpt>
      <trkpt lat="45.677199522033334" lon="6.966972704976797">
        <ele>1925.1700000000001</ele>
        <time>2020-07-26T07:58:50Z</time>
      </trkpt>
      <trkpt lat="45.677163228392601" lon="6.966916043311358">
        <ele>1927.4300000000001</ele>
        <time>2020-07-26T07:59:05Z</time>
      </trkpt>
      <trkpt lat="45.677153505384922" lon="6.966867763549089">
        <ele>1928.3099999999999</ele>
        <time>2020-07-26T07:59:24Z</time>
      </trkpt>
      <trkpt lat="45.677128359675407" lon="6.966849910095334">
        <ele>1928.9200000000001</ele>
        <time>2020-07-26T07:59:38Z</time>
      </trkpt>
      <trkpt lat="45.677091311663389" lon="6.96679693646729">
        <ele>1931.9000000000001</ele>
        <time>2020-07-26T07:59:54Z</time>
      </trkpt>
      <trkpt lat="45.677078906446695" lon="6.966690653935075">
        <ele>1934.3199999999999</ele>
        <time>2020-07-26T08:00:08Z</time>
      </trkpt>
      <trkpt lat="45.677060717716813" lon="6.966593088582158">
        <ele>1937.1199999999999</ele>
        <time>2020-07-26T08:00:23Z</time>
      </trkpt>
      <trkpt lat="45.676982933655381" lon="6.966480519622564">
        <ele>1938.1400000000001</ele>
        <time>2020-07-26T08:00:38Z</time>
      </trkpt>
      <trkpt lat="45.676910011097789" lon="6.966372141614556">
        <ele>1939.3499999999999</ele>
        <time>2020-07-26T08:00:53Z</time>
      </trkpt>
      <trkpt lat="45.676847565919161" lon="6.966296704486013">
        <ele>1941.1199999999999</ele>
        <time>2020-07-26T08:01:10Z</time>
      </trkpt>
      <trkpt lat="45.676825940608978" lon="6.966261584311724">
        <ele>1941.8299999999999</ele>
        <time>2020-07-26T08:01:14Z</time>
      </trkpt>
      <trkpt lat="45.676801968365908" lon="6.966205341741443">
        <ele>1941.72</ele>
        <time>2020-07-26T08:01:19Z</time>
      </trkpt>
      <trkpt lat="45.676739774644375" lon="6.966117331758142">
        <ele>1941.71</ele>
        <time>2020-07-26T08:01:32Z</time>
      </trkpt>
      <trkpt lat="45.676711611449718" lon="6.966055976226926">
        <ele>1940.6300000000001</ele>
        <time>2020-07-26T08:01:44Z</time>
      </trkpt>
      <trkpt lat="45.676671965047717" lon="6.965977437794209">
        <ele>1939.3399999999999</ele>
        <time>2020-07-26T08:01:53Z</time>
      </trkpt>
      <trkpt lat="45.67658512853086" lon="6.965919099748135">
        <ele>1940.6099999999999</ele>
        <time>2020-07-26T08:02:08Z</time>
      </trkpt>
      <trkpt lat="45.676563167944551" lon="6.965890852734447">
        <ele>1940.9300000000001</ele>
        <time>2020-07-26T08:02:11Z</time>
      </trkpt>
      <trkpt lat="45.67653676494956" lon="6.965757999569178">
        <ele>1941.24</ele>
        <time>2020-07-26T08:02:22Z</time>
      </trkpt>
      <trkpt lat="45.676483539864421" lon="6.965665966272354">
        <ele>1942.3199999999999</ele>
        <time>2020-07-26T08:02:35Z</time>
      </trkpt>
      <trkpt lat="45.676461244001985" lon="6.965631600469351">
        <ele>1942.6400000000001</ele>
        <time>2020-07-26T08:02:54Z</time>
      </trkpt>
      <trkpt lat="45.676398044452071" lon="6.965590361505747">
        <ele>1944.27</ele>
        <time>2020-07-26T08:03:08Z</time>
      </trkpt>
      <trkpt lat="45.67635303363204" lon="6.965548451989889">
        <ele>1945.79</ele>
        <time>2020-07-26T08:03:23Z</time>
      </trkpt>
      <trkpt lat="45.67635940387845" lon="6.965544428676367">
        <ele>1945.4400000000001</ele>
        <time>2020-07-26T08:03:46Z</time>
      </trkpt>
      <trkpt lat="45.676325960084796" lon="6.965591451153159">
        <ele>1946.96</ele>
        <time>2020-07-26T08:03:57Z</time>
      </trkpt>
      <trkpt lat="45.676267622038722" lon="6.965564880520105">
        <ele>1950.1500000000001</ele>
        <time>2020-07-26T08:04:14Z</time>
      </trkpt>
      <trkpt lat="45.67624163813889" lon="6.965462118387222">
        <ele>1951.0899999999999</ele>
        <time>2020-07-26T08:04:24Z</time>
      </trkpt>
      <trkpt lat="45.676173912361264" lon="6.965409563854337">
        <ele>1952.6700000000001</ele>
        <time>2020-07-26T08:04:36Z</time>
      </trkpt>
      <trkpt lat="45.676114317029715" lon="6.965339407324791">
        <ele>1953.9100000000001</ele>
        <time>2020-07-26T08:04:46Z</time>
      </trkpt>
      <trkpt lat="45.676042651757598" lon="6.965311411768198">
        <ele>1954.22</ele>
        <time>2020-07-26T08:04:57Z</time>
      </trkpt>
      <trkpt lat="45.676024714484811" lon="6.965295318514109">
        <ele>1954.5</ele>
        <time>2020-07-26T08:04:59Z</time>
      </trkpt>
      <trkpt lat="45.67594357766211" lon="6.965191885828972">
        <ele>1954.9300000000001</ele>
        <time>2020-07-26T08:05:10Z</time>
      </trkpt>
      <trkpt lat="45.675924383103848" lon="6.965143270790577">
        <ele>1954.9000000000001</ele>
        <time>2020-07-26T08:05:14Z</time>
      </trkpt>
      <trkpt lat="45.675894124433398" lon="6.965095410123467">
        <ele>1954.8199999999999</ele>
        <time>2020-07-26T08:05:19Z</time>
      </trkpt>
      <trkpt lat="45.675823129713535" lon="6.965025085955858">
        <ele>1954.97</ele>
        <time>2020-07-26T08:05:27Z</time>
      </trkpt>
      <trkpt lat="45.675808293744922" lon="6.964984014630318">
        <ele>1955.1800000000001</ele>
        <time>2020-07-26T08:05:30Z</time>
      </trkpt>
      <trkpt lat="45.675798067823052" lon="6.964959539473057">
        <ele>1955.4400000000001</ele>
        <time>2020-07-26T08:05:32Z</time>
      </trkpt>
      <trkpt lat="45.675733191892505" lon="6.964910253882408">
        <ele>1957.1300000000001</ele>
        <time>2020-07-26T08:05:43Z</time>
      </trkpt>
      <trkpt lat="45.675714667886496" lon="6.964881084859371">
        <ele>1958.6300000000001</ele>
        <time>2020-07-26T08:05:56Z</time>
      </trkpt>
      <trkpt lat="45.675720451399684" lon="6.964880414307118">
        <ele>1959.3199999999999</ele>
        <time>2020-07-26T08:08:02Z</time>
      </trkpt>
      <trkpt lat="45.675767390057445" lon="6.964860633015633">
        <ele>1957.3299999999999</ele>
        <time>2020-07-26T08:09:03Z</time>
      </trkpt>
      <trkpt lat="45.675752721726894" lon="6.964849820360541">
        <ele>1957.6199999999999</ele>
        <time>2020-07-26T08:09:25Z</time>
      </trkpt>
      <trkpt lat="45.67577987909317" lon="6.964873876422644">
        <ele>1957.3299999999999</ele>
        <time>2020-07-26T08:09:30Z</time>
      </trkpt>
      <trkpt lat="45.675810556858778" lon="6.964894495904446">
        <ele>1956.96</ele>
        <time>2020-07-26T08:09:33Z</time>
      </trkpt>
      <trkpt lat="45.675878282636404" lon="6.964999353513122">
        <ele>1955.99</ele>
        <time>2020-07-26T08:09:45Z</time>
      </trkpt>
      <trkpt lat="45.675931256264448" lon="6.965063726529479">
        <ele>1956.1600000000001</ele>
        <time>2020-07-26T08:09:57Z</time>
      </trkpt>
      <trkpt lat="45.676041143015027" lon="6.965407468378544">
        <ele>1964.1099999999999</ele>
        <time>2020-07-26T08:11:44Z</time>
      </trkpt>
      <trkpt lat="45.676083052530885" lon="6.965266820043325">
        <ele>1964.97</ele>
        <time>2020-07-26T08:12:50Z</time>
      </trkpt>
      <trkpt lat="45.676104929298162" lon="6.965239578858018">
        <ele>1965.9100000000001</ele>
        <time>2020-07-26T08:13:31Z</time>
      </trkpt>
      <trkpt lat="45.676115825772285" lon="6.965303616598249">
        <ele>1967.02</ele>
        <time>2020-07-26T08:13:46Z</time>
      </trkpt>
      <trkpt lat="45.676132086664438" lon="6.965386429801583">
        <ele>1968.8499999999999</ele>
        <time>2020-07-26T08:13:57Z</time>
      </trkpt>
      <trkpt lat="45.676164943724871" lon="6.96548642590642">
        <ele>1970.5599999999999</ele>
        <time>2020-07-26T08:14:10Z</time>
      </trkpt>
      <trkpt lat="45.676127728074789" lon="6.965514002367854">
        <ele>1972.77</ele>
        <time>2020-07-26T08:14:22Z</time>
      </trkpt>
      <trkpt lat="45.676133930683136" lon="6.965562952682376">
        <ele>1975.0599999999999</ele>
        <time>2020-07-26T08:14:36Z</time>
      </trkpt>
      <trkpt lat="45.676166787743568" lon="6.965663451701403">
        <ele>1976.73</ele>
        <time>2020-07-26T08:14:51Z</time>
      </trkpt>
      <trkpt lat="45.676224874332547" lon="6.965775266289711">
        <ele>1978.79</ele>
        <time>2020-07-26T08:15:08Z</time>
      </trkpt>
      <trkpt lat="45.676202746108174" lon="6.965821115300059">
        <ele>1981.05</ele>
        <time>2020-07-26T08:15:22Z</time>
      </trkpt>
      <trkpt lat="45.676166452467442" lon="6.965821702033281">
        <ele>1982.0799999999999</ele>
        <time>2020-07-26T08:15:35Z</time>
      </trkpt>
      <trkpt lat="45.676127560436726" lon="6.965815834701061">
        <ele>1983.01</ele>
        <time>2020-07-26T08:15:54Z</time>
      </trkpt>
      <trkpt lat="45.676049189642072" lon="6.965744001790881">
        <ele>1985.04</ele>
        <time>2020-07-26T08:16:10Z</time>
      </trkpt>
      <trkpt lat="45.676028486341238" lon="6.965708127245307">
        <ele>1986.4300000000001</ele>
        <time>2020-07-26T08:16:18Z</time>
      </trkpt>
      <trkpt lat="45.676011554896832" lon="6.965691111981869">
        <ele>1986.54</ele>
        <time>2020-07-26T08:16:20Z</time>
      </trkpt>
      <trkpt lat="45.675957575440407" lon="6.965628918260336">
        <ele>1988.51</ele>
        <time>2020-07-26T08:16:31Z</time>
      </trkpt>
      <trkpt lat="45.675913570448756" lon="6.965581309050322">
        <ele>1990.3199999999999</ele>
        <time>2020-07-26T08:16:44Z</time>
      </trkpt>
      <trkpt lat="45.675863698124886" lon="6.965577704831958">
        <ele>1993.3</ele>
        <time>2020-07-26T08:16:59Z</time>
      </trkpt>
      <trkpt lat="45.675820950418711" lon="6.965560270473361">
        <ele>1994.6500000000001</ele>
        <time>2020-07-26T08:17:14Z</time>
      </trkpt>
      <trkpt lat="45.675768395885825" lon="6.965493550524116">
        <ele>1996.3299999999999</ele>
        <time>2020-07-26T08:17:28Z</time>
      </trkpt>
      <trkpt lat="45.675740484148264" lon="6.965442672371864">
        <ele>1997.6900000000001</ele>
        <time>2020-07-26T08:17:40Z</time>
      </trkpt>
      <trkpt lat="45.675690192729235" lon="6.965436469763517">
        <ele>1999.1700000000001</ele>
        <time>2020-07-26T08:17:57Z</time>
      </trkpt>
      <trkpt lat="45.675632357597351" lon="6.965418113395572">
        <ele>1999.6500000000001</ele>
        <time>2020-07-26T08:18:11Z</time>
      </trkpt>
      <trkpt lat="45.675622131675482" lon="6.965418951585889">
        <ele>1999.1500000000001</ele>
        <time>2020-07-26T08:18:29Z</time>
      </trkpt>
      <trkpt lat="45.675590364262462" lon="6.96538140065968">
        <ele>1998.96</ele>
        <time>2020-07-26T08:18:44Z</time>
      </trkpt>
      <trkpt lat="45.675589693710208" lon="6.965369498357177">
        <ele>1999.02</ele>
        <time>2020-07-26T08:19:05Z</time>
      </trkpt>
      <trkpt lat="45.675551891326904" lon="6.965304454788566">
        <ele>1999.0699999999999</ele>
        <time>2020-07-26T08:19:26Z</time>
      </trkpt>
      <trkpt lat="45.675491793081164" lon="6.965204291045666">
        <ele>2000.3499999999999</ele>
        <time>2020-07-26T08:19:36Z</time>
      </trkpt>
      <trkpt lat="45.675452817231417" lon="6.965181324630976">
        <ele>2000.8900000000001</ele>
        <time>2020-07-26T08:19:40Z</time>
      </trkpt>
      <trkpt lat="45.675425073131919" lon="6.965155676007271">
        <ele>2002.1300000000001</ele>
        <time>2020-07-26T08:19:43Z</time>
      </trkpt>
      <trkpt lat="45.675401436164975" lon="6.965122148394585">
        <ele>2002.95</ele>
        <time>2020-07-26T08:19:53Z</time>
      </trkpt>
      <trkpt lat="45.67540897987783" lon="6.965150311589241">
        <ele>2002.8900000000001</ele>
        <time>2020-07-26T08:20:13Z</time>
      </trkpt>
      <trkpt lat="45.675406800583005" lon="6.96514050476253">
        <ele>2002.3499999999999</ele>
        <time>2020-07-26T08:20:24Z</time>
      </trkpt>
      <trkpt lat="45.675381906330585" lon="6.965085100382567">
        <ele>2002.1300000000001</ele>
        <time>2020-07-26T08:20:28Z</time>
      </trkpt>
      <trkpt lat="45.675348462536931" lon="6.965013686567545">
        <ele>2002.48</ele>
        <time>2020-07-26T08:20:43Z</time>
      </trkpt>
      <trkpt lat="45.675346618518233" lon="6.965017626062036">
        <ele>2002.47</ele>
        <time>2020-07-26T08:21:06Z</time>
      </trkpt>
      <trkpt lat="45.675369752570987" lon="6.964997258037329">
        <ele>2002.3199999999999</ele>
        <time>2020-07-26T08:21:27Z</time>
      </trkpt>
      <trkpt lat="45.67534301429987" lon="6.964979404583573">
        <ele>2002.0999999999999</ele>
        <time>2020-07-26T08:21:40Z</time>
      </trkpt>
      <trkpt lat="45.675343349575996" lon="6.964954426512122">
        <ele>2001.71</ele>
        <time>2020-07-26T08:22:00Z</time>
      </trkpt>
      <trkpt lat="45.675338404253125" lon="6.964940764009953">
        <ele>2001.53</ele>
        <time>2020-07-26T08:22:22Z</time>
      </trkpt>
      <trkpt lat="45.675353407859802" lon="6.964974040165544">
        <ele>2002.01</ele>
        <time>2020-07-26T08:22:31Z</time>
      </trkpt>
      <trkpt lat="45.675367321819067" lon="6.965007064864039">
        <ele>2002.22</ele>
        <time>2020-07-26T08:22:33Z</time>
      </trkpt>
      <trkpt lat="45.675403866916895" lon="6.965072946622968">
        <ele>2002.21</ele>
        <time>2020-07-26T08:22:44Z</time>
      </trkpt>
      <trkpt lat="45.675415517762303" lon="6.965100103989244">
        <ele>2002.02</ele>
        <time>2020-07-26T08:22:56Z</time>
      </trkpt>
      <trkpt lat="45.675478130578995" lon="6.965186605229974">
        <ele>2001.8299999999999</ele>
        <time>2020-07-26T08:23:07Z</time>
      </trkpt>
      <trkpt lat="45.675505958497524" lon="6.965197501704097">
        <ele>2001.3399999999999</ele>
        <time>2020-07-26T08:23:10Z</time>
      </trkpt>
      <trkpt lat="45.6755814794451" lon="6.965292971581221">
        <ele>1999.22</ele>
        <time>2020-07-26T08:23:22Z</time>
      </trkpt>
      <trkpt lat="45.675640152767301" lon="6.965390788391233">
        <ele>1998.74</ele>
        <time>2020-07-26T08:23:33Z</time>
      </trkpt>
      <trkpt lat="45.675698826089501" lon="6.965474858880043">
        <ele>1999.1099999999999</ele>
        <time>2020-07-26T08:23:44Z</time>
      </trkpt>
      <trkpt lat="45.675718858838081" lon="6.965517774224281">
        <ele>1999.1199999999999</ele>
        <time>2020-07-26T08:23:50Z</time>
      </trkpt>
      <trkpt lat="45.675790188834071" lon="6.965597150847316">
        <ele>1997.1700000000001</ele>
        <time>2020-07-26T08:24:03Z</time>
      </trkpt>
      <trkpt lat="45.67579748108983" lon="6.965548284351826">
        <ele>1995.0999999999999</ele>
        <time>2020-07-26T08:24:14Z</time>
      </trkpt>
      <trkpt lat="45.675836289301515" lon="6.965528335422278">
        <ele>1993.27</ele>
        <time>2020-07-26T08:24:24Z</time>
      </trkpt>
      <trkpt lat="45.675892699509859" lon="6.965585835278034">
        <ele>1990.74</ele>
        <time>2020-07-26T08:24:37Z</time>
      </trkpt>
      <trkpt lat="45.675932429730892" lon="6.965594049543142">
        <ele>1988.6900000000001</ele>
        <time>2020-07-26T08:24:48Z</time>
      </trkpt>
      <trkpt lat="45.675956569612026" lon="6.965620536357164">
        <ele>1987.53</ele>
        <time>2020-07-26T08:24:59Z</time>
      </trkpt>
      <trkpt lat="45.675988420844078" lon="6.965633193030953">
        <ele>1986.8299999999999</ele>
        <time>2020-07-26T08:25:02Z</time>
      </trkpt>
      <trkpt lat="45.67605203948915" lon="6.96569018997252">
        <ele>1984.79</ele>
        <time>2020-07-26T08:25:15Z</time>
      </trkpt>
      <trkpt lat="45.676080705597997" lon="6.965749450027943">
        <ele>1983.6500000000001</ele>
        <time>2020-07-26T08:25:25Z</time>
      </trkpt>
      <trkpt lat="45.676090512424707" lon="6.965755987912417">
        <ele>1983.45</ele>
        <time>2020-07-26T08:25:27Z</time>
      </trkpt>
      <trkpt lat="45.676159914582968" lon="6.965843662619591">
        <ele>1980.98</ele>
        <time>2020-07-26T08:25:40Z</time>
      </trkpt>
      <trkpt lat="45.676181623712182" lon="6.965871993452311">
        <ele>1981.48</ele>
        <time>2020-07-26T08:25:50Z</time>
      </trkpt>
      <trkpt lat="45.676187910139561" lon="6.965865707024932">
        <ele>1981.74</ele>
        <time>2020-07-26T08:26:10Z</time>
      </trkpt>
      <trkpt lat="45.676183383911848" lon="6.96586268953979">
        <ele>1981.8399999999999</ele>
        <time>2020-07-26T08:26:28Z</time>
      </trkpt>
      <trkpt lat="45.676182126626372" lon="6.965873586013913">
        <ele>1983.3199999999999</ele>
        <time>2020-07-26T08:26:38Z</time>
      </trkpt>
      <trkpt lat="45.676182461902499" lon="6.965872077271342">
        <ele>1981.6800000000001</ele>
        <time>2020-07-26T08:26:41Z</time>
      </trkpt>
      <trkpt lat="45.676166452467442" lon="6.965844081714749">
        <ele>1981.1900000000001</ele>
        <time>2020-07-26T08:27:01Z</time>
      </trkpt>
      <trkpt lat="45.676173660904169" lon="6.965846931561828">
        <ele>1981.4200000000001</ele>
        <time>2020-07-26T08:27:28Z</time>
      </trkpt>
      <trkpt lat="45.676164356991649" lon="6.965826060622931">
        <ele>1981.3099999999999</ele>
        <time>2020-07-26T08:27:47Z</time>
      </trkpt>
      <trkpt lat="45.676168967038393" lon="6.965805860236287">
        <ele>1981</ele>
        <time>2020-07-26T08:28:18Z</time>
      </trkpt>
      <trkpt lat="45.676174918189645" lon="6.965810637921095">
        <ele>1980.7</ele>
        <time>2020-07-26T08:28:36Z</time>
      </trkpt>
      <trkpt lat="45.676167039200664" lon="6.965824468061328">
        <ele>1980.6099999999999</ele>
        <time>2020-07-26T08:28:59Z</time>
      </trkpt>
      <trkpt lat="45.676164189353585" lon="6.965826563537121">
        <ele>1981.1199999999999</ele>
        <time>2020-07-26T08:29:27Z</time>
      </trkpt>
      <trkpt lat="45.676199393346906" lon="6.965881884098053">
        <ele>1982.1199999999999</ele>
        <time>2020-07-26T08:29:41Z</time>
      </trkpt>
      <trkpt lat="45.676268041133881" lon="6.965978359803557">
        <ele>1982.54</ele>
        <time>2020-07-26T08:29:54Z</time>
      </trkpt>
      <trkpt lat="45.6763153988868" lon="6.96610065177083">
        <ele>1983.3299999999999</ele>
        <time>2020-07-26T08:30:07Z</time>
      </trkpt>
      <trkpt lat="45.676364935934544" lon="6.966184554621577">
        <ele>1984.5699999999999</ele>
        <time>2020-07-26T08:30:20Z</time>
      </trkpt>
      <trkpt lat="45.676396284252405" lon="6.96630391292274">
        <ele>1987.1700000000001</ele>
        <time>2020-07-26T08:30:35Z</time>
      </trkpt>
      <trkpt lat="45.676433835178614" lon="6.966408770531416">
        <ele>1990.51</ele>
        <time>2020-07-26T08:30:50Z</time>
      </trkpt>
      <trkpt lat="45.676468787714839" lon="6.966442717239261">
        <ele>1992.3199999999999</ele>
        <time>2020-07-26T08:31:02Z</time>
      </trkpt>
      <trkpt lat="45.676523856818676" lon="6.966460486873984">
        <ele>1994.48</ele>
        <time>2020-07-26T08:31:14Z</time>
      </trkpt>
      <trkpt lat="45.676575992256403" lon="6.966550759971142">
        <ele>1996.3399999999999</ele>
        <time>2020-07-26T08:31:27Z</time>
      </trkpt>
      <trkpt lat="45.676557468250394" lon="6.966615971177816">
        <ele>1997.78</ele>
        <time>2020-07-26T08:31:38Z</time>
      </trkpt>
      <trkpt lat="45.676495777443051" lon="6.966712530702353">
        <ele>2000.5699999999999</ele>
        <time>2020-07-26T08:31:57Z</time>
      </trkpt>
      <trkpt lat="45.676531903445721" lon="6.966838343068957">
        <ele>2003.6300000000001</ele>
        <time>2020-07-26T08:32:13Z</time>
      </trkpt>
      <trkpt lat="45.676565766334534" lon="6.966920904815197">
        <ele>2005.1099999999999</ele>
        <time>2020-07-26T08:32:25Z</time>
      </trkpt>
      <trkpt lat="45.676555121317506" lon="6.967037664726377">
        <ele>2007.4400000000001</ele>
        <time>2020-07-26T08:32:40Z</time>
      </trkpt>
      <trkpt lat="45.676602479070425" lon="6.967128273099661">
        <ele>2009.22</ele>
        <time>2020-07-26T08:32:55Z</time>
      </trkpt>
      <trkpt lat="45.676577836275101" lon="6.96715316735208">
        <ele>2011.51</ele>
        <time>2020-07-26T08:33:10Z</time>
      </trkpt>
      <trkpt lat="45.67653433419764" lon="6.967097008600831">
        <ele>2013.22</ele>
        <time>2020-07-26T08:33:22Z</time>
      </trkpt>
      <trkpt lat="45.67647909745574" lon="6.967033725231886">
        <ele>2016.0699999999999</ele>
        <time>2020-07-26T08:33:35Z</time>
      </trkpt>
      <trkpt lat="45.676444815471768" lon="6.96705786511302">
        <ele>2019.0699999999999</ele>
        <time>2020-07-26T08:33:46Z</time>
      </trkpt>
      <trkpt lat="45.676401313394308" lon="6.967055769637227">
        <ele>2021.6500000000001</ele>
        <time>2020-07-26T08:34:03Z</time>
      </trkpt>
      <trkpt lat="45.67633836530149" lon="6.96705493144691">
        <ele>2024.8</ele>
        <time>2020-07-26T08:34:17Z</time>
      </trkpt>
      <trkpt lat="45.676326462998986" lon="6.967032719403505">
        <ele>2024.99</ele>
        <time>2020-07-26T08:34:20Z</time>
      </trkpt>
      <trkpt lat="45.676304083317518" lon="6.966970944777131">
        <ele>2024.4300000000001</ele>
        <time>2020-07-26T08:34:25Z</time>
      </trkpt>
      <trkpt lat="45.676257228478789" lon="6.966904308646917">
        <ele>2024.04</ele>
        <time>2020-07-26T08:34:37Z</time>
      </trkpt>
      <trkpt lat="45.67625630646944" lon="6.966816885396838">
        <ele>2023.97</ele>
        <time>2020-07-26T08:34:50Z</time>
      </trkpt>
      <trkpt lat="45.676239207386971" lon="6.966752260923386">
        <ele>2023.51</ele>
        <time>2020-07-26T08:35:08Z</time>
      </trkpt>
      <trkpt lat="45.67614340223372" lon="6.966680930927396">
        <ele>2023.8499999999999</ele>
        <time>2020-07-26T08:35:21Z</time>
      </trkpt>
      <trkpt lat="45.676116077229381" lon="6.966660562902689">
        <ele>2024.25</ele>
        <time>2020-07-26T08:35:26Z</time>
      </trkpt>
      <trkpt lat="45.676083974540234" lon="6.9666444696486">
        <ele>2024.23</ele>
        <time>2020-07-26T08:35:29Z</time>
      </trkpt>
      <trkpt lat="45.67601541057229" lon="6.966607505455613">
        <ele>2025.5699999999999</ele>
        <time>2020-07-26T08:35:43Z</time>
      </trkpt>
      <trkpt lat="45.676036113873124" lon="6.966669028624892">
        <ele>2027.45</ele>
        <time>2020-07-26T08:35:56Z</time>
      </trkpt>
      <trkpt lat="45.676037203520536" lon="6.966703645884991">
        <ele>2029.47</ele>
        <time>2020-07-26T08:36:06Z</time>
      </trkpt>
      <trkpt lat="45.675988001748919" lon="6.96668453514576">
        <ele>2031.77</ele>
        <time>2020-07-26T08:36:18Z</time>
      </trkpt>
      <trkpt lat="45.675944248214364" lon="6.96676273830235">
        <ele>2033.0899999999999</ele>
        <time>2020-07-26T08:36:29Z</time>
      </trkpt>
      <trkpt lat="45.675974087789655" lon="6.966869942843914">
        <ele>2034.97</ele>
        <time>2020-07-26T08:36:42Z</time>
      </trkpt>
      <trkpt lat="45.675973333418369" lon="6.966926017776132">
        <ele>2035.28</ele>
        <time>2020-07-26T08:36:51Z</time>
      </trkpt>
      <trkpt lat="45.67598657682538" lon="6.967012099921703">
        <ele>2036.54</ele>
        <time>2020-07-26T08:37:02Z</time>
      </trkpt>
      <trkpt lat="45.675993366166949" lon="6.967110503464937">
        <ele>2039.5</ele>
        <time>2020-07-26T08:37:15Z</time>
      </trkpt>
      <trkpt lat="45.675974758341908" lon="6.967146461829543">
        <ele>2041.46</ele>
        <time>2020-07-26T08:37:28Z</time>
      </trkpt>
      <trkpt lat="45.675965370610356" lon="6.967194909229875">
        <ele>2042.72</ele>
        <time>2020-07-26T08:37:44Z</time>
      </trkpt>
      <trkpt lat="45.676015326753259" lon="6.967254336923361">
        <ele>2043.8900000000001</ele>
        <time>2020-07-26T08:37:56Z</time>
      </trkpt>
      <trkpt lat="45.67609503865242" lon="6.967288618907332">
        <ele>2045.3699999999999</ele>
        <time>2020-07-26T08:38:08Z</time>
      </trkpt>
      <trkpt lat="45.676125967875123" lon="6.967368330806494">
        <ele>2047.5599999999999</ele>
        <time>2020-07-26T08:38:19Z</time>
      </trkpt>
      <trkpt lat="45.676180282607675" lon="6.967417784035206">
        <ele>2049.3400000000001</ele>
        <time>2020-07-26T08:38:32Z</time>
      </trkpt>
      <trkpt lat="45.676205512136221" lon="6.967452736571431">
        <ele>2050.4899999999998</ele>
        <time>2020-07-26T08:38:42Z</time>
      </trkpt>
      <trkpt lat="45.676233004778624" lon="6.967522306367755">
        <ele>2053.0900000000001</ele>
        <time>2020-07-26T08:38:53Z</time>
      </trkpt>
      <trkpt lat="45.676236525177956" lon="6.967581901699305">
        <ele>2054.5300000000002</ele>
        <time>2020-07-26T08:39:03Z</time>
      </trkpt>
      <trkpt lat="45.67619469948113" lon="6.967605538666248">
        <ele>2056.8000000000002</ele>
        <time>2020-07-26T08:39:15Z</time>
      </trkpt>
      <trkpt lat="45.676156226545572" lon="6.967552648857236">
        <ele>2058.3699999999999</ele>
        <time>2020-07-26T08:39:27Z</time>
      </trkpt>
      <trkpt lat="45.676121525466442" lon="6.967637306079269">
        <ele>2061.2800000000002</ele>
        <time>2020-07-26T08:39:43Z</time>
      </trkpt>
      <trkpt lat="45.676130494102836" lon="6.967720622196794">
        <ele>2062.9899999999998</ele>
        <time>2020-07-26T08:39:57Z</time>
      </trkpt>
      <trkpt lat="45.676157148554921" lon="6.967780301347375">
        <ele>2065.5999999999999</ele>
        <time>2020-07-26T08:40:11Z</time>
      </trkpt>
      <trkpt lat="45.676113143563271" lon="6.967786168679595">
        <ele>2066.5500000000002</ele>
        <time>2020-07-26T08:40:27Z</time>
      </trkpt>
      <trkpt lat="45.676107108592987" lon="6.967885913327336">
        <ele>2068.0799999999999</ele>
        <time>2020-07-26T08:40:42Z</time>
      </trkpt>
      <trkpt lat="45.676155723631382" lon="6.96790318004787">
        <ele>2069.6199999999999</ele>
        <time>2020-07-26T08:40:59Z</time>
      </trkpt>
      <trkpt lat="45.676169721409678" lon="6.967916255816817">
        <ele>2070.2199999999998</ele>
        <time>2020-07-26T08:41:14Z</time>
      </trkpt>
      <trkpt lat="45.67617810331285" lon="6.967968726530671">
        <ele>2072.1500000000001</ele>
        <time>2020-07-26T08:41:25Z</time>
      </trkpt>
      <trkpt lat="45.676226550713181" lon="6.968014491721988">
        <ele>2074.1999999999998</ele>
        <time>2020-07-26T08:41:37Z</time>
      </trkpt>
      <trkpt lat="45.676255049183965" lon="6.968085737898946">
        <ele>2075.9299999999998</ele>
        <time>2020-07-26T08:41:47Z</time>
      </trkpt>
      <trkpt lat="45.676291845738888" lon="6.968114404007793">
        <ele>2077.5</ele>
        <time>2020-07-26T08:41:58Z</time>
      </trkpt>
      <trkpt lat="45.676321852952242" lon="6.968188416212797">
        <ele>2079.3299999999999</ele>
        <time>2020-07-26T08:42:10Z</time>
      </trkpt>
      <trkpt lat="45.676312213763595" lon="6.968308528885245">
        <ele>2081.0799999999999</ele>
        <time>2020-07-26T08:42:23Z</time>
      </trkpt>
      <trkpt lat="45.67634079605341" lon="6.968382624909282">
        <ele>2083.4200000000001</ele>
        <time>2020-07-26T08:42:36Z</time>
      </trkpt>
      <trkpt lat="45.676334425806999" lon="6.968464013189077">
        <ele>2085.27</ele>
        <time>2020-07-26T08:42:48Z</time>
      </trkpt>
      <trkpt lat="45.676343562081456" lon="6.968544730916619">
        <ele>2086.98</ele>
        <time>2020-07-26T08:42:59Z</time>
      </trkpt>
      <trkpt lat="45.676382873207331" lon="6.968593848869205">
        <ele>2089.4400000000001</ele>
        <time>2020-07-26T08:43:12Z</time>
      </trkpt>
      <trkpt lat="45.676435763016343" lon="6.968636931851506">
        <ele>2091.6799999999998</ele>
        <time>2020-07-26T08:43:27Z</time>
      </trkpt>
      <trkpt lat="45.676471805199981" lon="6.96873189881444">
        <ele>2092.9899999999998</ele>
        <time>2020-07-26T08:43:40Z</time>
      </trkpt>
      <trkpt lat="45.676475996151567" lon="6.968761486932635">
        <ele>2093.6399999999999</ele>
        <time>2020-07-26T08:43:53Z</time>
      </trkpt>
      <trkpt lat="45.676437690854073" lon="6.968859806656838">
        <ele>2096.3499999999999</ele>
        <time>2020-07-26T08:44:07Z</time>
      </trkpt>
      <trkpt lat="45.676419753581285" lon="6.968949995934963">
        <ele>2099.0999999999999</ele>
        <time>2020-07-26T08:44:23Z</time>
      </trkpt>
      <trkpt lat="45.676427548751235" lon="6.968958713114262">
        <ele>2099.8200000000002</ele>
        <time>2020-07-26T08:44:40Z</time>
      </trkpt>
      <trkpt lat="45.676450515165925" lon="6.968998275697231">
        <ele>2099.75</ele>
        <time>2020-07-26T08:45:00Z</time>
      </trkpt>
      <trkpt lat="45.676455795764923" lon="6.969039347022772">
        <ele>2100.7600000000002</ele>
        <time>2020-07-26T08:45:14Z</time>
      </trkpt>
      <trkpt lat="45.676478175446391" lon="6.96909592486918">
        <ele>2102.8499999999999</ele>
        <time>2020-07-26T08:45:25Z</time>
      </trkpt>
      <trkpt lat="45.676483204588294" lon="6.969181587919593">
        <ele>2104.75</ele>
        <time>2020-07-26T08:45:36Z</time>
      </trkpt>
      <trkpt lat="45.67648689262569" lon="6.969190305098891">
        <ele>2104.8099999999999</ele>
        <time>2020-07-26T08:45:37Z</time>
      </trkpt>
      <trkpt lat="45.676517821848392" lon="6.969275381416082">
        <ele>2106.6799999999998</ele>
        <time>2020-07-26T08:45:48Z</time>
      </trkpt>
      <trkpt lat="45.676568364724517" lon="6.969292480498552">
        <ele>2109.52</ele>
        <time>2020-07-26T08:46:02Z</time>
      </trkpt>
      <trkpt lat="45.67660516127944" lon="6.969402870163322">
        <ele>2112.2399999999998</ele>
        <time>2020-07-26T08:46:18Z</time>
      </trkpt>
      <trkpt lat="45.676631312817335" lon="6.969481073319912">
        <ele>2114.3800000000001</ele>
        <time>2020-07-26T08:46:31Z</time>
      </trkpt>
      <trkpt lat="45.676652267575264" lon="6.96955868974328">
        <ele>2116.23</ele>
        <time>2020-07-26T08:46:46Z</time>
      </trkpt>
      <trkpt lat="45.676713120192289" lon="6.969611663371325">
        <ele>2119.2399999999998</ele>
        <time>2020-07-26T08:47:01Z</time>
      </trkpt>
      <trkpt lat="45.676761064678431" lon="6.969710066914558">
        <ele>2120.9400000000001</ele>
        <time>2020-07-26T08:47:15Z</time>
      </trkpt>
      <trkpt lat="45.676771709695458" lon="6.969795981422067">
        <ele>2122.96</ele>
        <time>2020-07-26T08:47:27Z</time>
      </trkpt>
      <trkpt lat="45.676791490986943" lon="6.969877704977989">
        <ele>2123.9099999999999</ele>
        <time>2020-07-26T08:47:41Z</time>
      </trkpt>
      <trkpt lat="45.676799369975924" lon="6.969865802675486">
        <ele>2124.2600000000002</ele>
        <time>2020-07-26T08:47:56Z</time>
      </trkpt>
      <trkpt lat="45.676809260621667" lon="6.969867311418057">
        <ele>2124.2399999999998</ele>
        <time>2020-07-26T08:48:04Z</time>
      </trkpt>
      <trkpt lat="45.676826694980264" lon="6.96987577714026">
        <ele>2124.48</ele>
        <time>2020-07-26T08:48:06Z</time>
      </trkpt>
      <trkpt lat="45.676875226199627" lon="6.970001170411706">
        <ele>2126.21</ele>
        <time>2020-07-26T08:48:18Z</time>
      </trkpt>
      <trkpt lat="45.676886457949877" lon="6.970028495416045">
        <ele>2126.5</ele>
        <time>2020-07-26T08:48:20Z</time>
      </trkpt>
      <trkpt lat="45.67693448625505" lon="6.970162270590663">
        <ele>2129.6999999999998</ele>
        <time>2020-07-26T08:48:33Z</time>
      </trkpt>
      <trkpt lat="45.676985280588269" lon="6.970243072137237">
        <ele>2131.8899999999999</ele>
        <time>2020-07-26T08:48:43Z</time>
      </trkpt>
      <trkpt lat="45.677044540643692" lon="6.970368130132556">
        <ele>2133.4899999999998</ele>
        <time>2020-07-26T08:48:54Z</time>
      </trkpt>
      <trkpt lat="45.677125761285424" lon="6.970475586131215">
        <ele>2135.3099999999999</ele>
        <time>2020-07-26T08:49:06Z</time>
      </trkpt>
      <trkpt lat="45.67718368023634" lon="6.970497714355588">
        <ele>2138.4299999999998</ele>
        <time>2020-07-26T08:49:17Z</time>
      </trkpt>
      <trkpt lat="45.677231876179576" lon="6.970497127622366">
        <ele>2139.4499999999998</ele>
        <time>2020-07-26T08:49:28Z</time>
      </trkpt>
      <trkpt lat="45.677232295274734" lon="6.970591172575951">
        <ele>2141.1500000000001</ele>
        <time>2020-07-26T08:49:37Z</time>
      </trkpt>
      <trkpt lat="45.67724771797657" lon="6.970673566684127">
        <ele>2142.3200000000002</ele>
        <time>2020-07-26T08:49:46Z</time>
      </trkpt>
      <trkpt lat="45.677282921969891" lon="6.970743639394641">
        <ele>2143.8699999999999</ele>
        <time>2020-07-26T08:49:58Z</time>
      </trkpt>
      <trkpt lat="45.677299853414297" lon="6.970807844772935">
        <ele>2146.0999999999999</ele>
        <time>2020-07-26T08:50:08Z</time>
      </trkpt>
      <trkpt lat="45.677311420440674" lon="6.970841959118843">
        <ele>2146.7199999999998</ele>
        <time>2020-07-26T08:50:19Z</time>
      </trkpt>
      <trkpt lat="45.677330447360873" lon="6.970917731523514">
        <ele>2148.0500000000002</ele>
        <time>2020-07-26T08:50:31Z</time>
      </trkpt>
      <trkpt lat="45.67736841738224" lon="6.970947319641709">
        <ele>2147.04</ele>
        <time>2020-07-26T08:50:41Z</time>
      </trkpt>
      <trkpt lat="45.677369758486748" lon="6.971046812832356">
        <ele>2144.9899999999998</ele>
        <time>2020-07-26T08:50:52Z</time>
      </trkpt>
      <trkpt lat="45.677400017157197" lon="6.971120238304138">
        <ele>2142.27</ele>
        <time>2020-07-26T08:51:03Z</time>
      </trkpt>
      <trkpt lat="45.677461121231318" lon="6.971189305186272">
        <ele>2141.04</ele>
        <time>2020-07-26T08:51:16Z</time>
      </trkpt>
      <trkpt lat="45.677446285262704" lon="6.971233310177922">
        <ele>2140.5300000000002</ele>
        <time>2020-07-26T09:03:03Z</time>
      </trkpt>
      <trkpt lat="45.677427006885409" lon="6.971251331269741">
        <ele>2139.8699999999999</ele>
        <time>2020-07-26T09:04:05Z</time>
      </trkpt>
      <trkpt lat="45.677441423758864" lon="6.971392398700118">
        <ele>2138.3600000000001</ele>
        <time>2020-07-26T09:04:19Z</time>
      </trkpt>
      <trkpt lat="45.677454164251685" lon="6.971429530531168">
        <ele>2138.0100000000002</ele>
        <time>2020-07-26T09:04:22Z</time>
      </trkpt>
      <trkpt lat="45.677463971078396" lon="6.971485689282417">
        <ele>2137.5799999999999</ele>
        <time>2020-07-26T09:04:26Z</time>
      </trkpt>
      <trkpt lat="45.677498085424304" lon="6.971548553556204">
        <ele>2137.3200000000002</ele>
        <time>2020-07-26T09:04:31Z</time>
      </trkpt>
      <trkpt lat="45.67752331495285" lon="6.97174234315753">
        <ele>2136.25</ele>
        <time>2020-07-26T09:04:46Z</time>
      </trkpt>
      <trkpt lat="45.677523231133819" lon="6.971752736717463">
        <ele>2136.0500000000002</ele>
        <time>2020-07-26T09:04:47Z</time>
      </trkpt>
      <trkpt lat="45.677515435963869" lon="6.971802273765206">
        <ele>2135.6100000000001</ele>
        <time>2020-07-26T09:04:51Z</time>
      </trkpt>
      <trkpt lat="45.677519459277391" lon="6.971833622083068">
        <ele>2135.27</ele>
        <time>2020-07-26T09:04:53Z</time>
      </trkpt>
      <trkpt lat="45.677559189498425" lon="6.971916435286403">
        <ele>2135.4499999999998</ele>
        <time>2020-07-26T09:05:00Z</time>
      </trkpt>
      <trkpt lat="45.677622556686401" lon="6.971953986212611">
        <ele>2134.6199999999999</ele>
        <time>2020-07-26T09:05:06Z</time>
      </trkpt>
      <trkpt lat="45.677647367119789" lon="6.972139142453671">
        <ele>2134.4200000000001</ele>
        <time>2020-07-26T09:05:20Z</time>
      </trkpt>
      <trkpt lat="45.677647702395916" lon="6.972148362547159">
        <ele>2134.3299999999999</ele>
        <time>2020-07-26T09:05:21Z</time>
      </trkpt>
      <trkpt lat="45.677649965509772" lon="6.972361514344811">
        <ele>2132.7199999999998</ele>
        <time>2020-07-26T09:05:35Z</time>
      </trkpt>
      <trkpt lat="45.67764351144433" lon="6.972495876252651">
        <ele>2132.29</ele>
        <time>2020-07-26T09:05:49Z</time>
      </trkpt>
      <trkpt lat="45.677674440667033" lon="6.972577683627605">
        <ele>2131.2800000000002</ele>
        <time>2020-07-26T09:05:58Z</time>
      </trkpt>
      <trkpt lat="45.677685337141156" lon="6.972606936469674">
        <ele>2130.8499999999999</ele>
        <time>2020-07-26T09:06:00Z</time>
      </trkpt>
      <trkpt lat="45.677732275798917" lon="6.972789913415909">
        <ele>2130.1199999999999</ele>
        <time>2020-07-26T09:06:13Z</time>
      </trkpt>
      <trkpt lat="45.677820118144155" lon="6.972889825701714">
        <ele>2129.5300000000002</ele>
        <time>2020-07-26T09:06:25Z</time>
      </trkpt>
      <trkpt lat="45.677863033488393" lon="6.973075652495027">
        <ele>2130.0300000000002</ele>
        <time>2020-07-26T09:06:38Z</time>
      </trkpt>
      <trkpt lat="45.677871331572533" lon="6.973100798204541">
        <ele>2130.2600000000002</ele>
        <time>2020-07-26T09:06:40Z</time>
      </trkpt>
      <trkpt lat="45.677956156432629" lon="6.973245134577155">
        <ele>2130.9000000000001</ele>
        <time>2020-07-26T09:06:53Z</time>
      </trkpt>
      <trkpt lat="45.678037293255329" lon="6.973358541727066">
        <ele>2132.4400000000001</ele>
        <time>2020-07-26T09:07:06Z</time>
      </trkpt>
      <trkpt lat="45.678057242184877" lon="6.973402546718717">
        <ele>2133.0900000000001</ele>
        <time>2020-07-26T09:07:10Z</time>
      </trkpt>
      <trkpt lat="45.678065540269017" lon="6.973447306081653">
        <ele>2133.0999999999999</ele>
        <time>2020-07-26T09:07:13Z</time>
      </trkpt>
      <trkpt lat="45.678123375400901" lon="6.973647633567452">
        <ele>2133.9699999999998</ele>
        <time>2020-07-26T09:07:28Z</time>
      </trkpt>
      <trkpt lat="45.67808817140758" lon="6.973760789260268">
        <ele>2136.0799999999999</ele>
        <time>2020-07-26T09:07:42Z</time>
      </trkpt>
      <trkpt lat="45.678083393722773" lon="6.973827090114355">
        <ele>2138.1799999999998</ele>
        <time>2020-07-26T09:07:54Z</time>
      </trkpt>
      <trkpt lat="45.678040981292725" lon="6.973898420110345">
        <ele>2139.7600000000002</ele>
        <time>2020-07-26T09:08:05Z</time>
      </trkpt>
      <trkpt lat="45.67797627300024" lon="6.973934210836887">
        <ele>2141.29</ele>
        <time>2020-07-26T09:08:19Z</time>
      </trkpt>
      <trkpt lat="45.677966298535466" lon="6.974023561924696">
        <ele>2143.3400000000001</ele>
        <time>2020-07-26T09:08:32Z</time>
      </trkpt>
      <trkpt lat="45.677864290773869" lon="6.974082738161087">
        <ele>2144.9299999999998</ele>
        <time>2020-07-26T09:08:47Z</time>
      </trkpt>
      <trkpt lat="45.677898740395904" lon="6.974212909117341">
        <ele>2146.1100000000001</ele>
        <time>2020-07-26T09:09:00Z</time>
      </trkpt>
      <trkpt lat="45.677909888327122" lon="6.974230343475938">
        <ele>2146.4000000000001</ele>
        <time>2020-07-26T09:09:02Z</time>
      </trkpt>
      <trkpt lat="45.678009632974863" lon="6.974338386207819">
        <ele>2148.2600000000002</ele>
        <time>2020-07-26T09:09:19Z</time>
      </trkpt>
      <trkpt lat="45.678021116182208" lon="6.974349953234196">
        <ele>2148.3899999999999</ele>
        <time>2020-07-26T09:09:28Z</time>
      </trkpt>
      <trkpt lat="45.678065791726112" lon="6.974492948502302">
        <ele>2149.4099999999999</ele>
        <time>2020-07-26T09:09:41Z</time>
      </trkpt>
      <trkpt lat="45.678104935213923" lon="6.97460669092834">
        <ele>2148.8499999999999</ele>
        <time>2020-07-26T09:09:57Z</time>
      </trkpt>
      <trkpt lat="45.678095882758498" lon="6.974613228812814">
        <ele>2149.1799999999998</ele>
        <time>2020-07-26T09:10:14Z</time>
      </trkpt>
      <trkpt lat="45.678102839738131" lon="6.97469805367291">
        <ele>2148.5100000000002</ele>
        <time>2020-07-26T09:10:28Z</time>
      </trkpt>
      <trkpt lat="45.678096301853657" lon="6.974755972623825">
        <ele>2147.8299999999999</ele>
        <time>2020-07-26T09:10:32Z</time>
      </trkpt>
      <trkpt lat="45.678088674321771" lon="6.974937943741679">
        <ele>2146.0300000000002</ele>
        <time>2020-07-26T09:10:44Z</time>
      </trkpt>
      <trkpt lat="45.678070401772857" lon="6.975051015615463">
        <ele>2144.3699999999999</ele>
        <time>2020-07-26T09:10:54Z</time>
      </trkpt>
      <trkpt lat="45.678064785897732" lon="6.97509334422648">
        <ele>2144.0500000000002</ele>
        <time>2020-07-26T09:10:57Z</time>
      </trkpt>
      <trkpt lat="45.678043244406581" lon="6.975223766639829">
        <ele>2144.6300000000001</ele>
        <time>2020-07-26T09:11:09Z</time>
      </trkpt>
      <trkpt lat="45.678038550540805" lon="6.975305322557688">
        <ele>2144.4699999999998</ele>
        <time>2020-07-26T09:11:16Z</time>
      </trkpt>
      <trkpt lat="45.678030671551824" lon="6.975325103849173">
        <ele>2143.46</ele>
        <time>2020-07-26T09:11:50Z</time>
      </trkpt>
      <trkpt lat="45.678031090646982" lon="6.975323595106602">
        <ele>2144.27</ele>
        <time>2020-07-26T09:12:08Z</time>
      </trkpt>
      <trkpt lat="45.678034191951156" lon="6.975329127162695">
        <ele>2144.2199999999998</ele>
        <time>2020-07-26T09:12:58Z</time>
      </trkpt>
      <trkpt lat="45.678036287426949" lon="6.975323176011443">
        <ele>2144.1199999999999</ele>
        <time>2020-07-26T09:13:20Z</time>
      </trkpt>
      <trkpt lat="45.678018182516098" lon="6.975352596491575">
        <ele>2143.5999999999999</ele>
        <time>2020-07-26T09:14:30Z</time>
      </trkpt>
      <trkpt lat="45.678020613268018" lon="6.975358463823795">
        <ele>2142.4499999999998</ele>
        <time>2020-07-26T09:14:45Z</time>
      </trkpt>
      <trkpt lat="45.678054224699736" lon="6.975371288135648">
        <ele>2143.9299999999998</ele>
        <time>2020-07-26T09:15:09Z</time>
      </trkpt>
      <trkpt lat="45.678067887201905" lon="6.975407917052507">
        <ele>2143.7399999999998</ele>
        <time>2020-07-26T09:15:12Z</time>
      </trkpt>
      <trkpt lat="45.678145838901401" lon="6.975504895672202">
        <ele>2141.8699999999999</ele>
        <time>2020-07-26T09:15:26Z</time>
      </trkpt>
      <trkpt lat="45.678155058994889" lon="6.975509840995073">
        <ele>2142.54</ele>
        <time>2020-07-26T09:15:31Z</time>
      </trkpt>
      <trkpt lat="45.678198896348476" lon="6.975540099665523">
        <ele>2141.8699999999999</ele>
        <time>2020-07-26T09:15:36Z</time>
      </trkpt>
      <trkpt lat="45.678223371505737" lon="6.975610759109259">
        <ele>2140.96</ele>
        <time>2020-07-26T09:15:41Z</time>
      </trkpt>
      <trkpt lat="45.678212558850646" lon="6.975751742720604">
        <ele>2143.6700000000001</ele>
        <time>2020-07-26T09:15:51Z</time>
      </trkpt>
      <trkpt lat="45.678186826407909" lon="6.975917285308242">
        <ele>2144.0799999999999</ele>
        <time>2020-07-26T09:16:05Z</time>
      </trkpt>
      <trkpt lat="45.67819906398654" lon="6.976016527041793">
        <ele>2144.1399999999999</ele>
        <time>2020-07-26T09:16:16Z</time>
      </trkpt>
      <trkpt lat="45.678249103948474" lon="6.976044857874513">
        <ele>2146.73</ele>
        <time>2020-07-26T09:16:28Z</time>
      </trkpt>
      <trkpt lat="45.678261676803231" lon="6.976020634174347">
        <ele>2147.8299999999999</ele>
        <time>2020-07-26T09:16:40Z</time>
      </trkpt>
      <trkpt lat="45.678286487236619" lon="6.976054413244128">
        <ele>2147.3800000000001</ele>
        <time>2020-07-26T09:17:00Z</time>
      </trkpt>
      <trkpt lat="45.678291600197554" lon="6.97606815956533">
        <ele>2147.4499999999998</ele>
        <time>2020-07-26T09:17:16Z</time>
      </trkpt>
      <trkpt lat="45.678298305720091" lon="6.976063381880522">
        <ele>2147.9099999999999</ele>
        <time>2020-07-26T09:17:30Z</time>
      </trkpt>
      <trkpt lat="45.678315991535783" lon="6.976062627509236">
        <ele>2148.0999999999999</ele>
        <time>2020-07-26T09:17:43Z</time>
      </trkpt>
      <trkpt lat="45.678354548290372" lon="6.976015521213412">
        <ele>2149.4400000000001</ele>
        <time>2020-07-26T09:17:52Z</time>
      </trkpt>
      <trkpt lat="45.678418921306729" lon="6.97597729973495">
        <ele>2150.6199999999999</ele>
        <time>2020-07-26T09:18:03Z</time>
      </trkpt>
      <trkpt lat="45.67852109670639" lon="6.975908987224102">
        <ele>2151.6399999999999</ele>
        <time>2020-07-26T09:18:17Z</time>
      </trkpt>
      <trkpt lat="45.678582033142447" lon="6.975828940048814">
        <ele>2152.6300000000001</ele>
        <time>2020-07-26T09:18:29Z</time>
      </trkpt>
      <trkpt lat="45.678656212985516" lon="6.975822485983372">
        <ele>2154.7199999999998</ele>
        <time>2020-07-26T09:18:41Z</time>
      </trkpt>
      <trkpt lat="45.678730560466647" lon="6.975777056068182">
        <ele>2156.6100000000001</ele>
        <time>2020-07-26T09:18:53Z</time>
      </trkpt>
      <trkpt lat="45.678807003423572" lon="6.975747803226113">
        <ele>2158.5100000000002</ele>
        <time>2020-07-26T09:19:06Z</time>
      </trkpt>
      <trkpt lat="45.678873471915722" lon="6.975772529840469">
        <ele>2160.5100000000002</ele>
        <time>2020-07-26T09:19:19Z</time>
      </trkpt>
      <trkpt lat="45.678902389481664" lon="6.975817456841469">
        <ele>2161.98</ele>
        <time>2020-07-26T09:19:29Z</time>
      </trkpt>
      <trkpt lat="45.67896525375545" lon="6.975886356085539">
        <ele>2163.9499999999998</ele>
        <time>2020-07-26T09:19:42Z</time>
      </trkpt>
      <trkpt lat="45.679025687277317" lon="6.975938072428107">
        <ele>2166.0599999999999</ele>
        <time>2020-07-26T09:19:55Z</time>
      </trkpt>
      <trkpt lat="45.679100621491671" lon="6.975935641676188">
        <ele>2167.9099999999999</ele>
        <time>2020-07-26T09:20:10Z</time>
      </trkpt>
      <trkpt lat="45.679157366976142" lon="6.975924158468843">
        <ele>2169.8400000000001</ele>
        <time>2020-07-26T09:20:23Z</time>
      </trkpt>
      <trkpt lat="45.679183686152101" lon="6.975992135703564">
        <ele>2171.3200000000002</ele>
        <time>2020-07-26T09:20:35Z</time>
      </trkpt>
      <trkpt lat="45.679201623424888" lon="6.976073943078518">
        <ele>2173.1100000000001</ele>
        <time>2020-07-26T09:20:46Z</time>
      </trkpt>
      <trkpt lat="45.679196175187826" lon="6.976153654977679">
        <ele>2174.1700000000001</ele>
        <time>2020-07-26T09:20:59Z</time>
      </trkpt>
      <trkpt lat="45.679220231249928" lon="6.976250885054469">
        <ele>2176.3899999999999</ele>
        <time>2020-07-26T09:21:12Z</time>
      </trkpt>
      <trkpt lat="45.679245376959443" lon="6.976337470114231">
        <ele>2178.6799999999998</ele>
        <time>2020-07-26T09:21:24Z</time>
      </trkpt>
      <trkpt lat="45.679272199049592" lon="6.976481471210718">
        <ele>2180.8099999999999</ele>
        <time>2020-07-26T09:21:40Z</time>
      </trkpt>
      <trkpt lat="45.679314946755767" lon="6.976570822298527">
        <ele>2183.3499999999999</ele>
        <time>2020-07-26T09:21:53Z</time>
      </trkpt>
      <trkpt lat="45.679338416084647" lon="6.976683810353279">
        <ele>2185.5599999999999</ele>
        <time>2020-07-26T09:22:07Z</time>
      </trkpt>
      <trkpt lat="45.679384348914027" lon="6.976775676012039">
        <ele>2187.1700000000001</ele>
        <time>2020-07-26T09:22:20Z</time>
      </trkpt>
      <trkpt lat="45.679427515715361" lon="6.976837953552604">
        <ele>2188.8200000000002</ele>
        <time>2020-07-26T09:22:31Z</time>
      </trkpt>
      <trkpt lat="45.679489625617862" lon="6.976898722350597">
        <ele>2189.4899999999998</ele>
        <time>2020-07-26T09:22:43Z</time>
      </trkpt>
      <trkpt lat="45.679534217342734" lon="6.976932752877474">
        <ele>2191.0500000000002</ele>
        <time>2020-07-26T09:22:49Z</time>
      </trkpt>
      <trkpt lat="45.679544946178794" lon="6.976943146437407">
        <ele>2189.8699999999999</ele>
        <time>2020-07-26T09:22:54Z</time>
      </trkpt>
      <trkpt lat="45.679580066353083" lon="6.976980362087488">
        <ele>2191.9400000000001</ele>
        <time>2020-07-26T09:22:59Z</time>
      </trkpt>
      <trkpt lat="45.679689282551408" lon="6.977058397606015">
        <ele>2192.9000000000001</ele>
        <time>2020-07-26T09:23:14Z</time>
      </trkpt>
      <trkpt lat="45.679784081876278" lon="6.97706158272922">
        <ele>2195.1999999999998</ele>
        <time>2020-07-26T09:23:27Z</time>
      </trkpt>
      <trkpt lat="45.679864967241883" lon="6.977028977125883">
        <ele>2198.23</ele>
        <time>2020-07-26T09:23:39Z</time>
      </trkpt>
      <trkpt lat="45.679872678592801" lon="6.977029647678137">
        <ele>2198.4000000000001</ele>
        <time>2020-07-26T09:23:40Z</time>
      </trkpt>
      <trkpt lat="45.679888604208827" lon="6.977109527215362">
        <ele>2199.9299999999998</ele>
        <time>2020-07-26T09:23:50Z</time>
      </trkpt>
      <trkpt lat="45.679884916171432" lon="6.977252187207341">
        <ele>2202.23</ele>
        <time>2020-07-26T09:24:06Z</time>
      </trkpt>
      <trkpt lat="45.679885419085622" lon="6.977328294888139">
        <ele>2203.4200000000001</ele>
        <time>2020-07-26T09:24:16Z</time>
      </trkpt>
      <trkpt lat="45.679871505126357" lon="6.977436169981957">
        <ele>2205.5900000000001</ele>
        <time>2020-07-26T09:24:29Z</time>
      </trkpt>
      <trkpt lat="45.679878378286958" lon="6.977530131116509">
        <ele>2207.1900000000001</ele>
        <time>2020-07-26T09:24:41Z</time>
      </trkpt>
      <trkpt lat="45.679883994162083" lon="6.977623924612999">
        <ele>2208.75</ele>
        <time>2020-07-26T09:24:54Z</time>
      </trkpt>
      <trkpt lat="45.679879048839211" lon="6.977746970951557">
        <ele>2210.73</ele>
        <time>2020-07-26T09:25:08Z</time>
      </trkpt>
      <trkpt lat="45.679888939484954" lon="6.977843781933188">
        <ele>2211.9099999999999</ele>
        <time>2020-07-26T09:25:19Z</time>
      </trkpt>
      <trkpt lat="45.679895058274269" lon="6.977870687842369">
        <ele>2212.5799999999999</ele>
        <time>2020-07-26T09:25:23Z</time>
      </trkpt>
      <trkpt lat="45.679885502904654" lon="6.978025836870074">
        <ele>2212.5999999999999</ele>
        <time>2020-07-26T09:25:36Z</time>
      </trkpt>
      <trkpt lat="45.679874019697309" lon="6.978144692257047">
        <ele>2215.1700000000001</ele>
        <time>2020-07-26T09:25:50Z</time>
      </trkpt>
      <trkpt lat="45.679911570623517" lon="6.978140333667398">
        <ele>2216.9000000000001</ele>
        <time>2020-07-26T09:26:02Z</time>
      </trkpt>
      <trkpt lat="45.679910564795136" lon="6.97814242914319">
        <ele>2217.4099999999999</ele>
        <time>2020-07-26T09:26:13Z</time>
      </trkpt>
      <trkpt lat="45.679991785436869" lon="6.978002032265067">
        <ele>2219.0999999999999</ele>
        <time>2020-07-26T09:26:28Z</time>
      </trkpt>
      <trkpt lat="45.680042495951056" lon="6.977859539911151">
        <ele>2221.9099999999999</ele>
        <time>2020-07-26T09:26:44Z</time>
      </trkpt>
      <trkpt lat="45.680090608075261" lon="6.977741019800305">
        <ele>2223.8499999999999</ele>
        <time>2020-07-26T09:26:57Z</time>
      </trkpt>
      <trkpt lat="45.680136289447546" lon="6.977631133049727">
        <ele>2224.8200000000002</ele>
        <time>2020-07-26T09:27:10Z</time>
      </trkpt>
      <trkpt lat="45.680189682170749" lon="6.97758344002068">
        <ele>2227.8499999999999</ele>
        <time>2020-07-26T09:27:22Z</time>
      </trkpt>
      <trkpt lat="45.680191610008478" lon="6.977669857442379">
        <ele>2229.71</ele>
        <time>2020-07-26T09:27:34Z</time>
      </trkpt>
      <trkpt lat="45.680199908092618" lon="6.977761304005981">
        <ele>2231.3000000000002</ele>
        <time>2020-07-26T09:27:46Z</time>
      </trkpt>
      <trkpt lat="45.680201668292284" lon="6.977856270968914">
        <ele>2233.3800000000001</ele>
        <time>2020-07-26T09:27:58Z</time>
      </trkpt>
      <trkpt lat="45.680219102650881" lon="6.977949729189277">
        <ele>2235.3499999999999</ele>
        <time>2020-07-26T09:28:11Z</time>
      </trkpt>
      <trkpt lat="45.680227568373084" lon="6.978007648140192">
        <ele>2236.5900000000001</ele>
        <time>2020-07-26T09:28:18Z</time>
      </trkpt>
      <trkpt lat="45.680241147056222" lon="6.978181404992938">
        <ele>2238.8800000000001</ele>
        <time>2020-07-26T09:28:34Z</time>
      </trkpt>
      <trkpt lat="45.680219270288944" lon="6.97834862396121">
        <ele>2242.0700000000002</ele>
        <time>2020-07-26T09:28:51Z</time>
      </trkpt>
      <trkpt lat="45.680217761546373" lon="6.978486841544509">
        <ele>2245.1500000000001</ele>
        <time>2020-07-26T09:29:05Z</time>
      </trkpt>
      <trkpt lat="45.680204434320331" lon="6.978633776307106">
        <ele>2248.0900000000001</ele>
        <time>2020-07-26T09:29:20Z</time>
      </trkpt>
      <trkpt lat="45.68015699274838" lon="6.978786159306765">
        <ele>2250.6599999999999</ele>
        <time>2020-07-26T09:29:37Z</time>
      </trkpt>
      <trkpt lat="45.680092200636864" lon="6.978913983330131">
        <ele>2253.3000000000002</ele>
        <time>2020-07-26T09:29:54Z</time>
      </trkpt>
      <trkpt lat="45.680034533143044" lon="6.979027390480042">
        <ele>2254.6700000000001</ele>
        <time>2020-07-26T09:30:06Z</time>
      </trkpt>
      <trkpt lat="45.679936716333032" lon="6.979190083220601">
        <ele>2254.8699999999999</ele>
        <time>2020-07-26T09:30:22Z</time>
      </trkpt>
      <trkpt lat="45.679930178448558" lon="6.97919980622828">
        <ele>2254.5300000000002</ele>
        <time>2020-07-26T09:30:38Z</time>
      </trkpt>
      <trkpt lat="45.679822387173772" lon="6.979316817596555">
        <ele>2255.6500000000001</ele>
        <time>2020-07-26T09:30:52Z</time>
      </trkpt>
      <trkpt lat="45.67971333861351" lon="6.97939669713378">
        <ele>2257.5999999999999</ele>
        <time>2020-07-26T09:31:06Z</time>
      </trkpt>
      <trkpt lat="45.679653575643897" lon="6.97947246953845">
        <ele>2260.0100000000002</ele>
        <time>2020-07-26T09:31:18Z</time>
      </trkpt>
      <trkpt lat="45.679594902321696" lon="6.979541536420584">
        <ele>2262.4499999999998</ele>
        <time>2020-07-26T09:31:30Z</time>
      </trkpt>
      <trkpt lat="45.679517956450582" lon="6.97964102961123">
        <ele>2264.71</ele>
        <time>2020-07-26T09:31:44Z</time>
      </trkpt>
      <trkpt lat="45.67947487346828" lon="6.979729123413563">
        <ele>2267.29</ele>
        <time>2020-07-26T09:31:59Z</time>
      </trkpt>
      <trkpt lat="45.679461797699332" lon="6.979793161153793">
        <ele>2268.5999999999999</ele>
        <time>2020-07-26T09:32:10Z</time>
      </trkpt>
      <trkpt lat="45.679417625069618" lon="6.979843033477664">
        <ele>2269.77</ele>
        <time>2020-07-26T09:32:21Z</time>
      </trkpt>
      <trkpt lat="45.679351575672626" lon="6.979920817539096">
        <ele>2271.4699999999998</ele>
        <time>2020-07-26T09:32:35Z</time>
      </trkpt>
      <trkpt lat="45.679300278425217" lon="6.980024334043264">
        <ele>2273.02</ele>
        <time>2020-07-26T09:32:49Z</time>
      </trkpt>
      <trkpt lat="45.679247891530395" lon="6.980074541643262">
        <ele>2275.6100000000001</ele>
        <time>2020-07-26T09:33:01Z</time>
      </trkpt>
      <trkpt lat="45.67917488515377" lon="6.980109997093678">
        <ele>2278.27</ele>
        <time>2020-07-26T09:33:16Z</time>
      </trkpt>
      <trkpt lat="45.679114954546094" lon="6.980138747021556">
        <ele>2280.23</ele>
        <time>2020-07-26T09:33:28Z</time>
      </trkpt>
      <trkpt lat="45.679142028093338" lon="6.980176214128733">
        <ele>2282.77</ele>
        <time>2020-07-26T09:33:41Z</time>
      </trkpt>
      <trkpt lat="45.679213693365455" lon="6.980225499719381">
        <ele>2285.54</ele>
        <time>2020-07-26T09:33:55Z</time>
      </trkpt>
      <trkpt lat="45.679310839623213" lon="6.980231031775475">
        <ele>2288.0100000000002</ele>
        <time>2020-07-26T09:34:10Z</time>
      </trkpt>
      <trkpt lat="45.679351994767785" lon="6.980227679014206">
        <ele>2289.6100000000001</ele>
        <time>2020-07-26T09:34:22Z</time>
      </trkpt>
      <trkpt lat="45.679317796602845" lon="6.98030068539083">
        <ele>2290.6900000000001</ele>
        <time>2020-07-26T09:34:35Z</time>
      </trkpt>
      <trkpt lat="45.679265158250928" lon="6.980403615161777">
        <ele>2293.5900000000001</ele>
        <time>2020-07-26T09:34:50Z</time>
      </trkpt>
      <trkpt lat="45.679191648960114" lon="6.980429515242577">
        <ele>2295.5799999999999</ele>
        <time>2020-07-26T09:35:03Z</time>
      </trkpt>
      <trkpt lat="45.679105063900352" lon="6.98039741255343">
        <ele>2297.6599999999999</ele>
        <time>2020-07-26T09:35:15Z</time>
      </trkpt>
      <trkpt lat="45.679063154384494" lon="6.980395233258605">
        <ele>2299.4000000000001</ele>
        <time>2020-07-26T09:35:25Z</time>
      </trkpt>
      <trkpt lat="45.679095173254609" lon="6.980493050068617">
        <ele>2301.4899999999998</ele>
        <time>2020-07-26T09:35:40Z</time>
      </trkpt>
      <trkpt lat="45.67914211191237" lon="6.98058407753706">
        <ele>2303.7800000000002</ele>
        <time>2020-07-26T09:35:54Z</time>
      </trkpt>
      <trkpt lat="45.679172035306692" lon="6.980627160519362">
        <ele>2305.8600000000001</ele>
        <time>2020-07-26T09:36:04Z</time>
      </trkpt>
      <trkpt lat="45.679246634244919" lon="6.980701675638557">
        <ele>2308.3400000000001</ele>
        <time>2020-07-26T09:36:18Z</time>
      </trkpt>
      <trkpt lat="45.679286867380142" lon="6.980704441666603">
        <ele>2309.1900000000001</ele>
        <time>2020-07-26T09:36:29Z</time>
      </trkpt>
      <trkpt lat="45.679376553744078" lon="6.980686085298657">
        <ele>2310.9299999999998</ele>
        <time>2020-07-26T09:36:42Z</time>
      </trkpt>
      <trkpt lat="45.679425587877631" lon="6.980650126934052">
        <ele>2311.98</ele>
        <time>2020-07-26T09:36:52Z</time>
      </trkpt>
      <trkpt lat="45.679498761892319" lon="6.980583993718028">
        <ele>2314.0599999999999</ele>
        <time>2020-07-26T09:37:06Z</time>
      </trkpt>
      <trkpt lat="45.679556764662266" lon="6.980512328445911">
        <ele>2317.02</ele>
        <time>2020-07-26T09:37:19Z</time>
      </trkpt>
      <trkpt lat="45.679566990584135" lon="6.980575527995825">
        <ele>2318.9200000000001</ele>
        <time>2020-07-26T09:37:30Z</time>
      </trkpt>
      <trkpt lat="45.679548047482967" lon="6.980698574334383">
        <ele>2320.4699999999998</ele>
        <time>2020-07-26T09:37:43Z</time>
      </trkpt>
      <trkpt lat="45.679516280069947" lon="6.980804856866598">
        <ele>2322.6999999999998</ele>
        <time>2020-07-26T09:37:57Z</time>
      </trkpt>
      <trkpt lat="45.679495660588145" lon="6.980939051136375">
        <ele>2325.5300000000002</ele>
        <time>2020-07-26T09:38:14Z</time>
      </trkpt>
      <trkpt lat="45.679478393867612" lon="6.981026474386454">
        <ele>2327.7800000000002</ele>
        <time>2020-07-26T09:38:27Z</time>
      </trkpt>
      <trkpt lat="45.679453667253256" lon="6.981110125780106">
        <ele>2329.9200000000001</ele>
        <time>2020-07-26T09:38:41Z</time>
      </trkpt>
      <trkpt lat="45.679421229287982" lon="6.981214145198464">
        <ele>2332.5100000000002</ele>
        <time>2020-07-26T09:38:56Z</time>
      </trkpt>
      <trkpt lat="45.679381331428885" lon="6.981289079412818">
        <ele>2334.8499999999999</ele>
        <time>2020-07-26T09:39:10Z</time>
      </trkpt>
      <trkpt lat="45.679360209032893" lon="6.981358649209142">
        <ele>2336.6999999999998</ele>
        <time>2020-07-26T09:39:21Z</time>
      </trkpt>
      <trkpt lat="45.679317628964782" lon="6.981391506269574">
        <ele>2337.54</ele>
        <time>2020-07-26T09:39:34Z</time>
      </trkpt>
      <trkpt lat="45.679231630638242" lon="6.98137566447258">
        <ele>2340.3699999999999</ele>
        <time>2020-07-26T09:39:47Z</time>
      </trkpt>
      <trkpt lat="45.679167760536075" lon="6.981340544298291">
        <ele>2341.79</ele>
        <time>2020-07-26T09:39:58Z</time>
      </trkpt>
      <trkpt lat="45.679072374477983" lon="6.981276590377092">
        <ele>2343.9699999999998</ele>
        <time>2020-07-26T09:40:13Z</time>
      </trkpt>
      <trkpt lat="45.679007498547435" lon="6.981195788830519">
        <ele>2344.9299999999998</ele>
        <time>2020-07-26T09:40:25Z</time>
      </trkpt>
      <trkpt lat="45.678992578759789" lon="6.98117290623486">
        <ele>2345.0500000000002</ele>
        <time>2020-07-26T09:40:41Z</time>
      </trkpt>
      <trkpt lat="45.678900294005871" lon="6.981084980070591">
        <ele>2346.8000000000002</ele>
        <time>2020-07-26T09:40:56Z</time>
      </trkpt>
      <trkpt lat="45.678897611796856" lon="6.98107467032969">
        <ele>2347.1500000000001</ele>
        <time>2020-07-26T09:41:07Z</time>
      </trkpt>
      <trkpt lat="45.678897863253951" lon="6.981087997555733">
        <ele>2346.77</ele>
        <time>2020-07-26T09:41:26Z</time>
      </trkpt>
      <trkpt lat="45.67889828234911" lon="6.981078526005149">
        <ele>2348.75</ele>
        <time>2020-07-26T09:41:39Z</time>
      </trkpt>
      <trkpt lat="45.678899371996522" lon="6.981068383902311">
        <ele>2349.2399999999998</ele>
        <time>2020-07-26T09:41:53Z</time>
      </trkpt>
      <trkpt lat="45.678873304277658" lon="6.981046088039875">
        <ele>2349.9499999999998</ele>
        <time>2020-07-26T09:42:11Z</time>
      </trkpt>
      <trkpt lat="45.678879003971815" lon="6.981049776077271">
        <ele>2348.6999999999998</ele>
        <time>2020-07-26T09:42:14Z</time>
      </trkpt>
      <trkpt lat="45.678880847990513" lon="6.981049608439207">
        <ele>2350.0700000000002</ele>
        <time>2020-07-26T09:42:22Z</time>
      </trkpt>
      <trkpt lat="45.678880931809545" lon="6.981044411659241">
        <ele>2349.8099999999999</ele>
        <time>2020-07-26T09:42:55Z</time>
      </trkpt>
      <trkpt lat="45.678874729201198" lon="6.981044663116336">
        <ele>2349.9699999999998</ele>
        <time>2020-07-26T09:43:23Z</time>
      </trkpt>
      <trkpt lat="45.678867353126407" lon="6.981058325618506">
        <ele>2350.1599999999999</ele>
        <time>2020-07-26T09:43:45Z</time>
      </trkpt>
      <trkpt lat="45.678810942918062" lon="6.981113143265247">
        <ele>2352.0900000000001</ele>
        <time>2020-07-26T09:43:57Z</time>
      </trkpt>
      <trkpt lat="45.678750593215227" lon="6.981168799102306">
        <ele>2354.79</ele>
        <time>2020-07-26T09:44:10Z</time>
      </trkpt>
      <trkpt lat="45.678699212148786" lon="6.98123593814671">
        <ele>2356.9899999999998</ele>
        <time>2020-07-26T09:44:23Z</time>
      </trkpt>
      <trkpt lat="45.678662667050958" lon="6.981278099119663">
        <ele>2360.1399999999999</ele>
        <time>2020-07-26T09:44:34Z</time>
      </trkpt>
      <trkpt lat="45.678608855232596" lon="6.981317661702633">
        <ele>2362.3800000000001</ele>
        <time>2020-07-26T09:44:48Z</time>
      </trkpt>
      <trkpt lat="45.678539872169495" lon="6.981353620067239">
        <ele>2364.4899999999998</ele>
        <time>2020-07-26T09:45:03Z</time>
      </trkpt>
      <trkpt lat="45.678601562976837" lon="6.981413885951042">
        <ele>2366.5100000000002</ele>
        <time>2020-07-26T09:45:17Z</time>
      </trkpt>
      <trkpt lat="45.678673144429922" lon="6.981445318087935">
        <ele>2368.4699999999998</ele>
        <time>2020-07-26T09:45:30Z</time>
      </trkpt>
      <trkpt lat="45.678754113614559" lon="6.981456885114312">
        <ele>2370.98</ele>
        <time>2020-07-26T09:45:44Z</time>
      </trkpt>
      <trkpt lat="45.678809434175491" lon="6.981514804065228">
        <ele>2373.4200000000001</ele>
        <time>2020-07-26T09:45:57Z</time>
      </trkpt>
      <trkpt lat="45.67883818410337" lon="6.981636509299278">
        <ele>2376.0999999999999</ele>
        <time>2020-07-26T09:46:13Z</time>
      </trkpt>
      <trkpt lat="45.6788728851825" lon="6.981727033853531">
        <ele>2378.5100000000002</ele>
        <time>2020-07-26T09:46:26Z</time>
      </trkpt>
      <trkpt lat="45.678874561563134" lon="6.981813115999103">
        <ele>2381.4299999999998</ele>
        <time>2020-07-26T09:46:39Z</time>
      </trkpt>
      <trkpt lat="45.678908675909042" lon="6.981884781271219">
        <ele>2382.8200000000002</ele>
        <time>2020-07-26T09:46:50Z</time>
      </trkpt>
      <trkpt lat="45.678871627897024" lon="6.981915039941669">
        <ele>2384.75</ele>
        <time>2020-07-26T09:47:01Z</time>
      </trkpt>
      <trkpt lat="45.678792418912053" lon="6.981839435175061">
        <ele>2386.96</ele>
        <time>2020-07-26T09:47:14Z</time>
      </trkpt>
      <trkpt lat="45.678697703406215" lon="6.981822922825813">
        <ele>2389.1900000000001</ele>
        <time>2020-07-26T09:47:28Z</time>
      </trkpt>
      <trkpt lat="45.678578848019242" lon="6.981871956959367">
        <ele>2392.0700000000002</ele>
        <time>2020-07-26T09:47:45Z</time>
      </trkpt>
      <trkpt lat="45.678536938503385" lon="6.98193171992898">
        <ele>2394.0700000000002</ele>
        <time>2020-07-26T09:47:58Z</time>
      </trkpt>
      <trkpt lat="45.678612794727087" lon="6.981955021619797">
        <ele>2396.4099999999999</ele>
        <time>2020-07-26T09:48:11Z</time>
      </trkpt>
      <trkpt lat="45.67866375669837" lon="6.981989471241832">
        <ele>2399.1300000000001</ele>
        <time>2020-07-26T09:48:22Z</time>
      </trkpt>
      <trkpt lat="45.678693428635597" lon="6.982060046866536">
        <ele>2401.8000000000002</ele>
        <time>2020-07-26T09:48:35Z</time>
      </trkpt>
      <trkpt lat="45.678671803325415" lon="6.982105644419789">
        <ele>2403.96</ele>
        <time>2020-07-26T09:48:46Z</time>
      </trkpt>
      <trkpt lat="45.678571052849293" lon="6.982097178697586">
        <ele>2406.0599999999999</ele>
        <time>2020-07-26T09:49:02Z</time>
      </trkpt>
      <trkpt lat="45.678479103371501" lon="6.982134142890573">
        <ele>2407.4200000000001</ele>
        <time>2020-07-26T09:49:15Z</time>
      </trkpt>
      <trkpt lat="45.678495950996876" lon="6.982193738222122">
        <ele>2408.4400000000001</ele>
        <time>2020-07-26T09:49:25Z</time>
      </trkpt>
      <trkpt lat="45.678561916574836" lon="6.982221733778715">
        <ele>2410.4200000000001</ele>
        <time>2020-07-26T09:49:36Z</time>
      </trkpt>
      <trkpt lat="45.678604664281011" lon="6.982277641072869">
        <ele>2412.96</ele>
        <time>2020-07-26T09:49:48Z</time>
      </trkpt>
      <trkpt lat="45.678670629858971" lon="6.982337236404419">
        <ele>2415.2399999999998</ele>
        <time>2020-07-26T09:50:02Z</time>
      </trkpt>
      <trkpt lat="45.678713377565145" lon="6.98241108097136">
        <ele>2417.77</ele>
        <time>2020-07-26T09:50:15Z</time>
      </trkpt>
      <trkpt lat="45.678642634302378" lon="6.982398424297571">
        <ele>2419.52</ele>
        <time>2020-07-26T09:50:26Z</time>
      </trkpt>
      <trkpt lat="45.678559569641948" lon="6.982403956353664">
        <ele>2421.8200000000002</ele>
        <time>2020-07-26T09:50:38Z</time>
      </trkpt>
      <trkpt lat="45.678470134735107" lon="6.982446201145649">
        <ele>2423.8000000000002</ele>
        <time>2020-07-26T09:50:52Z</time>
      </trkpt>
      <trkpt lat="45.678450185805559" lon="6.982461623847485">
        <ele>2424.4299999999998</ele>
        <time>2020-07-26T09:51:03Z</time>
      </trkpt>
      <trkpt lat="45.678393607959151" lon="6.98247897438705">
        <ele>2425.0799999999999</ele>
        <time>2020-07-26T09:51:18Z</time>
      </trkpt>
      <trkpt lat="45.678374664857984" lon="6.982549801468849">
        <ele>2428.3899999999999</ele>
        <time>2020-07-26T09:51:29Z</time>
      </trkpt>
      <trkpt lat="45.678390087559819" lon="6.982608893886209">
        <ele>2431.7199999999998</ele>
        <time>2020-07-26T09:51:38Z</time>
      </trkpt>
      <trkpt lat="45.67845999263227" lon="6.982658682391048">
        <ele>2433.6700000000001</ele>
        <time>2020-07-26T09:51:50Z</time>
      </trkpt>
      <trkpt lat="45.678570633754134" lon="6.982708806172013">
        <ele>2436.1599999999999</ele>
        <time>2020-07-26T09:52:05Z</time>
      </trkpt>
      <trkpt lat="45.678665768355131" lon="6.982779717072845">
        <ele>2438.77</ele>
        <time>2020-07-26T09:52:20Z</time>
      </trkpt>
      <trkpt lat="45.678750341758132" lon="6.982843838632107">
        <ele>2441.8400000000001</ele>
        <time>2020-07-26T09:52:33Z</time>
      </trkpt>
      <trkpt lat="45.678822677582502" lon="6.982907373458147">
        <ele>2444.52</ele>
        <time>2020-07-26T09:52:48Z</time>
      </trkpt>
      <trkpt lat="45.678787222132087" lon="6.982953390106559">
        <ele>2446.2800000000002</ele>
        <time>2020-07-26T09:52:59Z</time>
      </trkpt>
      <trkpt lat="45.67869896069169" lon="6.982988845556974">
        <ele>2447.9899999999998</ele>
        <time>2020-07-26T09:53:14Z</time>
      </trkpt>
      <trkpt lat="45.678619751706719" lon="6.982978451997042">
        <ele>2448.3800000000001</ele>
        <time>2020-07-26T09:53:27Z</time>
      </trkpt>
      <trkpt lat="45.678509864956141" lon="6.983004938811064">
        <ele>2450.54</ele>
        <time>2020-07-26T09:53:41Z</time>
      </trkpt>
      <trkpt lat="45.678452365100384" lon="6.983080878853798">
        <ele>2453.1700000000001</ele>
        <time>2020-07-26T09:53:53Z</time>
      </trkpt>
      <trkpt lat="45.678521683439612" lon="6.983124045655131">
        <ele>2455.48</ele>
        <time>2020-07-26T09:54:06Z</time>
      </trkpt>
      <trkpt lat="45.678583877161145" lon="6.98321582749486">
        <ele>2457.27</ele>
        <time>2020-07-26T09:54:20Z</time>
      </trkpt>
      <trkpt lat="45.678507098928094" lon="6.983250612393022">
        <ele>2459.4200000000001</ele>
        <time>2020-07-26T09:54:33Z</time>
      </trkpt>
      <trkpt lat="45.678410204127431" lon="6.983344070613384">
        <ele>2460.6799999999998</ele>
        <time>2020-07-26T09:54:48Z</time>
      </trkpt>
      <trkpt lat="45.678315991535783" lon="6.983418334275484">
        <ele>2463.0799999999999</ele>
        <time>2020-07-26T09:55:03Z</time>
      </trkpt>
      <trkpt lat="45.678207697346807" lon="6.983508188277483">
        <ele>2465.3600000000001</ele>
        <time>2020-07-26T09:55:19Z</time>
      </trkpt>
      <trkpt lat="45.678150113672018" lon="6.983492597937584">
        <ele>2467</ele>
        <time>2020-07-26T09:55:32Z</time>
      </trkpt>
      <trkpt lat="45.678089261054993" lon="6.983494777232409">
        <ele>2468.3600000000001</ele>
        <time>2020-07-26T09:55:39Z</time>
      </trkpt>
      <trkpt lat="45.678001753985882" lon="6.983579350635409">
        <ele>2469.9400000000001</ele>
        <time>2020-07-26T09:55:53Z</time>
      </trkpt>
      <trkpt lat="45.678009549155831" lon="6.983644645661116">
        <ele>2473.0300000000002</ele>
        <time>2020-07-26T09:56:02Z</time>
      </trkpt>
      <trkpt lat="45.677996138110757" lon="6.983712706714869">
        <ele>2476.04</ele>
        <time>2020-07-26T09:56:12Z</time>
      </trkpt>
      <trkpt lat="45.678004184737802" lon="6.983761405572295">
        <ele>2478.5700000000002</ele>
        <time>2020-07-26T09:56:23Z</time>
      </trkpt>
      <trkpt lat="45.67800996825099" lon="6.983781941235066">
        <ele>2479.2800000000002</ele>
        <time>2020-07-26T09:56:34Z</time>
      </trkpt>
      <trkpt lat="45.678006196394563" lon="6.983801135793328">
        <ele>2480.3400000000001</ele>
        <time>2020-07-26T09:56:50Z</time>
      </trkpt>
      <trkpt lat="45.677969316020608" lon="6.983882440254092">
        <ele>2482.4299999999998</ele>
        <time>2020-07-26T09:57:04Z</time>
      </trkpt>
      <trkpt lat="45.677899578586221" lon="6.983987549319863">
        <ele>2485.4400000000001</ele>
        <time>2020-07-26T09:57:20Z</time>
      </trkpt>
      <trkpt lat="45.677847443148494" lon="6.984054017812014">
        <ele>2488.29</ele>
        <time>2020-07-26T09:57:33Z</time>
      </trkpt>
      <trkpt lat="45.677870912477374" lon="6.98409684933722">
        <ele>2490.3899999999999</ele>
        <time>2020-07-26T09:57:45Z</time>
      </trkpt>
      <trkpt lat="45.677884742617607" lon="6.984113361686468">
        <ele>2491.7600000000002</ele>
        <time>2020-07-26T09:57:50Z</time>
      </trkpt>
      <trkpt lat="45.677839228883386" lon="6.984171699732542">
        <ele>2494.48</ele>
        <time>2020-07-26T09:58:03Z</time>
      </trkpt>
      <trkpt lat="45.677770413458347" lon="6.984201539307833">
        <ele>2495.6999999999998</ele>
        <time>2020-07-26T09:58:15Z</time>
      </trkpt>
      <trkpt lat="45.677752140909433" lon="6.984215788543224">
        <ele>2496.9299999999998</ele>
        <time>2020-07-26T09:58:18Z</time>
      </trkpt>
      <trkpt lat="45.677699418738484" lon="6.984221236780286">
        <ele>2498.2199999999998</ele>
        <time>2020-07-26T09:59:09Z</time>
      </trkpt>
      <trkpt lat="45.677693719044328" lon="6.984226433560252">
        <ele>2497.9499999999998</ele>
        <time>2020-07-26T09:59:57Z</time>
      </trkpt>
      <trkpt lat="45.677688270807266" lon="6.984278066083789">
        <ele>2497.4000000000001</ele>
        <time>2020-07-26T10:00:07Z</time>
      </trkpt>
      <trkpt lat="45.677606295794249" lon="6.98434897698462">
        <ele>2496.3099999999999</ele>
        <time>2020-07-26T10:00:16Z</time>
      </trkpt>
      <trkpt lat="45.677505210042" lon="6.984376134350896">
        <ele>2495.5999999999999</ele>
        <time>2020-07-26T10:00:29Z</time>
      </trkpt>
      <trkpt lat="45.677498504519463" lon="6.984376553446055">
        <ele>2495.5900000000001</ele>
        <time>2020-07-26T10:00:30Z</time>
      </trkpt>
      <trkpt lat="45.677461372688413" lon="6.984381582587957">
        <ele>2494.9699999999998</ele>
        <time>2020-07-26T10:00:34Z</time>
      </trkpt>
      <trkpt lat="45.677404711022973" lon="6.984364818781614">
        <ele>2494.6199999999999</ele>
        <time>2020-07-26T10:00:40Z</time>
      </trkpt>
      <trkpt lat="45.677351402118802" lon="6.984374122694135">
        <ele>2493.7800000000002</ele>
        <time>2020-07-26T10:00:46Z</time>
      </trkpt>
      <trkpt lat="45.677268002182245" lon="6.984367920085788">
        <ele>2494.8600000000001</ele>
        <time>2020-07-26T10:00:58Z</time>
      </trkpt>
      <trkpt lat="45.677246544510126" lon="6.984398011118174">
        <ele>2494.5500000000002</ele>
        <time>2020-07-26T10:01:10Z</time>
      </trkpt>
      <trkpt lat="45.677217375487089" lon="6.984459366649389">
        <ele>2491.48</ele>
        <time>2020-07-26T10:01:21Z</time>
      </trkpt>
      <trkpt lat="45.677180998027325" lon="6.984534049406648">
        <ele>2494.0799999999999</ele>
        <time>2020-07-26T10:01:33Z</time>
      </trkpt>
      <trkpt lat="45.677174879238009" lon="6.984594231471419">
        <ele>2494.9299999999998</ele>
        <time>2020-07-26T10:01:45Z</time>
      </trkpt>
      <trkpt lat="45.677177142351866" lon="6.984717696905136">
        <ele>2496.6300000000001</ele>
        <time>2020-07-26T10:01:58Z</time>
      </trkpt>
      <trkpt lat="45.677169179543853" lon="6.984768072143197">
        <ele>2497.3200000000002</ele>
        <time>2020-07-26T10:02:04Z</time>
      </trkpt>
      <trkpt lat="45.677155181765556" lon="6.984840575605631">
        <ele>2496.7600000000002</ele>
        <time>2020-07-26T10:02:10Z</time>
      </trkpt>
      <trkpt lat="45.677108662202954" lon="6.984940152615309">
        <ele>2496.8200000000002</ele>
        <time>2020-07-26T10:02:23Z</time>
      </trkpt>
      <trkpt lat="45.677093071863055" lon="6.985017266124487">
        <ele>2498.1500000000001</ele>
        <time>2020-07-26T10:02:35Z</time>
      </trkpt>
      <trkpt lat="45.677069686353207" lon="6.985060600563884">
        <ele>2498.4699999999998</ele>
        <time>2020-07-26T10:02:46Z</time>
      </trkpt>
      <trkpt lat="45.677026016637683" lon="6.985141821205616">
        <ele>2498.4000000000001</ele>
        <time>2020-07-26T10:02:57Z</time>
      </trkpt>
      <trkpt lat="45.676979916170239" lon="6.985216839239001">
        <ele>2498.8099999999999</ele>
        <time>2020-07-26T10:03:08Z</time>
      </trkpt>
      <trkpt lat="45.676973210647702" lon="6.985221952199936">
        <ele>2498.2600000000002</ele>
        <time>2020-07-26T10:03:09Z</time>
      </trkpt>
      <trkpt lat="45.676907496526837" lon="6.985262269154191">
        <ele>2497.8899999999999</ele>
        <time>2020-07-26T10:03:18Z</time>
      </trkpt>
      <trkpt lat="45.676797023043036" lon="6.985251624137163">
        <ele>2498.9299999999998</ele>
        <time>2020-07-26T10:03:32Z</time>
      </trkpt>
      <trkpt lat="45.676700044423342" lon="6.985261933878064">
        <ele>2499.98</ele>
        <time>2020-07-26T10:03:44Z</time>
      </trkpt>
      <trkpt lat="45.676628965884447" lon="6.985313985496759">
        <ele>2499.6799999999998</ele>
        <time>2020-07-26T10:03:56Z</time>
      </trkpt>
      <trkpt lat="45.676557719707489" lon="6.985360840335488">
        <ele>2498.1700000000001</ele>
        <time>2020-07-26T10:04:09Z</time>
      </trkpt>
      <trkpt lat="45.676500806584954" lon="6.98547231964767">
        <ele>2495.96</ele>
        <time>2020-07-26T10:04:22Z</time>
      </trkpt>
      <trkpt lat="45.676469206809998" lon="6.985567789524794">
        <ele>2496.0500000000002</ele>
        <time>2020-07-26T10:04:32Z</time>
      </trkpt>
      <trkpt lat="45.676500052213669" lon="6.985610788688064">
        <ele>2494.7600000000002</ele>
        <time>2020-07-26T10:04:44Z</time>
      </trkpt>
      <trkpt lat="45.676495190709829" lon="6.985604502260685">
        <ele>2495.98</ele>
        <time>2020-07-26T10:05:15Z</time>
      </trkpt>
      <trkpt lat="45.676450515165925" lon="6.985653871670365">
        <ele>2495.6399999999999</ele>
        <time>2020-07-26T10:05:25Z</time>
      </trkpt>
      <trkpt lat="45.676444564014673" lon="6.985663007944822">
        <ele>2495.4499999999998</ele>
        <time>2020-07-26T10:05:26Z</time>
      </trkpt>
      <trkpt lat="45.676414892077446" lon="6.98569024913013">
        <ele>2495.6500000000001</ele>
        <time>2020-07-26T10:05:33Z</time>
      </trkpt>
      <trkpt lat="45.676293773576617" lon="6.985708186402917">
        <ele>2494.0500000000002</ele>
        <time>2020-07-26T10:05:45Z</time>
      </trkpt>
      <trkpt lat="45.676129069179296" lon="6.985625457018614">
        <ele>2491.9400000000001</ele>
        <time>2020-07-26T10:06:01Z</time>
      </trkpt>
      <trkpt lat="45.676004765555263" lon="6.985606597736478">
        <ele>2490.1900000000001</ele>
        <time>2020-07-26T10:06:13Z</time>
      </trkpt>
      <trkpt lat="45.675871577113867" lon="6.985743222758174">
        <ele>2491.2199999999998</ele>
        <time>2020-07-26T10:06:29Z</time>
      </trkpt>
      <trkpt lat="45.675742160528898" lon="6.985844392329454">
        <ele>2491.3800000000001</ele>
        <time>2020-07-26T10:06:45Z</time>
      </trkpt>
      <trkpt lat="45.675639733672142" lon="6.985939191654325">
        <ele>2492.1199999999999</ele>
        <time>2020-07-26T10:07:01Z</time>
      </trkpt>
      <trkpt lat="45.675552561879158" lon="6.986004570499063">
        <ele>2491.6700000000001</ele>
        <time>2020-07-26T10:07:14Z</time>
      </trkpt>
      <trkpt lat="45.675541581586003" lon="6.986033152788878">
        <ele>2491.7800000000002</ele>
        <time>2020-07-26T10:07:17Z</time>
      </trkpt>
      <trkpt lat="45.675468072295189" lon="6.98610263876617">
        <ele>2491.6100000000001</ele>
        <time>2020-07-26T10:07:55Z</time>
      </trkpt>
      <trkpt lat="45.675462791696191" lon="6.986103057861328">
        <ele>2494.5</ele>
        <time>2020-07-26T10:26:07Z</time>
      </trkpt>
      <trkpt lat="45.675463378429413" lon="6.986102052032948">
        <ele>2494.7399999999998</ele>
        <time>2020-07-26T10:27:39Z</time>
      </trkpt>
      <trkpt lat="45.675467401742935" lon="6.986100124195218">
        <ele>2494.3699999999999</ele>
        <time>2020-07-26T10:38:15Z</time>
      </trkpt>
      <trkpt lat="45.675468742847443" lon="6.986102806404233">
        <ele>2493.3299999999999</ele>
        <time>2020-07-26T10:41:37Z</time>
      </trkpt>
      <trkpt lat="45.675434209406376" lon="6.986104901880026">
        <ele>2490.4400000000001</ele>
        <time>2020-07-26T11:32:39Z</time>
      </trkpt>
      <trkpt lat="45.675425659865141" lon="6.986095262691379">
        <ele>2489.3400000000001</ele>
        <time>2020-07-26T11:32:59Z</time>
      </trkpt>
      <trkpt lat="45.675388108938932" lon="6.986041031777859">
        <ele>2488.8499999999999</ele>
        <time>2020-07-26T11:33:13Z</time>
      </trkpt>
      <trkpt lat="45.675368579104543" lon="6.985969785600901">
        <ele>2489.4299999999998</ele>
        <time>2020-07-26T11:33:21Z</time>
      </trkpt>
      <trkpt lat="45.675316778942943" lon="6.985808601602912">
        <ele>2489.0700000000002</ele>
        <time>2020-07-26T11:33:35Z</time>
      </trkpt>
      <trkpt lat="45.675278389826417" lon="6.985648926347494">
        <ele>2489.0700000000002</ele>
        <time>2020-07-26T11:33:47Z</time>
      </trkpt>
      <trkpt lat="45.675221057608724" lon="6.985494196414948">
        <ele>2489.0799999999999</ele>
        <time>2020-07-26T11:34:00Z</time>
      </trkpt>
      <trkpt lat="45.675211837515235" lon="6.985469218343496">
        <ele>2488.9699999999998</ele>
        <time>2020-07-26T11:34:02Z</time>
      </trkpt>
      <trkpt lat="45.675121480599046" lon="6.985289677977562">
        <ele>2487.3299999999999</ele>
        <time>2020-07-26T11:34:18Z</time>
      </trkpt>
      <trkpt lat="45.675116619095206" lon="6.98528372682631">
        <ele>2486.9400000000001</ele>
        <time>2020-07-26T11:34:19Z</time>
      </trkpt>
      <trkpt lat="45.675095245242119" lon="6.985257072374225">
        <ele>2486.1999999999998</ele>
        <time>2020-07-26T11:34:22Z</time>
      </trkpt>
      <trkpt lat="45.675067836418748" lon="6.985213235020638">
        <ele>2485.9099999999999</ele>
        <time>2020-07-26T11:34:26Z</time>
      </trkpt>
      <trkpt lat="45.67498485557735" lon="6.985160345211625">
        <ele>2485.75</ele>
        <time>2020-07-26T11:34:38Z</time>
      </trkpt>
      <trkpt lat="45.674962224438787" lon="6.985141653567553">
        <ele>2485.79</ele>
        <time>2020-07-26T11:34:50Z</time>
      </trkpt>
      <trkpt lat="45.674965744838119" lon="6.985141737386584">
        <ele>2485.6199999999999</ele>
        <time>2020-07-26T11:35:09Z</time>
      </trkpt>
      <trkpt lat="45.674962140619755" lon="6.985142910853028">
        <ele>2484.52</ele>
        <time>2020-07-26T11:35:32Z</time>
      </trkpt>
      <trkpt lat="45.674958284944296" lon="6.985144587233663">
        <ele>2485.1100000000001</ele>
        <time>2020-07-26T11:35:49Z</time>
      </trkpt>
      <trkpt lat="45.674909753724933" lon="6.985085494816303">
        <ele>2483.75</ele>
        <time>2020-07-26T11:36:01Z</time>
      </trkpt>
      <trkpt lat="45.674829538911581" lon="6.98499052785337">
        <ele>2482.6900000000001</ele>
        <time>2020-07-26T11:36:14Z</time>
      </trkpt>
      <trkpt lat="45.674823084846139" lon="6.984982397407293">
        <ele>2482.3899999999999</ele>
        <time>2020-07-26T11:36:15Z</time>
      </trkpt>
      <trkpt lat="45.674766171723604" lon="6.984861362725496">
        <ele>2482.3400000000001</ele>
        <time>2020-07-26T11:36:29Z</time>
      </trkpt>
      <trkpt lat="45.674718897789717" lon="6.984813334420323">
        <ele>2480.5500000000002</ele>
        <time>2020-07-26T11:36:40Z</time>
      </trkpt>
      <trkpt lat="45.67471663467586" lon="6.98480830527842">
        <ele>2481.9299999999998</ele>
        <time>2020-07-26T11:36:46Z</time>
      </trkpt>
      <trkpt lat="45.67468486726284" lon="6.984753152355552">
        <ele>2480.7199999999998</ele>
        <time>2020-07-26T11:36:50Z</time>
      </trkpt>
      <trkpt lat="45.674659302458167" lon="6.984698167070746">
        <ele>2481.4200000000001</ele>
        <time>2020-07-26T11:36:54Z</time>
      </trkpt>
      <trkpt lat="45.674599288031459" lon="6.984520135447383">
        <ele>2480.6599999999999</ele>
        <time>2020-07-26T11:37:07Z</time>
      </trkpt>
      <trkpt lat="45.674501555040479" lon="6.984290638938546">
        <ele>2479.8299999999999</ele>
        <time>2020-07-26T11:37:24Z</time>
      </trkpt>
      <trkpt lat="45.67435109987855" lon="6.984178656712174">
        <ele>2478.7399999999998</ele>
        <time>2020-07-26T11:37:40Z</time>
      </trkpt>
      <trkpt lat="45.674310280010104" lon="6.98417304083705">
        <ele>2478.2199999999998</ele>
        <time>2020-07-26T11:37:48Z</time>
      </trkpt>
      <trkpt lat="45.674210954457521" lon="6.984070697799325">
        <ele>2475.2399999999998</ele>
        <time>2020-07-26T11:38:01Z</time>
      </trkpt>
      <trkpt lat="45.674101067706943" lon="6.983961062505841">
        <ele>2473.71</ele>
        <time>2020-07-26T11:38:14Z</time>
      </trkpt>
      <trkpt lat="45.674004508182406" lon="6.98394195176661">
        <ele>2473.5500000000002</ele>
        <time>2020-07-26T11:38:24Z</time>
      </trkpt>
      <trkpt lat="45.67386201582849" lon="6.983879338949919">
        <ele>2472.7399999999998</ele>
        <time>2020-07-26T11:38:39Z</time>
      </trkpt>
      <trkpt lat="45.673830416053534" lon="6.983879674226046">
        <ele>2472.46</ele>
        <time>2020-07-26T11:38:43Z</time>
      </trkpt>
      <trkpt lat="45.673789344727993" lon="6.983865173533559">
        <ele>2471.9499999999998</ele>
        <time>2020-07-26T11:38:47Z</time>
      </trkpt>
      <trkpt lat="45.673752296715975" lon="6.98382175527513">
        <ele>2472</ele>
        <time>2020-07-26T11:38:52Z</time>
      </trkpt>
      <trkpt lat="45.673647439107299" lon="6.983871040865779">
        <ele>2473.9899999999998</ele>
        <time>2020-07-26T11:39:05Z</time>
      </trkpt>
      <trkpt lat="45.673605026677251" lon="6.983862742781639">
        <ele>2475.1999999999998</ele>
        <time>2020-07-26T11:39:17Z</time>
      </trkpt>
      <trkpt lat="45.673600165173411" lon="6.983894091099501">
        <ele>2476.71</ele>
        <time>2020-07-26T11:39:27Z</time>
      </trkpt>
      <trkpt lat="45.673579042777419" lon="6.983933486044407">
        <ele>2478.6999999999998</ele>
        <time>2020-07-26T11:39:38Z</time>
      </trkpt>
      <trkpt lat="45.673544341698289" lon="6.983940275385976">
        <ele>2478.73</ele>
        <time>2020-07-26T11:39:50Z</time>
      </trkpt>
      <trkpt lat="45.673522381111979" lon="6.983953267335892">
        <ele>2481.9000000000001</ele>
        <time>2020-07-26T11:40:00Z</time>
      </trkpt>
      <trkpt lat="45.673524728044868" lon="6.984012024477124">
        <ele>2482.52</ele>
        <time>2020-07-26T11:40:09Z</time>
      </trkpt>
      <trkpt lat="45.673535373061895" lon="6.984112104400992">
        <ele>2481.73</ele>
        <time>2020-07-26T11:40:23Z</time>
      </trkpt>
      <trkpt lat="45.673510646447539" lon="6.984069691970944">
        <ele>2481.3000000000002</ele>
        <time>2020-07-26T11:40:32Z</time>
      </trkpt>
      <trkpt lat="45.67351114936173" lon="6.984034823253751">
        <ele>2480.6700000000001</ele>
        <time>2020-07-26T11:40:44Z</time>
      </trkpt>
      <trkpt lat="45.673515005037189" lon="6.984023256227374">
        <ele>2480.6700000000001</ele>
        <time>2020-07-26T11:41:03Z</time>
      </trkpt>
      <trkpt lat="45.673514502122998" lon="6.984028872102499">
        <ele>2480.8200000000002</ele>
        <time>2020-07-26T11:41:35Z</time>
      </trkpt>
      <trkpt lat="45.673526152968407" lon="6.983966929838061">
        <ele>2480.9200000000001</ele>
        <time>2020-07-26T11:41:49Z</time>
      </trkpt>
      <trkpt lat="45.673560854047537" lon="6.983949830755591">
        <ele>2480.8200000000002</ele>
        <time>2020-07-26T11:41:59Z</time>
      </trkpt>
      <trkpt lat="45.673508383333683" lon="6.983876656740904">
        <ele>2480.0700000000002</ele>
        <time>2020-07-26T11:42:08Z</time>
      </trkpt>
      <trkpt lat="45.673537300899625" lon="6.983801554888487">
        <ele>2477.3899999999999</ele>
        <time>2020-07-26T11:42:20Z</time>
      </trkpt>
      <trkpt lat="45.673550879582763" lon="6.983780264854431">
        <ele>2475.4699999999998</ele>
        <time>2020-07-26T11:42:28Z</time>
      </trkpt>
      <trkpt lat="45.673451218754053" lon="6.983639113605022">
        <ele>2473.6799999999998</ele>
        <time>2020-07-26T11:42:39Z</time>
      </trkpt>
      <trkpt lat="45.673401346430182" lon="6.983525287359953">
        <ele>2470.8200000000002</ele>
        <time>2020-07-26T11:42:49Z</time>
      </trkpt>
      <trkpt lat="45.673388103023171" lon="6.983515815809369">
        <ele>2471.23</ele>
        <time>2020-07-26T11:42:51Z</time>
      </trkpt>
      <trkpt lat="45.673331106081605" lon="6.983455969020724">
        <ele>2469.1799999999998</ele>
        <time>2020-07-26T11:43:03Z</time>
      </trkpt>
      <trkpt lat="45.673313420265913" lon="6.983447503298521">
        <ele>2467.9099999999999</ele>
        <time>2020-07-26T11:43:16Z</time>
      </trkpt>
      <trkpt lat="45.673255668953061" lon="6.983411544933915">
        <ele>2464.96</ele>
        <time>2020-07-26T11:43:31Z</time>
      </trkpt>
      <trkpt lat="45.673232031986117" lon="6.983381789177656">
        <ele>2463.1199999999999</ele>
        <time>2020-07-26T11:43:43Z</time>
      </trkpt>
      <trkpt lat="45.673224236816168" lon="6.983386985957623">
        <ele>2462.4200000000001</ele>
        <time>2020-07-26T11:43:54Z</time>
      </trkpt>
      <trkpt lat="45.673208646476269" lon="6.983403833582997">
        <ele>2460.73</ele>
        <time>2020-07-26T11:44:08Z</time>
      </trkpt>
      <trkpt lat="45.673185009509325" lon="6.983362175524235">
        <ele>2460.1500000000001</ele>
        <time>2020-07-26T11:44:20Z</time>
      </trkpt>
      <trkpt lat="45.673170341178775" lon="6.983347674831748">
        <ele>2459.3899999999999</ele>
        <time>2020-07-26T11:44:32Z</time>
      </trkpt>
      <trkpt lat="45.673154583200812" lon="6.983357733115554">
        <ele>2457.0900000000001</ele>
        <time>2020-07-26T11:44:45Z</time>
      </trkpt>
      <trkpt lat="45.673176292330027" lon="6.983454963192344">
        <ele>2454.73</ele>
        <time>2020-07-26T11:44:56Z</time>
      </trkpt>
      <trkpt lat="45.67319062538445" lon="6.983555210754275">
        <ele>2453.3899999999999</ele>
        <time>2020-07-26T11:45:09Z</time>
      </trkpt>
      <trkpt lat="45.673174615949392" lon="6.98360818438232">
        <ele>2451.4099999999999</ele>
        <time>2020-07-26T11:45:21Z</time>
      </trkpt>
      <trkpt lat="45.673132119700313" lon="6.98356669396162">
        <ele>2449.8899999999999</ele>
        <time>2020-07-26T11:45:32Z</time>
      </trkpt>
      <trkpt lat="45.673091048374772" lon="6.98358915746212">
        <ele>2449.2199999999998</ele>
        <time>2020-07-26T11:45:43Z</time>
      </trkpt>
      <trkpt lat="45.673057017847896" lon="6.983578512445092">
        <ele>2450.48</ele>
        <time>2020-07-26T11:45:53Z</time>
      </trkpt>
      <trkpt lat="45.673058945685625" lon="6.983570801094174">
        <ele>2449.9200000000001</ele>
        <time>2020-07-26T11:46:21Z</time>
      </trkpt>
      <trkpt lat="45.673101777210832" lon="6.983558395877481">
        <ele>2449.48</ele>
        <time>2020-07-26T11:46:31Z</time>
      </trkpt>
      <trkpt lat="45.673091383650899" lon="6.983434846624732">
        <ele>2449.0599999999999</ele>
        <time>2020-07-26T11:46:42Z</time>
      </trkpt>
      <trkpt lat="45.673075625672936" lon="6.983386902138591">
        <ele>2447.6700000000001</ele>
        <time>2020-07-26T11:46:53Z</time>
      </trkpt>
      <trkpt lat="45.673068081960082" lon="6.983363181352615">
        <ele>2446.4699999999998</ele>
        <time>2020-07-26T11:47:05Z</time>
      </trkpt>
      <trkpt lat="45.673039751127362" lon="6.983301742002368">
        <ele>2443.3699999999999</ele>
        <time>2020-07-26T11:47:16Z</time>
      </trkpt>
      <trkpt lat="45.673020808026195" lon="6.98328573256731">
        <ele>2442.8099999999999</ele>
        <time>2020-07-26T11:47:28Z</time>
      </trkpt>
      <trkpt lat="45.672994991764426" lon="6.983276261016727">
        <ele>2441.79</ele>
        <time>2020-07-26T11:47:38Z</time>
      </trkpt>
      <trkpt lat="45.67297319881618" lon="6.983216917142272">
        <ele>2440.4499999999998</ele>
        <time>2020-07-26T11:47:49Z</time>
      </trkpt>
      <trkpt lat="45.672972612082958" lon="6.983208786696196">
        <ele>2440.3099999999999</ele>
        <time>2020-07-26T11:47:52Z</time>
      </trkpt>
      <trkpt lat="45.672925673425198" lon="6.98317090049386">
        <ele>2439.0300000000002</ele>
        <time>2020-07-26T11:48:00Z</time>
      </trkpt>
      <trkpt lat="45.672918632626534" lon="6.983162770047784">
        <ele>2438.8600000000001</ele>
        <time>2020-07-26T11:48:01Z</time>
      </trkpt>
      <trkpt lat="45.672872615978122" lon="6.983059505000711">
        <ele>2438.21</ele>
        <time>2020-07-26T11:48:12Z</time>
      </trkpt>
      <trkpt lat="45.672834981232882" lon="6.983027821406722">
        <ele>2436.5599999999999</ele>
        <time>2020-07-26T11:48:21Z</time>
      </trkpt>
      <trkpt lat="45.672802207991481" lon="6.983011728152633">
        <ele>2434.5999999999999</ele>
        <time>2020-07-26T11:48:31Z</time>
      </trkpt>
      <trkpt lat="45.672779073938727" lon="6.982999742031097">
        <ele>2432.6500000000001</ele>
        <time>2020-07-26T11:48:40Z</time>
      </trkpt>
      <trkpt lat="45.672713946551085" lon="6.982990019023418">
        <ele>2429.7800000000002</ele>
        <time>2020-07-26T11:48:53Z</time>
      </trkpt>
      <trkpt lat="45.672710007056594" lon="6.982962358742952">
        <ele>2428.0100000000002</ele>
        <time>2020-07-26T11:48:56Z</time>
      </trkpt>
      <trkpt lat="45.672678742557764" lon="6.982880383729935">
        <ele>2426.02</ele>
        <time>2020-07-26T11:49:06Z</time>
      </trkpt>
      <trkpt lat="45.672634989023209" lon="6.982797821983695">
        <ele>2424.8600000000001</ele>
        <time>2020-07-26T11:49:15Z</time>
      </trkpt>
      <trkpt lat="45.672530801966786" lon="6.982657257467508">
        <ele>2424.1700000000001</ele>
        <time>2020-07-26T11:49:29Z</time>
      </trkpt>
      <trkpt lat="45.672447318211198" lon="6.982478303834796">
        <ele>2424.6500000000001</ele>
        <time>2020-07-26T11:49:42Z</time>
      </trkpt>
      <trkpt lat="45.672374730929732" lon="6.982315191999078">
        <ele>2425.3200000000002</ele>
        <time>2020-07-26T11:49:54Z</time>
      </trkpt>
      <trkpt lat="45.672369617968798" lon="6.982306558638811">
        <ele>2425.5799999999999</ele>
        <time>2020-07-26T11:49:55Z</time>
      </trkpt>
      <trkpt lat="45.67228714004159" lon="6.982116540893912">
        <ele>2423.5500000000002</ele>
        <time>2020-07-26T11:50:08Z</time>
      </trkpt>
      <trkpt lat="45.672257803380489" lon="6.982026686891913">
        <ele>2423.5999999999999</ele>
        <time>2020-07-26T11:50:15Z</time>
      </trkpt>
      <trkpt lat="45.672202985733747" lon="6.981956949457526">
        <ele>2424.6599999999999</ele>
        <time>2020-07-26T11:50:22Z</time>
      </trkpt>
      <trkpt lat="45.672160908579826" lon="6.981839183717966">
        <ele>2424.8200000000002</ele>
        <time>2020-07-26T11:50:35Z</time>
      </trkpt>
      <trkpt lat="45.672149676829576" lon="6.9817597232759">
        <ele>2425.1500000000001</ele>
        <time>2020-07-26T11:50:42Z</time>
      </trkpt>
      <trkpt lat="45.672114472836256" lon="6.981609938666225">
        <ele>2426.7199999999998</ele>
        <time>2020-07-26T11:50:57Z</time>
      </trkpt>
      <trkpt lat="45.672101899981499" lon="6.981571884825826">
        <ele>2426.2800000000002</ele>
        <time>2020-07-26T11:51:08Z</time>
      </trkpt>
      <trkpt lat="45.672071473672986" lon="6.981470296159387">
        <ele>2423.8600000000001</ele>
        <time>2020-07-26T11:51:20Z</time>
      </trkpt>
      <trkpt lat="45.672051105648279" lon="6.981395529583097">
        <ele>2424.9400000000001</ele>
        <time>2020-07-26T11:51:32Z</time>
      </trkpt>
      <trkpt lat="45.672015314921737" lon="6.98141279630363">
        <ele>2424.46</ele>
        <time>2020-07-26T11:51:40Z</time>
      </trkpt>
      <trkpt lat="45.671974495053291" lon="6.981432242318988">
        <ele>2424.8800000000001</ele>
        <time>2020-07-26T11:51:45Z</time>
      </trkpt>
      <trkpt lat="45.671936189755797" lon="6.98145093396306">
        <ele>2425.0500000000002</ele>
        <time>2020-07-26T11:52:00Z</time>
      </trkpt>
      <trkpt lat="45.671963514760137" lon="6.98139569722116">
        <ele>2421.9400000000001</ele>
        <time>2020-07-26T11:52:19Z</time>
      </trkpt>
      <trkpt lat="45.672003077343106" lon="6.981351105496287">
        <ele>2423.9499999999998</ele>
        <time>2020-07-26T11:52:25Z</time>
      </trkpt>
      <trkpt lat="45.672022020444274" lon="6.981320260092616">
        <ele>2423.5900000000001</ele>
        <time>2020-07-26T11:52:42Z</time>
      </trkpt>
      <trkpt lat="45.672028474509716" lon="6.981301149353385">
        <ele>2422.4299999999998</ele>
        <time>2020-07-26T11:52:44Z</time>
      </trkpt>
      <trkpt lat="45.672033336013556" lon="6.981271896511316">
        <ele>2421.7800000000002</ele>
        <time>2020-07-26T11:52:46Z</time>
      </trkpt>
      <trkpt lat="45.67204624414444" lon="6.981118507683277">
        <ele>2422.1599999999999</ele>
        <time>2020-07-26T11:52:55Z</time>
      </trkpt>
      <trkpt lat="45.672018164768815" lon="6.980938967317343">
        <ele>2421.4299999999998</ele>
        <time>2020-07-26T11:53:06Z</time>
      </trkpt>
      <trkpt lat="45.672012800350785" lon="6.980912396684289">
        <ele>2422.0700000000002</ele>
        <time>2020-07-26T11:53:08Z</time>
      </trkpt>
      <trkpt lat="45.672031659632921" lon="6.980770155787468">
        <ele>2422.0900000000001</ele>
        <time>2020-07-26T11:53:18Z</time>
      </trkpt>
      <trkpt lat="45.672046327963471" lon="6.98068818077445">
        <ele>2421.9200000000001</ele>
        <time>2020-07-26T11:53:24Z</time>
      </trkpt>
      <trkpt lat="45.67201011814177" lon="6.980608804151416">
        <ele>2421.1100000000001</ele>
        <time>2020-07-26T11:53:30Z</time>
      </trkpt>
      <trkpt lat="45.671900482848287" lon="6.980428006500006">
        <ele>2419.48</ele>
        <time>2020-07-26T11:53:45Z</time>
      </trkpt>
      <trkpt lat="45.671852203086019" lon="6.980367992073298">
        <ele>2419.46</ele>
        <time>2020-07-26T11:53:52Z</time>
      </trkpt>
      <trkpt lat="45.671776765957475" lon="6.980256177484989">
        <ele>2419.6900000000001</ele>
        <time>2020-07-26T11:54:04Z</time>
      </trkpt>
      <trkpt lat="45.671660173684359" lon="6.980140591040254">
        <ele>2417.8200000000002</ele>
        <time>2020-07-26T11:54:19Z</time>
      </trkpt>
      <trkpt lat="45.671631926670671" lon="6.98013405315578">
        <ele>2417.0500000000002</ele>
        <time>2020-07-26T11:54:22Z</time>
      </trkpt>
      <trkpt lat="45.671530924737453" lon="6.980019472539425">
        <ele>2413.6100000000001</ele>
        <time>2020-07-26T11:54:35Z</time>
      </trkpt>
      <trkpt lat="45.671476945281029" lon="6.979946130886674">
        <ele>2412.9099999999999</ele>
        <time>2020-07-26T11:54:47Z</time>
      </trkpt>
      <trkpt lat="45.671433107927442" lon="6.979886954650283">
        <ele>2412.9899999999998</ele>
        <time>2020-07-26T11:54:59Z</time>
      </trkpt>
      <trkpt lat="45.671420618891716" lon="6.979872537776828">
        <ele>2413.4899999999998</ele>
        <time>2020-07-26T11:55:01Z</time>
      </trkpt>
      <trkpt lat="45.671350378543139" lon="6.979758879169822">
        <ele>2414.4200000000001</ele>
        <time>2020-07-26T11:55:15Z</time>
      </trkpt>
      <trkpt lat="45.671338392421603" lon="6.979723339900374">
        <ele>2413.5700000000002</ele>
        <time>2020-07-26T11:55:31Z</time>
      </trkpt>
      <trkpt lat="45.671258429065347" lon="6.979650249704719">
        <ele>2412.6599999999999</ele>
        <time>2020-07-26T11:55:44Z</time>
      </trkpt>
      <trkpt lat="45.67123169079423" lon="6.979609346017242">
        <ele>2412.0900000000001</ele>
        <time>2020-07-26T11:55:48Z</time>
      </trkpt>
      <trkpt lat="45.671108141541481" lon="6.979479007422924">
        <ele>2408.9099999999999</ele>
        <time>2020-07-26T11:56:05Z</time>
      </trkpt>
      <trkpt lat="45.671070339158177" lon="6.979381274431944">
        <ele>2406.8400000000001</ele>
        <time>2020-07-26T11:56:16Z</time>
      </trkpt>
      <trkpt lat="45.671062795445323" lon="6.979355625808239">
        <ele>2406.0599999999999</ele>
        <time>2020-07-26T11:56:34Z</time>
      </trkpt>
      <trkpt lat="45.671045025810599" lon="6.979333162307739">
        <ele>2405.5</ele>
        <time>2020-07-26T11:56:38Z</time>
      </trkpt>
      <trkpt lat="45.671033877879381" lon="6.979296114295721">
        <ele>2403.8699999999999</ele>
        <time>2020-07-26T11:56:41Z</time>
      </trkpt>
      <trkpt lat="45.670898258686066" lon="6.979170888662338">
        <ele>2401.46</ele>
        <time>2020-07-26T11:56:57Z</time>
      </trkpt>
      <trkpt lat="45.670795915648341" lon="6.979145491495729">
        <ele>2399.2399999999998</ele>
        <time>2020-07-26T11:57:11Z</time>
      </trkpt>
      <trkpt lat="45.670780660584569" lon="6.979123782366514">
        <ele>2398.46</ele>
        <time>2020-07-26T11:57:27Z</time>
      </trkpt>
      <trkpt lat="45.670771189033985" lon="6.979118166491389">
        <ele>2398.6999999999998</ele>
        <time>2020-07-26T11:57:30Z</time>
      </trkpt>
      <trkpt lat="45.670744953677058" lon="6.979078939184547">
        <ele>2398.3400000000001</ele>
        <time>2020-07-26T11:57:33Z</time>
      </trkpt>
      <trkpt lat="45.670696422457695" lon="6.979005513712764">
        <ele>2399.3400000000001</ele>
        <time>2020-07-26T11:57:43Z</time>
      </trkpt>
      <trkpt lat="45.670680077746511" lon="6.978990845382214">
        <ele>2398.6799999999998</ele>
        <time>2020-07-26T11:57:45Z</time>
      </trkpt>
      <trkpt lat="45.670591229572892" lon="6.978842401877046">
        <ele>2397.3499999999999</ele>
        <time>2020-07-26T11:57:58Z</time>
      </trkpt>
      <trkpt lat="45.670545632019639" lon="6.978777693584561">
        <ele>2398.2600000000002</ele>
        <time>2020-07-26T11:58:11Z</time>
      </trkpt>
      <trkpt lat="45.670546889305115" lon="6.978767719119787">
        <ele>2398.2399999999998</ele>
        <time>2020-07-26T11:58:25Z</time>
      </trkpt>
      <trkpt lat="45.670550242066383" lon="6.97867845185101">
        <ele>2397.3400000000001</ele>
        <time>2020-07-26T11:58:36Z</time>
      </trkpt>
      <trkpt lat="45.670554852113128" lon="6.978645091876388">
        <ele>2396.3099999999999</ele>
        <time>2020-07-26T11:58:53Z</time>
      </trkpt>
      <trkpt lat="45.67055250518024" lon="6.978556578978896">
        <ele>2396.0300000000002</ele>
        <time>2020-07-26T11:59:00Z</time>
      </trkpt>
      <trkpt lat="45.670528700575233" lon="6.978400843217969">
        <ele>2396.0999999999999</ele>
        <time>2020-07-26T11:59:12Z</time>
      </trkpt>
      <trkpt lat="45.670511266216636" lon="6.978344516828656">
        <ele>2396.7399999999998</ele>
        <time>2020-07-26T11:59:22Z</time>
      </trkpt>
      <trkpt lat="45.670502716675401" lon="6.978311995044351">
        <ele>2396.3499999999999</ele>
        <time>2020-07-26T11:59:24Z</time>
      </trkpt>
      <trkpt lat="45.670450245961547" lon="6.978072943165898">
        <ele>2394</ele>
        <time>2020-07-26T11:59:38Z</time>
      </trkpt>
      <trkpt lat="45.67045041359961" lon="6.977908322587609">
        <ele>2393.52</ele>
        <time>2020-07-26T11:59:51Z</time>
      </trkpt>
      <trkpt lat="45.670457202941179" lon="6.977874208241701">
        <ele>2393.48</ele>
        <time>2020-07-26T11:59:56Z</time>
      </trkpt>
      <trkpt lat="45.670459298416972" lon="6.977759543806315">
        <ele>2393.5999999999999</ele>
        <time>2020-07-26T12:00:04Z</time>
      </trkpt>
      <trkpt lat="45.670433230698109" lon="6.977616967633367">
        <ele>2393.04</ele>
        <time>2020-07-26T12:00:16Z</time>
      </trkpt>
      <trkpt lat="45.67039861343801" lon="6.977397780865431">
        <ele>2393.1100000000001</ele>
        <time>2020-07-26T12:00:31Z</time>
      </trkpt>
      <trkpt lat="45.670483773574233" lon="6.977220922708511">
        <ele>2392.0300000000002</ele>
        <time>2020-07-26T12:00:45Z</time>
      </trkpt>
      <trkpt lat="45.670557534322143" lon="6.977097876369953">
        <ele>2392.4099999999999</ele>
        <time>2020-07-26T12:01:00Z</time>
      </trkpt>
      <trkpt lat="45.670541943982244" lon="6.977063678205013">
        <ele>2392.4699999999998</ele>
        <time>2020-07-26T12:01:11Z</time>
      </trkpt>
      <trkpt lat="45.670520989224315" lon="6.977056469768286">
        <ele>2391.9200000000001</ele>
        <time>2020-07-26T12:01:26Z</time>
      </trkpt>
      <trkpt lat="45.670448150485754" lon="6.977024450898171">
        <ele>2392.04</ele>
        <time>2020-07-26T12:01:37Z</time>
      </trkpt>
      <trkpt lat="45.670385034754872" lon="6.976983547210693">
        <ele>2393.5500000000002</ele>
        <time>2020-07-26T12:01:48Z</time>
      </trkpt>
      <trkpt lat="45.670361900702119" lon="6.976966951042414">
        <ele>2394.1100000000001</ele>
        <time>2020-07-26T12:01:52Z</time>
      </trkpt>
      <trkpt lat="45.670335497707129" lon="6.97692571207881">
        <ele>2394.1799999999998</ele>
        <time>2020-07-26T12:02:03Z</time>
      </trkpt>
      <trkpt lat="45.670324852690101" lon="6.976931914687157">
        <ele>2394.1700000000001</ele>
        <time>2020-07-26T12:02:17Z</time>
      </trkpt>
      <trkpt lat="45.670318985357881" lon="6.976933758705854">
        <ele>2393.29</ele>
        <time>2020-07-26T12:02:24Z</time>
      </trkpt>
      <trkpt lat="45.670317728072405" lon="6.976924538612366">
        <ele>2392.8299999999999</ele>
        <time>2020-07-26T12:02:51Z</time>
      </trkpt>
      <trkpt lat="45.670320829376578" lon="6.97693451307714">
        <ele>2392.6100000000001</ele>
        <time>2020-07-26T12:03:07Z</time>
      </trkpt>
      <trkpt lat="45.670312279835343" lon="6.976933088153601">
        <ele>2391.3299999999999</ele>
        <time>2020-07-26T12:04:13Z</time>
      </trkpt>
      <trkpt lat="45.670316051691771" lon="6.976927137002349">
        <ele>2394.1100000000001</ele>
        <time>2020-07-26T12:05:22Z</time>
      </trkpt>
      <trkpt lat="45.670325271785259" lon="6.976912636309862">
        <ele>2393.52</ele>
        <time>2020-07-26T12:05:31Z</time>
      </trkpt>
      <trkpt lat="45.670330133289099" lon="6.976909032091498">
        <ele>2393.29</ele>
        <time>2020-07-26T12:05:45Z</time>
      </trkpt>
      <trkpt lat="45.670330384746194" lon="6.976916072890163">
        <ele>2393.3000000000002</ele>
        <time>2020-07-26T12:05:57Z</time>
      </trkpt>
      <trkpt lat="45.670333066955209" lon="6.976927556097508">
        <ele>2393.3600000000001</ele>
        <time>2020-07-26T12:06:07Z</time>
      </trkpt>
      <trkpt lat="45.670347483828664" lon="6.976904422044754">
        <ele>2392.77</ele>
        <time>2020-07-26T12:06:19Z</time>
      </trkpt>
      <trkpt lat="45.670380759984255" lon="6.976856645196676">
        <ele>2392.02</ele>
        <time>2020-07-26T12:06:23Z</time>
      </trkpt>
      <trkpt lat="45.670452425256371" lon="6.976734353229404">
        <ele>2390.9400000000001</ele>
        <time>2020-07-26T12:06:38Z</time>
      </trkpt>
      <trkpt lat="45.670535070821643" lon="6.976646929979324">
        <ele>2390.23</ele>
        <time>2020-07-26T12:06:51Z</time>
      </trkpt>
      <trkpt lat="45.670547308400273" lon="6.976624969393015">
        <ele>2390</ele>
        <time>2020-07-26T12:06:53Z</time>
      </trkpt>
      <trkpt lat="45.670581506565213" lon="6.976571660488844">
        <ele>2389.52</ele>
        <time>2020-07-26T12:06:58Z</time>
      </trkpt>
      <trkpt lat="45.670639257878065" lon="6.976378373801708">
        <ele>2388.1399999999999</ele>
        <time>2020-07-26T12:07:12Z</time>
      </trkpt>
      <trkpt lat="45.670651663094759" lon="6.976122558116913">
        <ele>2387.2399999999998</ele>
        <time>2020-07-26T12:07:27Z</time>
      </trkpt>
      <trkpt lat="45.670605059713125" lon="6.975824246183038">
        <ele>2387.3600000000001</ele>
        <time>2020-07-26T12:07:45Z</time>
      </trkpt>
      <trkpt lat="45.670607490465045" lon="6.975701116025448">
        <ele>2387.2800000000002</ele>
        <time>2020-07-26T12:07:57Z</time>
      </trkpt>
      <trkpt lat="45.670605646446347" lon="6.975650573149324">
        <ele>2387.0700000000002</ele>
        <time>2020-07-26T12:08:01Z</time>
      </trkpt>
      <trkpt lat="45.670548565685749" lon="6.97545007802546">
        <ele>2387.1599999999999</ele>
        <time>2020-07-26T12:08:16Z</time>
      </trkpt>
      <trkpt lat="45.670486371964216" lon="6.975355697795749">
        <ele>2387.7199999999998</ele>
        <time>2020-07-26T12:08:26Z</time>
      </trkpt>
      <trkpt lat="45.670455526560545" lon="6.975307669490576">
        <ele>2387.2800000000002</ele>
        <time>2020-07-26T12:08:31Z</time>
      </trkpt>
      <trkpt lat="45.670367181301117" lon="6.975136427208781">
        <ele>2387.6500000000001</ele>
        <time>2020-07-26T12:08:46Z</time>
      </trkpt>
      <trkpt lat="45.670355362817645" lon="6.975131565704942">
        <ele>2387.9400000000001</ele>
        <time>2020-07-26T12:09:02Z</time>
      </trkpt>
      <trkpt lat="45.670348322018981" lon="6.975127458572388">
        <ele>2387.9299999999998</ele>
        <time>2020-07-26T12:09:03Z</time>
      </trkpt>
      <trkpt lat="45.670248828828335" lon="6.974914474412799">
        <ele>2387.4000000000001</ele>
        <time>2020-07-26T12:09:20Z</time>
      </trkpt>
      <trkpt lat="45.670173140242696" lon="6.974765779450536">
        <ele>2388.0500000000002</ele>
        <time>2020-07-26T12:09:35Z</time>
      </trkpt>
      <trkpt lat="45.670143384486437" lon="6.974687492474914">
        <ele>2389.9499999999998</ele>
        <time>2020-07-26T12:09:47Z</time>
      </trkpt>
      <trkpt lat="45.67006878554821" lon="6.974562015384436">
        <ele>2390.2199999999998</ele>
        <time>2020-07-26T12:10:00Z</time>
      </trkpt>
      <trkpt lat="45.669997707009315" lon="6.974450787529349">
        <ele>2391.4499999999998</ele>
        <time>2020-07-26T12:10:13Z</time>
      </trkpt>
      <trkpt lat="45.669997204095125" lon="6.97445766068995">
        <ele>2390.3699999999999</ele>
        <time>2020-07-26T12:10:33Z</time>
      </trkpt>
      <trkpt lat="45.669981613755226" lon="6.974483812227845">
        <ele>2389.8499999999999</ele>
        <time>2020-07-26T12:10:51Z</time>
      </trkpt>
      <trkpt lat="45.669931909069419" lon="6.974514657631517">
        <ele>2389.5799999999999</ele>
        <time>2020-07-26T12:11:03Z</time>
      </trkpt>
      <trkpt lat="45.669910535216331" lon="6.974499151110649">
        <ele>2388.52</ele>
        <time>2020-07-26T12:11:19Z</time>
      </trkpt>
      <trkpt lat="45.669907685369253" lon="6.974475095048547">
        <ele>2387.6399999999999</ele>
        <time>2020-07-26T12:11:30Z</time>
      </trkpt>
      <trkpt lat="45.66989092156291" lon="6.974370237439871">
        <ele>2387.29</ele>
        <time>2020-07-26T12:11:42Z</time>
      </trkpt>
      <trkpt lat="45.669886311516166" lon="6.974334698170424">
        <ele>2387.1599999999999</ele>
        <time>2020-07-26T12:11:45Z</time>
      </trkpt>
      <trkpt lat="45.669877342879772" lon="6.974284490570426">
        <ele>2387.0599999999999</ele>
        <time>2020-07-26T12:11:49Z</time>
      </trkpt>
      <trkpt lat="45.669824788346887" lon="6.974216848611832">
        <ele>2385.8699999999999</ele>
        <time>2020-07-26T12:11:58Z</time>
      </trkpt>
      <trkpt lat="45.669778184965253" lon="6.974075613543391">
        <ele>2386.2800000000002</ele>
        <time>2020-07-26T12:12:10Z</time>
      </trkpt>
      <trkpt lat="45.669674417003989" lon="6.973946029320359">
        <ele>2385.0900000000001</ele>
        <time>2020-07-26T12:12:23Z</time>
      </trkpt>
      <trkpt lat="45.669643403962255" lon="6.973902443423867">
        <ele>2383.98</ele>
        <time>2020-07-26T12:12:27Z</time>
      </trkpt>
      <trkpt lat="45.669531086459756" lon="6.973849888890982">
        <ele>2382.8000000000002</ele>
        <time>2020-07-26T12:12:39Z</time>
      </trkpt>
      <trkpt lat="45.669406112283468" lon="6.973727261647582">
        <ele>2383.52</ele>
        <time>2020-07-26T12:12:53Z</time>
      </trkpt>
      <trkpt lat="45.669273007661104" lon="6.973631037399173">
        <ele>2384.1399999999999</ele>
        <time>2020-07-26T12:13:07Z</time>
      </trkpt>
      <trkpt lat="45.669177873060107" lon="6.97356347925961">
        <ele>2385.7199999999998</ele>
        <time>2020-07-26T12:13:18Z</time>
      </trkpt>
      <trkpt lat="45.669139316305518" lon="6.973541853949428">
        <ele>2386.6900000000001</ele>
        <time>2020-07-26T12:13:30Z</time>
      </trkpt>
      <trkpt lat="45.669131437316537" lon="6.973521821200848">
        <ele>2384.7399999999998</ele>
        <time>2020-07-26T12:13:38Z</time>
      </trkpt>
      <trkpt lat="45.669114589691162" lon="6.973502710461617">
        <ele>2383.96</ele>
        <time>2020-07-26T12:13:40Z</time>
      </trkpt>
      <trkpt lat="45.669106375426054" lon="6.973492400720716">
        <ele>2383.75</ele>
        <time>2020-07-26T12:13:41Z</time>
      </trkpt>
      <trkpt lat="45.669026160612702" lon="6.973366672173142">
        <ele>2384.5999999999999</ele>
        <time>2020-07-26T12:13:54Z</time>
      </trkpt>
      <trkpt lat="45.668977042660117" lon="6.973261814564467">
        <ele>2384.8899999999999</ele>
        <time>2020-07-26T12:14:07Z</time>
      </trkpt>
      <trkpt lat="45.668896157294512" lon="6.973206829279661">
        <ele>2383.1199999999999</ele>
        <time>2020-07-26T12:14:19Z</time>
      </trkpt>
      <trkpt lat="45.668892301619053" lon="6.973195597529411">
        <ele>2383.3099999999999</ele>
        <time>2020-07-26T12:14:31Z</time>
      </trkpt>
      <trkpt lat="45.668811751529574" lon="6.97310758754611">
        <ele>2382.1199999999999</ele>
        <time>2020-07-26T12:14:45Z</time>
      </trkpt>
      <trkpt lat="45.668747294694185" lon="6.973047154024243">
        <ele>2381.3800000000001</ele>
        <time>2020-07-26T12:14:59Z</time>
      </trkpt>
      <trkpt lat="45.66868694499135" lon="6.973002981394529">
        <ele>2378.79</ele>
        <time>2020-07-26T12:15:12Z</time>
      </trkpt>
      <trkpt lat="45.668599102646112" lon="6.972912289202213">
        <ele>2375.29</ele>
        <time>2020-07-26T12:15:25Z</time>
      </trkpt>
      <trkpt lat="45.668464405462146" lon="6.972755715250969">
        <ele>2372.6199999999999</ele>
        <time>2020-07-26T12:15:43Z</time>
      </trkpt>
      <trkpt lat="45.668427525088191" lon="6.972719086334109">
        <ele>2371.6999999999998</ele>
        <time>2020-07-26T12:15:50Z</time>
      </trkpt>
      <trkpt lat="45.668366588652134" lon="6.972616827115417">
        <ele>2369.7399999999998</ele>
        <time>2020-07-26T12:16:02Z</time>
      </trkpt>
      <trkpt lat="45.668345214799047" lon="6.972593860700727">
        <ele>2368.5100000000002</ele>
        <time>2020-07-26T12:16:07Z</time>
      </trkpt>
      <trkpt lat="45.668309088796377" lon="6.972448015585542">
        <ele>2368.6500000000001</ele>
        <time>2020-07-26T12:16:21Z</time>
      </trkpt>
      <trkpt lat="45.668288972228765" lon="6.972377188503742">
        <ele>2369.9499999999998</ele>
        <time>2020-07-26T12:16:28Z</time>
      </trkpt>
      <trkpt lat="45.668225772678852" lon="6.972274761646986">
        <ele>2369.1999999999998</ele>
        <time>2020-07-26T12:16:39Z</time>
      </trkpt>
      <trkpt lat="45.668206745758653" lon="6.972146518528462">
        <ele>2367.5999999999999</ele>
        <time>2020-07-26T12:16:50Z</time>
      </trkpt>
      <trkpt lat="45.668185539543629" lon="6.972088599577546">
        <ele>2363.9499999999998</ele>
        <time>2020-07-26T12:16:57Z</time>
      </trkpt>
      <trkpt lat="45.66818411462009" lon="6.972077703103423">
        <ele>2363.6999999999998</ele>
        <time>2020-07-26T12:16:58Z</time>
      </trkpt>
      <trkpt lat="45.668166847899556" lon="6.972030764445663">
        <ele>2363.2399999999998</ele>
        <time>2020-07-26T12:17:08Z</time>
      </trkpt>
      <trkpt lat="45.668162321671844" lon="6.972020789980888">
        <ele>2363.0799999999999</ele>
        <time>2020-07-26T12:17:18Z</time>
      </trkpt>
      <trkpt lat="45.668207164853811" lon="6.971918949857354">
        <ele>2362.48</ele>
        <time>2020-07-26T12:17:28Z</time>
      </trkpt>
      <trkpt lat="45.668194340541959" lon="6.971768829971552">
        <ele>2360.4000000000001</ele>
        <time>2020-07-26T12:17:41Z</time>
      </trkpt>
      <trkpt lat="45.668212026357651" lon="6.971671767532826">
        <ele>2358.5799999999999</ele>
        <time>2020-07-26T12:17:51Z</time>
      </trkpt>
      <trkpt lat="45.668243458494544" lon="6.971610160544515">
        <ele>2357.0300000000002</ele>
        <time>2020-07-26T12:17:58Z</time>
      </trkpt>
      <trkpt lat="45.668267766013741" lon="6.971452161669731">
        <ele>2354.4400000000001</ele>
        <time>2020-07-26T12:18:11Z</time>
      </trkpt>
      <trkpt lat="45.668264664709568" lon="6.971356691792607">
        <ele>2353.2800000000002</ele>
        <time>2020-07-26T12:18:24Z</time>
      </trkpt>
      <trkpt lat="45.668252510949969" lon="6.971262479200959">
        <ele>2350.5500000000002</ele>
        <time>2020-07-26T12:18:34Z</time>
      </trkpt>
      <trkpt lat="45.668271454051137" lon="6.971103474497795">
        <ele>2348.9899999999998</ele>
        <time>2020-07-26T12:18:46Z</time>
      </trkpt>
      <trkpt lat="45.668282015249133" lon="6.970989061519504">
        <ele>2349.27</ele>
        <time>2020-07-26T12:19:00Z</time>
      </trkpt>
      <trkpt lat="45.668317889794707" lon="6.970934076234698">
        <ele>2346.48</ele>
        <time>2020-07-26T12:19:11Z</time>
      </trkpt>
      <trkpt lat="45.668355943635106" lon="6.970870373770595">
        <ele>2343.54</ele>
        <time>2020-07-26T12:19:23Z</time>
      </trkpt>
      <trkpt lat="45.668394668027759" lon="6.970907002687454">
        <ele>2341.73</ele>
        <time>2020-07-26T12:19:34Z</time>
      </trkpt>
      <trkpt lat="45.66843087784946" lon="6.970889233052731">
        <ele>2339.8600000000001</ele>
        <time>2020-07-26T12:19:43Z</time>
      </trkpt>
      <trkpt lat="45.668423166498542" lon="6.970815220847726">
        <ele>2336.8400000000001</ele>
        <time>2020-07-26T12:19:54Z</time>
      </trkpt>
      <trkpt lat="45.668470105156302" lon="6.970759145915508">
        <ele>2333.6999999999998</ele>
        <time>2020-07-26T12:20:07Z</time>
      </trkpt>
      <trkpt lat="45.668493323028088" lon="6.970715140923858">
        <ele>2330.29</ele>
        <time>2020-07-26T12:20:17Z</time>
      </trkpt>
      <trkpt lat="45.668533472344279" lon="6.970653953030706">
        <ele>2327.2199999999998</ele>
        <time>2020-07-26T12:20:29Z</time>
      </trkpt>
      <trkpt lat="45.668578147888184" lon="6.970615899190307">
        <ele>2324.52</ele>
        <time>2020-07-26T12:20:39Z</time>
      </trkpt>
      <trkpt lat="45.668599102646112" lon="6.970527470111847">
        <ele>2322.1300000000001</ele>
        <time>2020-07-26T12:20:50Z</time>
      </trkpt>
      <trkpt lat="45.66862290725112" lon="6.970439124852419">
        <ele>2320.4400000000001</ele>
        <time>2020-07-26T12:21:00Z</time>
      </trkpt>
      <trkpt lat="45.668622571974993" lon="6.970395119860768">
        <ele>2319.21</ele>
        <time>2020-07-26T12:21:13Z</time>
      </trkpt>
      <trkpt lat="45.668624667450786" lon="6.970347845926881">
        <ele>2318.21</ele>
        <time>2020-07-26T12:21:27Z</time>
      </trkpt>
      <trkpt lat="45.66863707266748" lon="6.970331836491823">
        <ele>2317.6599999999999</ele>
        <time>2020-07-26T12:21:44Z</time>
      </trkpt>
      <trkpt lat="45.668645370751619" lon="6.970321191474795">
        <ele>2316.5599999999999</ele>
        <time>2020-07-26T12:21:55Z</time>
      </trkpt>
      <trkpt lat="45.668647047132254" lon="6.970310378819704">
        <ele>2315.9200000000001</ele>
        <time>2020-07-26T12:22:09Z</time>
      </trkpt>
      <trkpt lat="45.668673450127244" lon="6.970297722145915">
        <ele>2314.48</ele>
        <time>2020-07-26T12:22:23Z</time>
      </trkpt>
      <trkpt lat="45.668708151206374" lon="6.970318173989654">
        <ele>2313.1100000000001</ele>
        <time>2020-07-26T12:22:35Z</time>
      </trkpt>
      <trkpt lat="45.668714605271816" lon="6.970318257808685">
        <ele>2312.9200000000001</ele>
        <time>2020-07-26T12:22:36Z</time>
      </trkpt>
      <trkpt lat="45.668755760416389" lon="6.970396293327212">
        <ele>2311.8600000000001</ele>
        <time>2020-07-26T12:22:47Z</time>
      </trkpt>
      <trkpt lat="45.668753916397691" lon="6.970425546169281">
        <ele>2310.5799999999999</ele>
        <time>2020-07-26T12:22:59Z</time>
      </trkpt>
      <trkpt lat="45.668806219473481" lon="6.97053006850183">
        <ele>2308.4899999999998</ele>
        <time>2020-07-26T12:23:11Z</time>
      </trkpt>
      <trkpt lat="45.668855588883162" lon="6.970585472881794">
        <ele>2305.7199999999998</ele>
        <time>2020-07-26T12:23:24Z</time>
      </trkpt>
      <trkpt lat="45.668903449550271" lon="6.970593184232712">
        <ele>2302.6500000000001</ele>
        <time>2020-07-26T12:23:34Z</time>
      </trkpt>
      <trkpt lat="45.668934462592006" lon="6.970536857843399">
        <ele>2300.0599999999999</ele>
        <time>2020-07-26T12:23:47Z</time>
      </trkpt>
      <trkpt lat="45.668966984376311" lon="6.9704694673419">
        <ele>2297.6399999999999</ele>
        <time>2020-07-26T12:23:58Z</time>
      </trkpt>
      <trkpt lat="45.669012581929564" lon="6.970498887822032">
        <ele>2295.6100000000001</ele>
        <time>2020-07-26T12:24:09Z</time>
      </trkpt>
      <trkpt lat="45.669044181704521" lon="6.970504587516189">
        <ele>2294.04</ele>
        <time>2020-07-26T12:24:22Z</time>
      </trkpt>
      <trkpt lat="45.669086594134569" lon="6.970499977469444">
        <ele>2292.23</ele>
        <time>2020-07-26T12:24:35Z</time>
      </trkpt>
      <trkpt lat="45.669086761772633" lon="6.970510371029377">
        <ele>2291.2800000000002</ele>
        <time>2020-07-26T12:24:37Z</time>
      </trkpt>
      <trkpt lat="45.669123139232397" lon="6.970519423484802">
        <ele>2288.9699999999998</ele>
        <time>2020-07-26T12:24:49Z</time>
      </trkpt>
      <trkpt lat="45.669150045141578" lon="6.970521518960595">
        <ele>2287.71</ele>
        <time>2020-07-26T12:25:01Z</time>
      </trkpt>
      <trkpt lat="45.669167898595333" lon="6.970540294423699">
        <ele>2286.7600000000002</ele>
        <time>2020-07-26T12:25:11Z</time>
      </trkpt>
      <trkpt lat="45.669178627431393" lon="6.970543311908841">
        <ele>2286.21</ele>
        <time>2020-07-26T12:25:23Z</time>
      </trkpt>
      <trkpt lat="45.669198073446751" lon="6.970559488981962">
        <ele>2284.4499999999998</ele>
        <time>2020-07-26T12:25:33Z</time>
      </trkpt>
      <trkpt lat="45.669214837253094" lon="6.970562757924199">
        <ele>2283.9499999999998</ele>
        <time>2020-07-26T12:25:46Z</time>
      </trkpt>
      <trkpt lat="45.669232271611691" lon="6.970562841743231">
        <ele>2283.02</ele>
        <time>2020-07-26T12:25:56Z</time>
      </trkpt>
      <trkpt lat="45.669259931892157" lon="6.97049293667078">
        <ele>2280.5</ele>
        <time>2020-07-26T12:26:07Z</time>
      </trkpt>
      <trkpt lat="45.669297482818365" lon="6.970438286662102">
        <ele>2277.6199999999999</ele>
        <time>2020-07-26T12:26:17Z</time>
      </trkpt>
      <trkpt lat="45.66932656802237" lon="6.97039277292788">
        <ele>2275.5900000000001</ele>
        <time>2020-07-26T12:26:26Z</time>
      </trkpt>
      <trkpt lat="45.669377446174622" lon="6.970335189253092">
        <ele>2273.5700000000002</ele>
        <time>2020-07-26T12:26:37Z</time>
      </trkpt>
      <trkpt lat="45.669403932988644" lon="6.970302332192659">
        <ele>2273.8600000000001</ele>
        <time>2020-07-26T12:26:46Z</time>
      </trkpt>
      <trkpt lat="45.669397730380297" lon="6.970296632498503">
        <ele>2273.27</ele>
        <time>2020-07-26T12:27:09Z</time>
      </trkpt>
      <trkpt lat="45.669402256608009" lon="6.970354048535228">
        <ele>2273</ele>
        <time>2020-07-26T12:27:32Z</time>
      </trkpt>
      <trkpt lat="45.669435113668442" lon="6.97038589976728">
        <ele>2270.98</ele>
        <time>2020-07-26T12:27:43Z</time>
      </trkpt>
      <trkpt lat="45.669459756463766" lon="6.970387743785977">
        <ele>2269.04</ele>
        <time>2020-07-26T12:27:50Z</time>
      </trkpt>
      <trkpt lat="45.669531505554914" lon="6.970394784584642">
        <ele>2266.4499999999998</ele>
        <time>2020-07-26T12:28:01Z</time>
      </trkpt>
      <trkpt lat="45.669588502496481" lon="6.970368633046746">
        <ele>2264.5500000000002</ele>
        <time>2020-07-26T12:28:13Z</time>
      </trkpt>
      <trkpt lat="45.669593447819352" lon="6.970374332740903">
        <ele>2264.5</ele>
        <time>2020-07-26T12:28:15Z</time>
      </trkpt>
      <trkpt lat="45.669584814459085" lon="6.970370057970285">
        <ele>2262.8800000000001</ele>
        <time>2020-07-26T12:28:18Z</time>
      </trkpt>
      <trkpt lat="45.669577019289136" lon="6.970369052141905">
        <ele>2263.0700000000002</ele>
        <time>2020-07-26T12:28:43Z</time>
      </trkpt>
      <trkpt lat="45.669586323201656" lon="6.970371063798666">
        <ele>2264.0100000000002</ele>
        <time>2020-07-26T12:28:55Z</time>
      </trkpt>
      <trkpt lat="45.669590514153242" lon="6.970369303599">
        <ele>2263.8600000000001</ele>
        <time>2020-07-26T12:29:07Z</time>
      </trkpt>
      <trkpt lat="45.669611049816012" lon="6.970372069627047">
        <ele>2262.79</ele>
        <time>2020-07-26T12:29:21Z</time>
      </trkpt>
      <trkpt lat="45.669648852199316" lon="6.970303924754262">
        <ele>2260.8400000000001</ele>
        <time>2020-07-26T12:29:31Z</time>
      </trkpt>
      <trkpt lat="45.669699059799314" lon="6.970291435718536">
        <ele>2258.8400000000001</ele>
        <time>2020-07-26T12:29:40Z</time>
      </trkpt>
      <trkpt lat="45.669743567705154" lon="6.970232594758272">
        <ele>2256.3400000000001</ele>
        <time>2020-07-26T12:29:51Z</time>
      </trkpt>
      <trkpt lat="45.669805509969592" lon="6.970177106559277">
        <ele>2253.4400000000001</ele>
        <time>2020-07-26T12:30:01Z</time>
      </trkpt>
      <trkpt lat="45.669838283210993" lon="6.970078619197011">
        <ele>2251.75</ele>
        <time>2020-07-26T12:30:13Z</time>
      </trkpt>
      <trkpt lat="45.669825375080109" lon="6.969998655840755">
        <ele>2250.6900000000001</ele>
        <time>2020-07-26T12:30:24Z</time>
      </trkpt>
      <trkpt lat="45.669803414493799" lon="6.969930427148938">
        <ele>2249.7199999999998</ele>
        <time>2020-07-26T12:30:37Z</time>
      </trkpt>
      <trkpt lat="45.669782962650061" lon="6.969920201227069">
        <ele>2249.0100000000002</ele>
        <time>2020-07-26T12:30:47Z</time>
      </trkpt>
      <trkpt lat="45.669781621545553" lon="6.969829006120563">
        <ele>2247.5300000000002</ele>
        <time>2020-07-26T12:31:00Z</time>
      </trkpt>
      <trkpt lat="45.669780531898141" lon="6.969880471006036">
        <ele>2248.0999999999999</ele>
        <time>2020-07-26T12:31:09Z</time>
      </trkpt>
      <trkpt lat="45.669820932671428" lon="6.969976611435413">
        <ele>2250.04</ele>
        <time>2020-07-26T12:31:20Z</time>
      </trkpt>
      <trkpt lat="45.669867284595966" lon="6.970034781843424">
        <ele>2249.6999999999998</ele>
        <time>2020-07-26T12:31:32Z</time>
      </trkpt>
      <trkpt lat="45.669946996495128" lon="6.970032937824726">
        <ele>2247.8699999999999</ele>
        <time>2020-07-26T12:31:45Z</time>
      </trkpt>
      <trkpt lat="45.670019332319498" lon="6.970022711902857">
        <ele>2246.1700000000001</ele>
        <time>2020-07-26T12:31:57Z</time>
      </trkpt>
      <trkpt lat="45.670049088075757" lon="6.970030590891838">
        <ele>2243.6900000000001</ele>
        <time>2020-07-26T12:32:07Z</time>
      </trkpt>
      <trkpt lat="45.670113964006305" lon="6.97005414403975">
        <ele>2240.79</ele>
        <time>2020-07-26T12:32:20Z</time>
      </trkpt>
      <trkpt lat="45.670155622065067" lon="6.970023047178984">
        <ele>2238.77</ele>
        <time>2020-07-26T12:32:30Z</time>
      </trkpt>
      <trkpt lat="45.670168362557888" lon="6.970009049400687">
        <ele>2237.8099999999999</ele>
        <time>2020-07-26T12:32:34Z</time>
      </trkpt>
      <trkpt lat="45.670207338407636" lon="6.969982730224729">
        <ele>2235.2199999999998</ele>
        <time>2020-07-26T12:32:41Z</time>
      </trkpt>
      <trkpt lat="45.670311441645026" lon="6.969966217875481">
        <ele>2232.9400000000001</ele>
        <time>2020-07-26T12:32:54Z</time>
      </trkpt>
      <trkpt lat="45.670362403616309" lon="6.969933863729239">
        <ele>2229.7800000000002</ele>
        <time>2020-07-26T12:33:05Z</time>
      </trkpt>
      <trkpt lat="45.670364331454039" lon="6.969862869009376">
        <ele>2228.0799999999999</ele>
        <time>2020-07-26T12:33:16Z</time>
      </trkpt>
      <trkpt lat="45.670391153544188" lon="6.969837807118893">
        <ele>2225.3000000000002</ele>
        <time>2020-07-26T12:33:24Z</time>
      </trkpt>
      <trkpt lat="45.670400792732835" lon="6.969771506264806">
        <ele>2222.1399999999999</ele>
        <time>2020-07-26T12:33:32Z</time>
      </trkpt>
      <trkpt lat="45.670442031696439" lon="6.969688357785344">
        <ele>2221.3299999999999</ele>
        <time>2020-07-26T12:33:46Z</time>
      </trkpt>
      <trkpt lat="45.670469608157873" lon="6.96963831782341">
        <ele>2218.0999999999999</ele>
        <time>2020-07-26T12:33:56Z</time>
      </trkpt>
      <trkpt lat="45.670479917898774" lon="6.969582410529256">
        <ele>2216.4000000000001</ele>
        <time>2020-07-26T12:34:06Z</time>
      </trkpt>
      <trkpt lat="45.670526772737503" lon="6.969513511285186">
        <ele>2213.8299999999999</ele>
        <time>2020-07-26T12:34:17Z</time>
      </trkpt>
      <trkpt lat="45.670605562627316" lon="6.969529185444117">
        <ele>2210.54</ele>
        <time>2020-07-26T12:34:29Z</time>
      </trkpt>
      <trkpt lat="45.670657446607947" lon="6.969509487971664">
        <ele>2209.23</ele>
        <time>2020-07-26T12:34:39Z</time>
      </trkpt>
      <trkpt lat="45.670693572610617" lon="6.969509487971664">
        <ele>2207.0700000000002</ele>
        <time>2020-07-26T12:34:50Z</time>
      </trkpt>
      <trkpt lat="45.670727184042335" lon="6.969478894025087">
        <ele>2204.1599999999999</ele>
        <time>2020-07-26T12:34:59Z</time>
      </trkpt>
      <trkpt lat="45.670768842101097" lon="6.969426171854138">
        <ele>2201.4000000000001</ele>
        <time>2020-07-26T12:35:11Z</time>
      </trkpt>
      <trkpt lat="45.67079876549542" lon="6.969487778842449">
        <ele>2199.2600000000002</ele>
        <time>2020-07-26T12:35:23Z</time>
      </trkpt>
      <trkpt lat="45.670862635597587" lon="6.96950295008719">
        <ele>2196.1599999999999</ele>
        <time>2020-07-26T12:35:35Z</time>
      </trkpt>
      <trkpt lat="45.670938910916448" lon="6.969536980614066">
        <ele>2193.8200000000002</ele>
        <time>2020-07-26T12:35:46Z</time>
      </trkpt>
      <trkpt lat="45.671006385236979" lon="6.969522396102548">
        <ele>2190.7600000000002</ele>
        <time>2020-07-26T12:35:59Z</time>
      </trkpt>
      <trkpt lat="45.671089868992567" lon="6.969533124938607">
        <ele>2188.1399999999999</ele>
        <time>2020-07-26T12:36:12Z</time>
      </trkpt>
      <trkpt lat="45.671152984723449" lon="6.969559695571661">
        <ele>2185.1199999999999</ele>
        <time>2020-07-26T12:36:23Z</time>
      </trkpt>
      <trkpt lat="45.671191290020943" lon="6.969531532377005">
        <ele>2182.8699999999999</ele>
        <time>2020-07-26T12:36:33Z</time>
      </trkpt>
      <trkpt lat="45.6712849996984" lon="6.969526335597038">
        <ele>2179.9299999999998</ele>
        <time>2020-07-26T12:36:46Z</time>
      </trkpt>
      <trkpt lat="45.671361861750484" lon="6.969527425244451">
        <ele>2177.1199999999999</ele>
        <time>2020-07-26T12:36:58Z</time>
      </trkpt>
      <trkpt lat="45.671442914754152" lon="6.969493143260479">
        <ele>2174.6500000000001</ele>
        <time>2020-07-26T12:37:10Z</time>
      </trkpt>
      <trkpt lat="45.671556405723095" lon="6.969481743872166">
        <ele>2171.77</ele>
        <time>2020-07-26T12:37:22Z</time>
      </trkpt>
      <trkpt lat="45.671602338552475" lon="6.969470260664821">
        <ele>2170.9899999999998</ele>
        <time>2020-07-26T12:37:28Z</time>
      </trkpt>
      <trkpt lat="45.67162312567234" lon="6.969434805214405">
        <ele>2170.5900000000001</ele>
        <time>2020-07-26T12:37:31Z</time>
      </trkpt>
      <trkpt lat="45.671743657439947" lon="6.969452742487192">
        <ele>2168.3499999999999</ele>
        <time>2020-07-26T12:37:44Z</time>
      </trkpt>
      <trkpt lat="45.671762600541115" lon="6.96946338750422">
        <ele>2167.4299999999998</ele>
        <time>2020-07-26T12:37:56Z</time>
      </trkpt>
      <trkpt lat="45.671757739037275" lon="6.969468081369996">
        <ele>2166.9000000000001</ele>
        <time>2020-07-26T12:38:14Z</time>
      </trkpt>
      <trkpt lat="45.671880282461643" lon="6.969451485201716">
        <ele>2164.8800000000001</ele>
        <time>2020-07-26T12:38:27Z</time>
      </trkpt>
      <trkpt lat="45.671999892219901" lon="6.969409408047795">
        <ele>2161.6500000000001</ele>
        <time>2020-07-26T12:38:39Z</time>
      </trkpt>
      <trkpt lat="45.672022942453623" lon="6.969397086650133">
        <ele>2161.04</ele>
        <time>2020-07-26T12:38:41Z</time>
      </trkpt>
      <trkpt lat="45.672170296311378" lon="6.9693089928478">
        <ele>2160.3000000000002</ele>
        <time>2020-07-26T12:38:55Z</time>
      </trkpt>
      <trkpt lat="45.672239949926734" lon="6.969274962320924">
        <ele>2160.1599999999999</ele>
        <time>2020-07-26T12:39:08Z</time>
      </trkpt>
      <trkpt lat="45.672240704298019" lon="6.969280829653144">
        <ele>2160.3400000000001</ele>
        <time>2020-07-26T12:39:23Z</time>
      </trkpt>
      <trkpt lat="45.672246403992176" lon="6.969286696985364">
        <ele>2160.25</ele>
        <time>2020-07-26T12:39:40Z</time>
      </trkpt>
      <trkpt lat="45.67224120721221" lon="6.969282757490873">
        <ele>2159.0799999999999</ele>
        <time>2020-07-26T12:39:54Z</time>
      </trkpt>
      <trkpt lat="45.672247242182493" lon="6.969282422214747">
        <ele>2159.9099999999999</ele>
        <time>2020-07-26T12:40:02Z</time>
      </trkpt>
      <trkpt lat="45.672247158363461" lon="6.969275800511241">
        <ele>2159.7800000000002</ele>
        <time>2020-07-26T12:40:18Z</time>
      </trkpt>
      <trkpt lat="45.672247409820557" lon="6.969278315082192">
        <ele>2159.54</ele>
        <time>2020-07-26T12:40:37Z</time>
      </trkpt>
      <trkpt lat="45.672249589115381" lon="6.969280829653144">
        <ele>2158.98</ele>
        <time>2020-07-26T12:40:55Z</time>
      </trkpt>
      <trkpt lat="45.672244476154447" lon="6.969287032261491">
        <ele>2158.9000000000001</ele>
        <time>2020-07-26T12:41:11Z</time>
      </trkpt>
      <trkpt lat="45.672248415648937" lon="6.969278985634446">
        <ele>2158.3099999999999</ele>
        <time>2020-07-26T12:41:28Z</time>
      </trkpt>
      <trkpt lat="45.672248834744096" lon="6.96927035227418">
        <ele>2158.1700000000001</ele>
        <time>2020-07-26T12:41:29Z</time>
      </trkpt>
      <trkpt lat="45.672246403992176" lon="6.969222659245133">
        <ele>2159.0700000000002</ele>
        <time>2020-07-26T12:41:41Z</time>
      </trkpt>
      <trkpt lat="45.672251181676984" lon="6.969223832711577">
        <ele>2160.1300000000001</ele>
        <time>2020-07-26T12:41:54Z</time>
      </trkpt>
      <trkpt lat="45.672257719561458" lon="6.969221569597721">
        <ele>2159.8800000000001</ele>
        <time>2020-07-26T12:42:18Z</time>
      </trkpt>
      <trkpt lat="45.67225637845695" lon="6.969225257635117">
        <ele>2159.6399999999999</ele>
        <time>2020-07-26T12:42:43Z</time>
      </trkpt>
      <trkpt lat="45.672298790886998" lon="6.969243949279189">
        <ele>2159.79</ele>
        <time>2020-07-26T12:43:06Z</time>
      </trkpt>
      <trkpt lat="45.672342041507363" lon="6.969195166602731">
        <ele>2158.75</ele>
        <time>2020-07-26T12:43:18Z</time>
      </trkpt>
      <trkpt lat="45.672339610755444" lon="6.969189215451479">
        <ele>2157.8200000000002</ele>
        <time>2020-07-26T12:43:31Z</time>
      </trkpt>
      <trkpt lat="45.672339359298348" lon="6.969184186309576">
        <ele>2157.7800000000002</ele>
        <time>2020-07-26T12:43:54Z</time>
      </trkpt>
      <trkpt lat="45.672341538593173" lon="6.969202542677522">
        <ele>2157.9699999999998</ele>
        <time>2020-07-26T12:44:14Z</time>
      </trkpt>
      <trkpt lat="45.672348411753774" lon="6.969211930409074">
        <ele>2157.8600000000001</ele>
        <time>2020-07-26T12:44:26Z</time>
      </trkpt>
      <trkpt lat="45.672374982386827" lon="6.969208912923932">
        <ele>2157.3899999999999</ele>
        <time>2020-07-26T12:44:38Z</time>
      </trkpt>
      <trkpt lat="45.672517055645585" lon="6.969135655090213">
        <ele>2156.7600000000002</ele>
        <time>2020-07-26T12:44:52Z</time>
      </trkpt>
      <trkpt lat="45.672588553279638" lon="6.969125512987375">
        <ele>2156.4899999999998</ele>
        <time>2020-07-26T12:45:07Z</time>
      </trkpt>
      <trkpt lat="45.672587631270289" lon="6.96912132203579">
        <ele>2156.4699999999998</ele>
        <time>2020-07-26T12:45:26Z</time>
      </trkpt>
      <trkpt lat="45.67259643226862" lon="6.969121741130948">
        <ele>2156.3099999999999</ele>
        <time>2020-07-26T12:45:30Z</time>
      </trkpt>
      <trkpt lat="45.67264387384057" lon="6.969122914597392">
        <ele>2155.98</ele>
        <time>2020-07-26T12:45:34Z</time>
      </trkpt>
      <trkpt lat="45.672784941270947" lon="6.969135655090213">
        <ele>2155.6799999999998</ele>
        <time>2020-07-26T12:45:48Z</time>
      </trkpt>
      <trkpt lat="45.672797597944736" lon="6.96913355961442">
        <ele>2155.6599999999999</ele>
        <time>2020-07-26T12:45:50Z</time>
      </trkpt>
      <trkpt lat="45.672847554087639" lon="6.969131631776691">
        <ele>2155.5500000000002</ele>
        <time>2020-07-26T12:45:55Z</time>
      </trkpt>
      <trkpt lat="45.672899102792144" lon="6.969124171882868">
        <ele>2155.48</ele>
        <time>2020-07-26T12:46:00Z</time>
      </trkpt>
      <trkpt lat="45.67305869422853" lon="6.969224000349641">
        <ele>2152.1799999999998</ele>
        <time>2020-07-26T12:46:16Z</time>
      </trkpt>
      <trkpt lat="45.673221135511994" lon="6.969249648973346">
        <ele>2150.3200000000002</ele>
        <time>2020-07-26T12:46:29Z</time>
      </trkpt>
      <trkpt lat="45.673243431374431" lon="6.969254342839122">
        <ele>2149.0500000000002</ele>
        <time>2020-07-26T12:46:31Z</time>
      </trkpt>
      <trkpt lat="45.673263715580106" lon="6.96925425902009">
        <ele>2150.46</ele>
        <time>2020-07-26T12:46:33Z</time>
      </trkpt>
      <trkpt lat="45.673401849344373" lon="6.969245038926601">
        <ele>2149.79</ele>
        <time>2020-07-26T12:46:46Z</time>
      </trkpt>
      <trkpt lat="45.673539144918323" lon="6.969241434708238">
        <ele>2150.71</ele>
        <time>2020-07-26T12:46:58Z</time>
      </trkpt>
      <trkpt lat="45.673606032505631" lon="6.969244368374348">
        <ele>2150.21</ele>
        <time>2020-07-26T12:47:05Z</time>
      </trkpt>
      <trkpt lat="45.673662442713976" lon="6.969235651195049">
        <ele>2152.5599999999999</ele>
        <time>2020-07-26T12:47:16Z</time>
      </trkpt>
      <trkpt lat="45.673693958669901" lon="6.96922249160707">
        <ele>2150.8499999999999</ele>
        <time>2020-07-26T12:47:27Z</time>
      </trkpt>
      <trkpt lat="45.673700077459216" lon="6.969225676730275">
        <ele>2150.8899999999999</ele>
        <time>2020-07-26T12:47:28Z</time>
      </trkpt>
      <trkpt lat="45.673762522637844" lon="6.969258533790708">
        <ele>2147.3899999999999</ele>
        <time>2020-07-26T12:47:35Z</time>
      </trkpt>
      <trkpt lat="45.673801330849528" lon="6.969252666458488">
        <ele>2147.3299999999999</ele>
        <time>2020-07-26T12:47:39Z</time>
      </trkpt>
      <trkpt lat="45.673829410225153" lon="6.969235735014081">
        <ele>2147.1100000000001</ele>
        <time>2020-07-26T12:47:42Z</time>
      </trkpt>
      <trkpt lat="45.673898477107286" lon="6.969158537685871">
        <ele>2149.5999999999999</ele>
        <time>2020-07-26T12:47:53Z</time>
      </trkpt>
      <trkpt lat="45.673905517905951" lon="6.969140432775021">
        <ele>2150.6599999999999</ele>
        <time>2020-07-26T12:48:05Z</time>
      </trkpt>
      <trkpt lat="45.673914905637503" lon="6.969079580157995">
        <ele>2150.46</ele>
        <time>2020-07-26T12:48:11Z</time>
      </trkpt>
      <trkpt lat="45.67391381599009" lon="6.968974974006414">
        <ele>2150.9000000000001</ele>
        <time>2020-07-26T12:48:19Z</time>
      </trkpt>
      <trkpt lat="45.673896968364716" lon="6.968873385339975">
        <ele>2150.4499999999998</ele>
        <time>2020-07-26T12:48:27Z</time>
      </trkpt>
      <trkpt lat="45.673821112141013" lon="6.96875142864883">
        <ele>2153.4699999999998</ele>
        <time>2020-07-26T12:48:41Z</time>
      </trkpt>
      <trkpt lat="45.673821279779077" lon="6.968726282939315">
        <ele>2153.4499999999998</ele>
        <time>2020-07-26T12:48:55Z</time>
      </trkpt>
      <trkpt lat="45.67378674633801" lon="6.968524698168039">
        <ele>2151.5599999999999</ele>
        <time>2020-07-26T12:49:09Z</time>
      </trkpt>
      <trkpt lat="45.673789009451866" lon="6.9684421364218">
        <ele>2152.5900000000001</ele>
        <time>2020-07-26T12:49:14Z</time>
      </trkpt>
      <trkpt lat="45.673849359154701" lon="6.968323281034827">
        <ele>2150.7399999999998</ele>
        <time>2020-07-26T12:49:27Z</time>
      </trkpt>
      <trkpt lat="45.673911636695266" lon="6.968271899968386">
        <ele>2148.1999999999998</ele>
        <time>2020-07-26T12:49:42Z</time>
      </trkpt>
      <trkpt lat="45.673979530110955" lon="6.968248765915632">
        <ele>2145.02</ele>
        <time>2020-07-26T12:49:57Z</time>
      </trkpt>
      <trkpt lat="45.674020769074559" lon="6.968195792287588">
        <ele>2143.21</ele>
        <time>2020-07-26T12:50:09Z</time>
      </trkpt>
      <trkpt lat="45.674073826521635" lon="6.968185650184751">
        <ele>2142.5799999999999</ele>
        <time>2020-07-26T12:50:24Z</time>
      </trkpt>
      <trkpt lat="45.674103833734989" lon="6.968189254403114">
        <ele>2140.6100000000001</ele>
        <time>2020-07-26T12:50:36Z</time>
      </trkpt>
      <trkpt lat="45.674165608361363" lon="6.968188500031829">
        <ele>2139.5900000000001</ele>
        <time>2020-07-26T12:50:44Z</time>
      </trkpt>
      <trkpt lat="45.674251774325967" lon="6.968166707083583">
        <ele>2138.48</ele>
        <time>2020-07-26T12:50:54Z</time>
      </trkpt>
      <trkpt lat="45.674274070188403" lon="6.968123875558376">
        <ele>2137.6500000000001</ele>
        <time>2020-07-26T12:50:58Z</time>
      </trkpt>
      <trkpt lat="45.67429393529892" lon="6.967988843098283">
        <ele>2138</ele>
        <time>2020-07-26T12:51:11Z</time>
      </trkpt>
      <trkpt lat="45.674295192584395" lon="6.967918854206801">
        <ele>2135.9099999999999</ele>
        <time>2020-07-26T12:51:21Z</time>
      </trkpt>
      <trkpt lat="45.674282368272543" lon="6.967793544754386">
        <ele>2134.1399999999999</ele>
        <time>2020-07-26T12:51:33Z</time>
      </trkpt>
      <trkpt lat="45.674274489283562" lon="6.967771919444203">
        <ele>2133.8200000000002</ele>
        <time>2020-07-26T12:51:46Z</time>
      </trkpt>
      <trkpt lat="45.674257390201092" lon="6.967648705467582">
        <ele>2132.6199999999999</ele>
        <time>2020-07-26T12:51:59Z</time>
      </trkpt>
      <trkpt lat="45.674260994419456" lon="6.967633031308651">
        <ele>2131.7600000000002</ele>
        <time>2020-07-26T12:52:08Z</time>
      </trkpt>
      <trkpt lat="45.674263844266534" lon="6.967465560883284">
        <ele>2129.9099999999999</ele>
        <time>2020-07-26T12:52:22Z</time>
      </trkpt>
      <trkpt lat="45.674264179542661" lon="6.967360367998481">
        <ele>2128.5</ele>
        <time>2020-07-26T12:52:34Z</time>
      </trkpt>
      <trkpt lat="45.674263006076217" lon="6.967300353571773">
        <ele>2128.9699999999998</ele>
        <time>2020-07-26T12:52:48Z</time>
      </trkpt>
      <trkpt lat="45.67426317371428" lon="6.967292642220855">
        <ele>2128.6500000000001</ele>
        <time>2020-07-26T12:53:06Z</time>
      </trkpt>
      <trkpt lat="45.674261664971709" lon="6.967298928648233">
        <ele>2126.4099999999999</ele>
        <time>2020-07-26T12:53:15Z</time>
      </trkpt>
      <trkpt lat="45.674265939742327" lon="6.967299012467265">
        <ele>2127.77</ele>
        <time>2020-07-26T12:53:37Z</time>
      </trkpt>
      <trkpt lat="45.674241296947002" lon="6.967233465984464">
        <ele>2128.2199999999998</ele>
        <time>2020-07-26T12:53:55Z</time>
      </trkpt>
      <trkpt lat="45.674238530918956" lon="6.967207984998822">
        <ele>2127.98</ele>
        <time>2020-07-26T12:53:57Z</time>
      </trkpt>
      <trkpt lat="45.674268202856183" lon="6.967070857062936">
        <ele>2128.4000000000001</ele>
        <time>2020-07-26T12:54:09Z</time>
      </trkpt>
      <trkpt lat="45.67429100163281" lon="6.966983349993825">
        <ele>2126.4499999999998</ele>
        <time>2020-07-26T12:54:16Z</time>
      </trkpt>
      <trkpt lat="45.674281362444162" lon="6.966927275061607">
        <ele>2126.46</ele>
        <time>2020-07-26T12:54:26Z</time>
      </trkpt>
      <trkpt lat="45.674218665808439" lon="6.967032384127379">
        <ele>2124.1399999999999</ele>
        <time>2020-07-26T12:54:43Z</time>
      </trkpt>
      <trkpt lat="45.674210786819458" lon="6.967018134891987">
        <ele>2124.4400000000001</ele>
        <time>2020-07-26T12:54:57Z</time>
      </trkpt>
      <trkpt lat="45.674205925315619" lon="6.967026684433222">
        <ele>2124.6700000000001</ele>
        <time>2020-07-26T12:55:09Z</time>
      </trkpt>
      <trkpt lat="45.674215983599424" lon="6.967027354985476">
        <ele>2124.3400000000001</ele>
        <time>2020-07-26T12:55:22Z</time>
      </trkpt>
      <trkpt lat="45.674187066033483" lon="6.967094326391816">
        <ele>2124.1799999999998</ele>
        <time>2020-07-26T12:55:33Z</time>
      </trkpt>
      <trkpt lat="45.674186479300261" lon="6.96709549985826">
        <ele>2123.5500000000002</ele>
        <time>2020-07-26T12:55:58Z</time>
      </trkpt>
      <trkpt lat="45.674184048548341" lon="6.967097679153085">
        <ele>2123.46</ele>
        <time>2020-07-26T12:56:15Z</time>
      </trkpt>
      <trkpt lat="45.674191256985068" lon="6.967067001387477">
        <ele>2123.3099999999999</ele>
        <time>2020-07-26T12:56:28Z</time>
      </trkpt>
      <trkpt lat="45.674209110438824" lon="6.967049734666944">
        <ele>2123.7600000000002</ele>
        <time>2020-07-26T12:56:41Z</time>
      </trkpt>
      <trkpt lat="45.674267364665866" lon="6.96695133112371">
        <ele>2125.46</ele>
        <time>2020-07-26T12:56:53Z</time>
      </trkpt>
      <trkpt lat="45.674343556165695" lon="6.966838426887989">
        <ele>2125.1399999999999</ele>
        <time>2020-07-26T12:57:06Z</time>
      </trkpt>
      <trkpt lat="45.674383705481887" lon="6.966794589534402">
        <ele>2122.3800000000001</ele>
        <time>2020-07-26T12:57:16Z</time>
      </trkpt>
      <trkpt lat="45.674425195902586" lon="6.966749159619212">
        <ele>2119.8400000000001</ele>
        <time>2020-07-26T12:57:27Z</time>
      </trkpt>
      <trkpt lat="45.67446299828589" lon="6.966686798259616">
        <ele>2118.0900000000001</ele>
        <time>2020-07-26T12:57:37Z</time>
      </trkpt>
      <trkpt lat="45.674441875889897" lon="6.966596441343427">
        <ele>2116.9000000000001</ele>
        <time>2020-07-26T12:57:44Z</time>
      </trkpt>
      <trkpt lat="45.674408348277211" lon="6.966448249295354">
        <ele>2116.9200000000001</ele>
        <time>2020-07-26T12:57:56Z</time>
      </trkpt>
      <trkpt lat="45.674372054636478" lon="6.966330735012889">
        <ele>2116</ele>
        <time>2020-07-26T12:58:09Z</time>
      </trkpt>
      <trkpt lat="45.674410024657845" lon="6.966326544061303">
        <ele>2114.6599999999999</ele>
        <time>2020-07-26T12:58:21Z</time>
      </trkpt>
      <trkpt lat="45.674414969980717" lon="6.966261584311724">
        <ele>2114.0700000000002</ele>
        <time>2020-07-26T12:58:33Z</time>
      </trkpt>
      <trkpt lat="45.674438942223787" lon="6.966278348118067">
        <ele>2113.8800000000001</ele>
        <time>2020-07-26T12:58:45Z</time>
      </trkpt>
      <trkpt lat="45.674449251964688" lon="6.966302236542106">
        <ele>2113.9299999999998</ele>
        <time>2020-07-26T12:59:02Z</time>
      </trkpt>
      <trkpt lat="45.674454867839813" lon="6.966309864073992">
        <ele>2113.6399999999999</ele>
        <time>2020-07-26T12:59:13Z</time>
      </trkpt>
      <trkpt lat="45.674501052126288" lon="6.966353533789516">
        <ele>2112.3400000000001</ele>
        <time>2020-07-26T12:59:26Z</time>
      </trkpt>
      <trkpt lat="45.674509769305587" lon="6.966384882107377">
        <ele>2112.4000000000001</ele>
        <time>2020-07-26T12:59:38Z</time>
      </trkpt>
      <trkpt lat="45.674464507028461" lon="6.966359736397862">
        <ele>2113.4899999999998</ele>
        <time>2020-07-26T12:59:53Z</time>
      </trkpt>
      <trkpt lat="45.674433493986726" lon="6.966402484104037">
        <ele>2116.6300000000001</ele>
        <time>2020-07-26T13:00:04Z</time>
      </trkpt>
      <trkpt lat="45.674425195902586" lon="6.966516813263297">
        <ele>2117.4699999999998</ele>
        <time>2020-07-26T13:00:17Z</time>
      </trkpt>
      <trkpt lat="45.674438858404756" lon="6.966583449393511">
        <ele>2117.6900000000001</ele>
        <time>2020-07-26T13:00:30Z</time>
      </trkpt>
      <trkpt lat="45.674482611939311" lon="6.966658048331738">
        <ele>2118.0300000000002</ele>
        <time>2020-07-26T13:00:42Z</time>
      </trkpt>
      <trkpt lat="45.674514211714268" lon="6.966680847108364">
        <ele>2117.8699999999999</ele>
        <time>2020-07-26T13:00:47Z</time>
      </trkpt>
      <trkpt lat="45.674628540873528" lon="6.966733988374472">
        <ele>2116.2600000000002</ele>
        <time>2020-07-26T13:01:02Z</time>
      </trkpt>
      <trkpt lat="45.674663744866848" lon="6.966761648654938">
        <ele>2114.8499999999999</ele>
        <time>2020-07-26T13:01:09Z</time>
      </trkpt>
      <trkpt lat="45.674764076247811" lon="6.966832894831896">
        <ele>2112.9400000000001</ele>
        <time>2020-07-26T13:01:22Z</time>
      </trkpt>
      <trkpt lat="45.674845045432448" lon="6.966874217614532">
        <ele>2110.21</ele>
        <time>2020-07-26T13:01:34Z</time>
      </trkpt>
      <trkpt lat="45.674908496439457" lon="6.96689123287797">
        <ele>2107.8099999999999</ele>
        <time>2020-07-26T13:01:45Z</time>
      </trkpt>
      <trkpt lat="45.674922661855817" lon="6.966897938400507">
        <ele>2107.3600000000001</ele>
        <time>2020-07-26T13:01:47Z</time>
      </trkpt>
      <trkpt lat="45.674942275509238" lon="6.966929538175464">
        <ele>2106.8499999999999</ele>
        <time>2020-07-26T13:01:50Z</time>
      </trkpt>
      <trkpt lat="45.675017293542624" lon="6.966981254518032">
        <ele>2105.3299999999999</ele>
        <time>2020-07-26T13:02:02Z</time>
      </trkpt>
      <trkpt lat="45.675020981580019" lon="6.966990893706679">
        <ele>2105.2199999999998</ele>
        <time>2020-07-26T13:02:15Z</time>
      </trkpt>
      <trkpt lat="45.675016455352306" lon="6.966971950605512">
        <ele>2105.27</ele>
        <time>2020-07-26T13:02:19Z</time>
      </trkpt>
      <trkpt lat="45.6750806607306" lon="6.967022996395826">
        <ele>2104</ele>
        <time>2020-07-26T13:02:27Z</time>
      </trkpt>
      <trkpt lat="45.675190966576338" lon="6.967126931995153">
        <ele>2101.5900000000001</ele>
        <time>2020-07-26T13:02:41Z</time>
      </trkpt>
      <trkpt lat="45.675238743424416" lon="6.967136487364769">
        <ele>2100.8400000000001</ele>
        <time>2020-07-26T13:02:45Z</time>
      </trkpt>
      <trkpt lat="45.675309151411057" lon="6.967199435457587">
        <ele>2099.96</ele>
        <time>2020-07-26T13:02:53Z</time>
      </trkpt>
      <trkpt lat="45.675394982099533" lon="6.967382663860917">
        <ele>2100.7600000000002</ele>
        <time>2020-07-26T13:03:09Z</time>
      </trkpt>
      <trkpt lat="45.675443010404706" lon="6.967436224222183">
        <ele>2101.6399999999999</ele>
        <time>2020-07-26T13:03:16Z</time>
      </trkpt>
      <trkpt lat="45.675536217167974" lon="6.967584080994129">
        <ele>2100.3000000000002</ele>
        <time>2020-07-26T13:03:30Z</time>
      </trkpt>
      <trkpt lat="45.675640404224396" lon="6.967690112069249">
        <ele>2098.5100000000002</ele>
        <time>2020-07-26T13:03:43Z</time>
      </trkpt>
      <trkpt lat="45.67572858184576" lon="6.967812655493617">
        <ele>2095.27</ele>
        <time>2020-07-26T13:03:56Z</time>
      </trkpt>
      <trkpt lat="45.675827320665121" lon="6.96787778288126">
        <ele>2094.6700000000001</ele>
        <time>2020-07-26T13:04:05Z</time>
      </trkpt>
      <trkpt lat="45.675906781107187" lon="6.967967553064227">
        <ele>2096.2199999999998</ele>
        <time>2020-07-26T13:04:17Z</time>
      </trkpt>
      <trkpt lat="45.675912396982312" lon="6.967978198081255">
        <ele>2096.4200000000001</ele>
        <time>2020-07-26T13:04:18Z</time>
      </trkpt>
      <trkpt lat="45.675978194922209" lon="6.968134688213468">
        <ele>2097.25</ele>
        <time>2020-07-26T13:04:31Z</time>
      </trkpt>
      <trkpt lat="45.675987750291824" lon="6.968205347657204">
        <ele>2098.4400000000001</ele>
        <time>2020-07-26T13:04:39Z</time>
      </trkpt>
      <trkpt lat="45.676000909879804" lon="6.96826284751296">
        <ele>2098.75</ele>
        <time>2020-07-26T13:04:43Z</time>
      </trkpt>
      <trkpt lat="45.676039047539234" lon="6.96840500459075">
        <ele>2099.8200000000002</ele>
        <time>2020-07-26T13:04:56Z</time>
      </trkpt>
      <trkpt lat="45.676058493554592" lon="6.968479603528976">
        <ele>2100.2399999999998</ele>
        <time>2020-07-26T13:05:02Z</time>
      </trkpt>
      <trkpt lat="45.676127644255757" lon="6.968632992357016">
        <ele>2101.0900000000001</ele>
        <time>2020-07-26T13:05:16Z</time>
      </trkpt>
      <trkpt lat="45.676210792735219" lon="6.968786381185055">
        <ele>2102.4000000000001</ele>
        <time>2020-07-26T13:05:31Z</time>
      </trkpt>
      <trkpt lat="45.676249349489808" lon="6.968812784180045">
        <ele>2102.6399999999999</ele>
        <time>2020-07-26T13:05:38Z</time>
      </trkpt>
      <trkpt lat="45.676286648958921" lon="6.968829464167357">
        <ele>2103.1799999999998</ele>
        <time>2020-07-26T13:05:42Z</time>
      </trkpt>
      <trkpt lat="45.676305172964931" lon="6.968839690089226">
        <ele>2103.54</ele>
        <time>2020-07-26T13:05:44Z</time>
      </trkpt>
      <trkpt lat="45.676357056945562" lon="6.968992995098233">
        <ele>2103.6300000000001</ele>
        <time>2020-07-26T13:05:56Z</time>
      </trkpt>
      <trkpt lat="45.676430482417345" lon="6.969069438055158">
        <ele>2102.6799999999998</ele>
        <time>2020-07-26T13:06:08Z</time>
      </trkpt>
      <trkpt lat="45.67642729729414" lon="6.969073796644807">
        <ele>2101.5700000000002</ele>
        <time>2020-07-26T13:06:18Z</time>
      </trkpt>
      <trkpt lat="45.676445569843054" lon="6.969057619571686">
        <ele>2102.5300000000002</ele>
        <time>2020-07-26T13:06:56Z</time>
      </trkpt>
      <trkpt lat="45.676442552357912" lon="6.969067845493555">
        <ele>2102.8600000000001</ele>
        <time>2020-07-26T13:07:13Z</time>
      </trkpt>
      <trkpt lat="45.676460908725858" lon="6.969029791653156">
        <ele>2102.1900000000001</ele>
        <time>2020-07-26T13:07:27Z</time>
      </trkpt>
      <trkpt lat="45.676462417468429" lon="6.968945972621441">
        <ele>2100.46</ele>
        <time>2020-07-26T13:07:38Z</time>
      </trkpt>
      <trkpt lat="45.676493849605322" lon="6.968853352591395">
        <ele>2097.6999999999998</ele>
        <time>2020-07-26T13:07:49Z</time>
      </trkpt>
      <trkpt lat="45.676478762179613" lon="6.968799456954002">
        <ele>2095.79</ele>
        <time>2020-07-26T13:07:56Z</time>
      </trkpt>
      <trkpt lat="45.676437774673104" lon="6.96868009865284">
        <ele>2093.96</ele>
        <time>2020-07-26T13:08:09Z</time>
      </trkpt>
      <trkpt lat="45.676383292302489" lon="6.968650007620454">
        <ele>2091.8699999999999</ele>
        <time>2020-07-26T13:08:22Z</time>
      </trkpt>
      <trkpt lat="45.676357392221689" lon="6.96858873590827">
        <ele>2090.0900000000001</ele>
        <time>2020-07-26T13:08:35Z</time>
      </trkpt>
      <trkpt lat="45.676341969519854" lon="6.968490164726973">
        <ele>2088.04</ele>
        <time>2020-07-26T13:08:48Z</time>
      </trkpt>
      <trkpt lat="45.676343142986298" lon="6.968422774225473">
        <ele>2086.04</ele>
        <time>2020-07-26T13:09:00Z</time>
      </trkpt>
      <trkpt lat="45.676310285925865" lon="6.968323783949018">
        <ele>2084.2600000000002</ele>
        <time>2020-07-26T13:09:11Z</time>
      </trkpt>
      <trkpt lat="45.676306514069438" lon="6.968224877491593">
        <ele>2082.46</ele>
        <time>2020-07-26T13:09:23Z</time>
      </trkpt>
      <trkpt lat="45.676305424422026" lon="6.968196714296937">
        <ele>2081.1199999999999</ele>
        <time>2020-07-26T13:09:27Z</time>
      </trkpt>
      <trkpt lat="45.676253121346235" lon="6.968147931620479">
        <ele>2078.6500000000001</ele>
        <time>2020-07-26T13:09:39Z</time>
      </trkpt>
      <trkpt lat="45.67621037364006" lon="6.968083558604121">
        <ele>2076.29</ele>
        <time>2020-07-26T13:09:50Z</time>
      </trkpt>
      <trkpt lat="45.676183719187975" lon="6.967966295778751">
        <ele>2073.48</ele>
        <time>2020-07-26T13:10:03Z</time>
      </trkpt>
      <trkpt lat="45.676153460517526" lon="6.967867389321327">
        <ele>2070.9200000000001</ele>
        <time>2020-07-26T13:10:17Z</time>
      </trkpt>
      <trkpt lat="45.676153795793653" lon="6.967792874202132">
        <ele>2068.7399999999998</ele>
        <time>2020-07-26T13:10:28Z</time>
      </trkpt>
      <trkpt lat="45.676128817722201" lon="6.967683909460902">
        <ele>2066.5799999999999</ele>
        <time>2020-07-26T13:10:40Z</time>
      </trkpt>
      <trkpt lat="45.676164608448744" lon="6.967598162591457">
        <ele>2063.8200000000002</ele>
        <time>2020-07-26T13:10:51Z</time>
      </trkpt>
      <trkpt lat="45.676212050020695" lon="6.967667816206813">
        <ele>2061.52</ele>
        <time>2020-07-26T13:11:02Z</time>
      </trkpt>
      <trkpt lat="45.676255468279123" lon="6.967631941661239">
        <ele>2059.5100000000002</ele>
        <time>2020-07-26T13:11:10Z</time>
      </trkpt>
      <trkpt lat="45.676220431923866" lon="6.967515181750059">
        <ele>2057.0100000000002</ele>
        <time>2020-07-26T13:11:24Z</time>
      </trkpt>
      <trkpt lat="45.67620643414557" lon="6.967477044090629">
        <ele>2055.8400000000001</ele>
        <time>2020-07-26T13:11:28Z</time>
      </trkpt>
      <trkpt lat="45.676173996180296" lon="6.967459693551064">
        <ele>2055.2800000000002</ele>
        <time>2020-07-26T13:11:32Z</time>
      </trkpt>
      <trkpt lat="45.676128817722201" lon="6.967389201745391">
        <ele>2054.1700000000001</ele>
        <time>2020-07-26T13:11:41Z</time>
      </trkpt>
      <trkpt lat="45.676078358665109" lon="6.967281745746732">
        <ele>2051.1599999999999</ele>
        <time>2020-07-26T13:11:54Z</time>
      </trkpt>
      <trkpt lat="45.675996970385313" lon="6.967171691358089">
        <ele>2048.8000000000002</ele>
        <time>2020-07-26T13:12:07Z</time>
      </trkpt>
      <trkpt lat="45.676029911264777" lon="6.967079490423203">
        <ele>2045.78</ele>
        <time>2020-07-26T13:12:18Z</time>
      </trkpt>
      <trkpt lat="45.676029827445745" lon="6.966995168477297">
        <ele>2043.3800000000001</ele>
        <time>2020-07-26T13:12:29Z</time>
      </trkpt>
      <trkpt lat="45.676023960113525" lon="6.966952923685312">
        <ele>2042.52</ele>
        <time>2020-07-26T13:12:33Z</time>
      </trkpt>
      <trkpt lat="45.676016416400671" lon="6.966909756883979">
        <ele>2041.6900000000001</ele>
        <time>2020-07-26T13:12:36Z</time>
      </trkpt>
      <trkpt lat="45.675992108881474" lon="6.966800792142749">
        <ele>2040.0699999999999</ele>
        <time>2020-07-26T13:12:45Z</time>
      </trkpt>
      <trkpt lat="45.675998060032725" lon="6.966713117435575">
        <ele>2038.0599999999999</ele>
        <time>2020-07-26T13:12:57Z</time>
      </trkpt>
      <trkpt lat="45.676057990640402" lon="6.966727031394839">
        <ele>2036.2</ele>
        <time>2020-07-26T13:13:05Z</time>
      </trkpt>
      <trkpt lat="45.676097050309181" lon="6.966667352244258">
        <ele>2034.26</ele>
        <time>2020-07-26T13:13:18Z</time>
      </trkpt>
      <trkpt lat="45.676053883507848" lon="6.966606834903359">
        <ele>2032.1400000000001</ele>
        <time>2020-07-26T13:13:30Z</time>
      </trkpt>
      <trkpt lat="45.676069557666779" lon="6.966584119945765">
        <ele>2031.21</ele>
        <time>2020-07-26T13:13:35Z</time>
      </trkpt>
      <trkpt lat="45.676109539344907" lon="6.966605912894011">
        <ele>2030.0799999999999</ele>
        <time>2020-07-26T13:13:39Z</time>
      </trkpt>
      <trkpt lat="45.676262676715851" lon="6.966720493510366">
        <ele>2029.4100000000001</ele>
        <time>2020-07-26T13:13:53Z</time>
      </trkpt>
      <trkpt lat="45.676281787455082" lon="6.966739185154438">
        <ele>2028.4300000000001</ele>
        <time>2020-07-26T13:13:55Z</time>
      </trkpt>
      <trkpt lat="45.676321685314178" lon="6.966870613396168">
        <ele>2028.45</ele>
        <time>2020-07-26T13:14:04Z</time>
      </trkpt>
      <trkpt lat="45.676339035853744" lon="6.966891819611192">
        <ele>2028.48</ele>
        <time>2020-07-26T13:14:06Z</time>
      </trkpt>
      <trkpt lat="45.676393685862422" lon="6.967011597007513">
        <ele>2028.1900000000001</ele>
        <time>2020-07-26T13:14:19Z</time>
      </trkpt>
      <trkpt lat="45.676459902897477" lon="6.967030959203839">
        <ele>2025.1600000000001</ele>
        <time>2020-07-26T13:14:32Z</time>
      </trkpt>
      <trkpt lat="45.676468620076776" lon="6.967017380520701">
        <ele>2024.4100000000001</ele>
        <time>2020-07-26T13:14:38Z</time>
      </trkpt>
      <trkpt lat="45.676480773836374" lon="6.966928448528051">
        <ele>2022.3599999999999</ele>
        <time>2020-07-26T13:14:48Z</time>
      </trkpt>
      <trkpt lat="45.67653383128345" lon="6.9670070707798">
        <ele>2020.9100000000001</ele>
        <time>2020-07-26T13:14:58Z</time>
      </trkpt>
      <trkpt lat="45.676591247320175" lon="6.967098098248243">
        <ele>2018.6600000000001</ele>
        <time>2020-07-26T13:15:10Z</time>
      </trkpt>
      <trkpt lat="45.676651513203979" lon="6.967144785448909">
        <ele>2016.23</ele>
        <time>2020-07-26T13:15:21Z</time>
      </trkpt>
      <trkpt lat="45.676657799631357" lon="6.967094158753753">
        <ele>2014.5599999999999</ele>
        <time>2020-07-26T13:15:28Z</time>
      </trkpt>
      <trkpt lat="45.676641119644046" lon="6.967078568413854">
        <ele>2013.99</ele>
        <time>2020-07-26T13:15:30Z</time>
      </trkpt>
      <trkpt lat="45.676623517647386" lon="6.967047220095992">
        <ele>2013.03</ele>
        <time>2020-07-26T13:15:33Z</time>
      </trkpt>
      <trkpt lat="45.676608430221677" lon="6.966923419386149">
        <ele>2010.8900000000001</ele>
        <time>2020-07-26T13:15:45Z</time>
      </trkpt>
      <trkpt lat="45.676572723314166" lon="6.966815963387489">
        <ele>2008.78</ele>
        <time>2020-07-26T13:15:56Z</time>
      </trkpt>
      <trkpt lat="45.676527796313167" lon="6.966729210689664">
        <ele>2006.76</ele>
        <time>2020-07-26T13:16:07Z</time>
      </trkpt>
      <trkpt lat="45.676551852375269" lon="6.966628208756447">
        <ele>2004.3399999999999</ele>
        <time>2020-07-26T13:16:19Z</time>
      </trkpt>
      <trkpt lat="45.67660222761333" lon="6.966597782447934">
        <ele>2002.6700000000001</ele>
        <time>2020-07-26T13:16:27Z</time>
      </trkpt>
      <trkpt lat="45.676610860973597" lon="6.966550592333078">
        <ele>2001.3499999999999</ele>
        <time>2020-07-26T13:16:32Z</time>
      </trkpt>
      <trkpt lat="45.676538441330194" lon="6.966499211266637">
        <ele>1999.78</ele>
        <time>2020-07-26T13:16:42Z</time>
      </trkpt>
      <trkpt lat="45.676473984494805" lon="6.966485716402531">
        <ele>1996.99</ele>
        <time>2020-07-26T13:16:55Z</time>
      </trkpt>
      <trkpt lat="45.676447665318847" lon="6.966451350599527">
        <ele>1995.5899999999999</ele>
        <time>2020-07-26T13:17:06Z</time>
      </trkpt>
      <trkpt lat="45.676419166848063" lon="6.966360658407211">
        <ele>1992.4300000000001</ele>
        <time>2020-07-26T13:17:18Z</time>
      </trkpt>
      <trkpt lat="45.676417239010334" lon="6.966348923742771">
        <ele>1992.1300000000001</ele>
        <time>2020-07-26T13:17:19Z</time>
      </trkpt>
      <trkpt lat="45.67637549713254" lon="6.966232918202877">
        <ele>1988.8399999999999</ele>
        <time>2020-07-26T13:17:31Z</time>
      </trkpt>
      <trkpt lat="45.676316488534212" lon="6.966152954846621">
        <ele>1987.0699999999999</ele>
        <time>2020-07-26T13:17:41Z</time>
      </trkpt>
      <trkpt lat="45.676261084154248" lon="6.965970480814576">
        <ele>1986.29</ele>
        <time>2020-07-26T13:17:54Z</time>
      </trkpt>
      <trkpt lat="45.676248343661427" lon="6.965960925444961">
        <ele>1986.3199999999999</ele>
        <time>2020-07-26T13:17:56Z</time>
      </trkpt>
      <trkpt lat="45.676195537671447" lon="6.965876100584865">
        <ele>1985.1700000000001</ele>
        <time>2020-07-26T13:18:09Z</time>
      </trkpt>
      <trkpt lat="45.676193190738559" lon="6.965867718681693">
        <ele>1984.3499999999999</ele>
        <time>2020-07-26T13:18:23Z</time>
      </trkpt>
      <trkpt lat="45.676193861290812" lon="6.965870149433613">
        <ele>1984.02</ele>
        <time>2020-07-26T13:18:47Z</time>
      </trkpt>
      <trkpt lat="45.676191346719861" lon="6.965857744216919">
        <ele>1983.8399999999999</ele>
        <time>2020-07-26T13:19:03Z</time>
      </trkpt>
      <trkpt lat="45.676178522408009" lon="6.965825976803899">
        <ele>1984.0599999999999</ele>
        <time>2020-07-26T13:19:33Z</time>
      </trkpt>
      <trkpt lat="45.676190592348576" lon="6.965846512466669">
        <ele>1983.74</ele>
        <time>2020-07-26T13:19:59Z</time>
      </trkpt>
      <trkpt lat="45.676191598176956" lon="6.965845422819257">
        <ele>1984.0599999999999</ele>
        <time>2020-07-26T13:20:11Z</time>
      </trkpt>
      <trkpt lat="45.676183216273785" lon="6.965847685933113">
        <ele>1984.1700000000001</ele>
        <time>2020-07-26T13:20:53Z</time>
      </trkpt>
      <trkpt lat="45.676187071949244" lon="6.965843411162496">
        <ele>1984.5799999999999</ele>
        <time>2020-07-26T13:21:17Z</time>
      </trkpt>
      <trkpt lat="45.676208697259426" lon="6.965839806944132">
        <ele>1984.5699999999999</ele>
        <time>2020-07-26T13:21:43Z</time>
      </trkpt>
      <trkpt lat="45.676206350326538" lon="6.965827820822597">
        <ele>1985.3900000000001</ele>
        <time>2020-07-26T13:21:54Z</time>
      </trkpt>
      <trkpt lat="45.676197800785303" lon="6.965833017602563">
        <ele>1985.1400000000001</ele>
        <time>2020-07-26T13:22:09Z</time>
      </trkpt>
      <trkpt lat="45.676162261515856" lon="6.965812230482698">
        <ele>1985.04</ele>
        <time>2020-07-26T13:22:21Z</time>
      </trkpt>
      <trkpt lat="45.67620157264173" lon="6.965763363987207">
        <ele>1983.8699999999999</ele>
        <time>2020-07-26T13:22:29Z</time>
      </trkpt>
      <trkpt lat="45.676266951486468" lon="6.965754060074687">
        <ele>1981.6199999999999</ele>
        <time>2020-07-26T13:22:40Z</time>
      </trkpt>
      <trkpt lat="45.676245074719191" lon="6.965651717036963">
        <ele>1979.53</ele>
        <time>2020-07-26T13:22:51Z</time>
      </trkpt>
      <trkpt lat="45.676233256235719" lon="6.965582733973861">
        <ele>1978</ele>
        <time>2020-07-26T13:22:58Z</time>
      </trkpt>
      <trkpt lat="45.676166536286473" lon="6.965483408421278">
        <ele>1975.96</ele>
        <time>2020-07-26T13:23:11Z</time>
      </trkpt>
      <trkpt lat="45.67620400339365" lon="6.965442756190896">
        <ele>1973.3900000000001</ele>
        <time>2020-07-26T13:23:23Z</time>
      </trkpt>
      <trkpt lat="45.67621330730617" lon="6.965416604653001">
        <ele>1971.9100000000001</ele>
        <time>2020-07-26T13:23:32Z</time>
      </trkpt>
      <trkpt lat="45.676189418882132" lon="6.965327421203256">
        <ele>1970.3199999999999</ele>
        <time>2020-07-26T13:23:43Z</time>
      </trkpt>
      <trkpt lat="45.676160668954253" lon="6.96526019833982">
        <ele>1967.72</ele>
        <time>2020-07-26T13:23:54Z</time>
      </trkpt>
      <trkpt lat="45.676167542114854" lon="6.965245194733143">
        <ele>1967.3699999999999</ele>
        <time>2020-07-26T13:23:56Z</time>
      </trkpt>
      <trkpt lat="45.676252199336886" lon="6.965313758701086">
        <ele>1964.72</ele>
        <time>2020-07-26T13:24:08Z</time>
      </trkpt>
      <trkpt lat="45.676262928172946" lon="6.965321386232972">
        <ele>1964.6199999999999</ele>
        <time>2020-07-26T13:24:09Z</time>
      </trkpt>
      <trkpt lat="45.676310202106833" lon="6.965397661551833">
        <ele>1963.7</ele>
        <time>2020-07-26T13:24:16Z</time>
      </trkpt>
      <trkpt lat="45.676364097744226" lon="6.965499334037304">
        <ele>1961.7</ele>
        <time>2020-07-26T13:24:28Z</time>
      </trkpt>
      <trkpt lat="45.676402570679784" lon="6.965467315167189">
        <ele>1959.46</ele>
        <time>2020-07-26T13:24:39Z</time>
      </trkpt>
      <trkpt lat="45.676444480195642" lon="6.965462872758508">
        <ele>1957.1400000000001</ele>
        <time>2020-07-26T13:24:49Z</time>
      </trkpt>
      <trkpt lat="45.676532071083784" lon="6.965505369007587">
        <ele>1955.0999999999999</ele>
        <time>2020-07-26T13:25:00Z</time>
      </trkpt>
      <trkpt lat="45.676578506827354" lon="6.965551720932126">
        <ele>1953.6800000000001</ele>
        <time>2020-07-26T13:25:06Z</time>
      </trkpt>
      <trkpt lat="45.676604071632028" lon="6.965670911595225">
        <ele>1952.99</ele>
        <time>2020-07-26T13:25:13Z</time>
      </trkpt>
      <trkpt lat="45.676640868186951" lon="6.965788928791881">
        <ele>1953.01</ele>
        <time>2020-07-26T13:25:20Z</time>
      </trkpt>
      <trkpt lat="45.676690572872758" lon="6.965838382020593">
        <ele>1952.47</ele>
        <time>2020-07-26T13:25:27Z</time>
      </trkpt>
      <trkpt lat="45.676710773259401" lon="6.965846093371511">
        <ele>1951.97</ele>
        <time>2020-07-26T13:25:29Z</time>
      </trkpt>
      <trkpt lat="45.676729464903474" lon="6.965865036472678">
        <ele>1951.6400000000001</ele>
        <time>2020-07-26T13:25:31Z</time>
      </trkpt>
      <trkpt lat="45.676787970587611" lon="6.966000320389867">
        <ele>1952.6900000000001</ele>
        <time>2020-07-26T13:25:44Z</time>
      </trkpt>
      <trkpt lat="45.676821246743202" lon="6.966078607365489">
        <ele>1953.6400000000001</ele>
        <time>2020-07-26T13:25:52Z</time>
      </trkpt>
      <trkpt lat="45.676849158480763" lon="6.966115068644285">
        <ele>1952.9300000000001</ele>
        <time>2020-07-26T13:25:55Z</time>
      </trkpt>
      <trkpt lat="45.676871202886105" lon="6.966147674247623">
        <ele>1953.4100000000001</ele>
        <time>2020-07-26T13:25:59Z</time>
      </trkpt>
      <trkpt lat="45.676887296140194" lon="6.966172819957137">
        <ele>1953.51</ele>
        <time>2020-07-26T13:26:01Z</time>
      </trkpt>
      <trkpt lat="45.676939096301794" lon="6.966240126639605">
        <ele>1952.0799999999999</ele>
        <time>2020-07-26T13:26:10Z</time>
      </trkpt>
      <trkpt lat="45.676973797380924" lon="6.966258315369487">
        <ele>1951.1500000000001</ele>
        <time>2020-07-26T13:26:15Z</time>
      </trkpt>
      <trkpt lat="45.677028112113476" lon="6.966356467455626">
        <ele>1949.5599999999999</ele>
        <time>2020-07-26T13:26:26Z</time>
      </trkpt>
      <trkpt lat="45.677049150690436" lon="6.966371135786176">
        <ele>1949.27</ele>
        <time>2020-07-26T13:26:29Z</time>
      </trkpt>
      <trkpt lat="45.677113188430667" lon="6.966477753594518">
        <ele>1948.1800000000001</ele>
        <time>2020-07-26T13:26:40Z</time>
      </trkpt>
      <trkpt lat="45.67712944932282" lon="6.966554783284664">
        <ele>1945.97</ele>
        <time>2020-07-26T13:26:51Z</time>
      </trkpt>
      <trkpt lat="45.677140764892101" lon="6.966614713892341">
        <ele>1944.22</ele>
        <time>2020-07-26T13:26:59Z</time>
      </trkpt>
      <trkpt lat="45.677142441272736" lon="6.966644804924727">
        <ele>1943.8099999999999</ele>
        <time>2020-07-26T13:27:01Z</time>
      </trkpt>
      <trkpt lat="45.677171442657709" lon="6.966738095507026">
        <ele>1941.3299999999999</ele>
        <time>2020-07-26T13:27:13Z</time>
      </trkpt>
      <trkpt lat="45.67723355256021" lon="6.966817220672965">
        <ele>1938.3199999999999</ele>
        <time>2020-07-26T13:27:27Z</time>
      </trkpt>
      <trkpt lat="45.677308989688754" lon="6.966878576204181">
        <ele>1935.1400000000001</ele>
        <time>2020-07-26T13:27:41Z</time>
      </trkpt>
      <trkpt lat="45.67732248455286" lon="6.966814622282982">
        <ele>1932.0599999999999</ele>
        <time>2020-07-26T13:27:54Z</time>
      </trkpt>
      <trkpt lat="45.677340338006616" lon="6.966781681403518">
        <ele>1930.22</ele>
        <time>2020-07-26T13:28:04Z</time>
      </trkpt>
      <trkpt lat="45.677399765700102" lon="6.966786794364452">
        <ele>1927.75</ele>
        <time>2020-07-26T13:28:16Z</time>
      </trkpt>
      <trkpt lat="45.677439915016294" lon="6.966763995587826">
        <ele>1926.1099999999999</ele>
        <time>2020-07-26T13:28:22Z</time>
      </trkpt>
      <trkpt lat="45.677458941936493" lon="6.96667917072773">
        <ele>1924.3499999999999</ele>
        <time>2020-07-26T13:28:30Z</time>
      </trkpt>
      <trkpt lat="45.677414098754525" lon="6.966525614261627">
        <ele>1923.55</ele>
        <time>2020-07-26T13:28:41Z</time>
      </trkpt>
      <trkpt lat="45.677384007722139" lon="6.966483034193516">
        <ele>1924.3900000000001</ele>
        <time>2020-07-26T13:28:47Z</time>
      </trkpt>
      <trkpt lat="45.677349641919136" lon="6.966343056410551">
        <ele>1922.51</ele>
        <time>2020-07-26T13:29:00Z</time>
      </trkpt>
      <trkpt lat="45.677306223660707" lon="6.966208526864648">
        <ele>1919.4000000000001</ele>
        <time>2020-07-26T13:29:14Z</time>
      </trkpt>
      <trkpt lat="45.677259955555201" lon="6.966096460819244">
        <ele>1917.71</ele>
        <time>2020-07-26T13:29:25Z</time>
      </trkpt>
      <trkpt lat="45.677218465134501" lon="6.965999146923423">
        <ele>1915.9200000000001</ele>
        <time>2020-07-26T13:29:38Z</time>
      </trkpt>
      <trkpt lat="45.677242437377572" lon="6.965967630967498">
        <ele>1914.1700000000001</ele>
        <time>2020-07-26T13:29:48Z</time>
      </trkpt>
      <trkpt lat="45.677228858694434" lon="6.965898144990206">
        <ele>1911.76</ele>
        <time>2020-07-26T13:29:59Z</time>
      </trkpt>
      <trkpt lat="45.677202623337507" lon="6.965803932398558">
        <ele>1908.96</ele>
        <time>2020-07-26T13:30:09Z</time>
      </trkpt>
      <trkpt lat="45.67718711681664" lon="6.965778116136789">
        <ele>1908.6500000000001</ele>
        <time>2020-07-26T13:30:11Z</time>
      </trkpt>
      <trkpt lat="45.677135987207294" lon="6.965650795027614">
        <ele>1906.46</ele>
        <time>2020-07-26T13:30:23Z</time>
      </trkpt>
      <trkpt lat="45.677048647776246" lon="6.965536214411259">
        <ele>1903.28</ele>
        <time>2020-07-26T13:30:37Z</time>
      </trkpt>
      <trkpt lat="45.677065495401621" lon="6.965426160022616">
        <ele>1900.23</ele>
        <time>2020-07-26T13:30:50Z</time>
      </trkpt>
      <trkpt lat="45.677048899233341" lon="6.965290540829301">
        <ele>1897.23</ele>
        <time>2020-07-26T13:31:03Z</time>
      </trkpt>
      <trkpt lat="45.677072536200285" lon="6.965207308530808">
        <ele>1894.7</ele>
        <time>2020-07-26T13:31:15Z</time>
      </trkpt>
      <trkpt lat="45.677105644717813" lon="6.965216277167201">
        <ele>1893.47</ele>
        <time>2020-07-26T13:31:22Z</time>
      </trkpt>
      <trkpt lat="45.677141854539514" lon="6.965138325467706">
        <ele>1891.01</ele>
        <time>2020-07-26T13:31:32Z</time>
      </trkpt>
      <trkpt lat="45.677134562283754" lon="6.965021481737495">
        <ele>1889.4000000000001</ele>
        <time>2020-07-26T13:31:43Z</time>
      </trkpt>
      <trkpt lat="45.677168173715472" lon="6.964998263865709">
        <ele>1888.1199999999999</ele>
        <time>2020-07-26T13:31:48Z</time>
      </trkpt>
      <trkpt lat="45.677248891443014" lon="6.965060206130147">
        <ele>1885.73</ele>
        <time>2020-07-26T13:31:57Z</time>
      </trkpt>
      <trkpt lat="45.677300440147519" lon="6.965153999626637">
        <ele>1884.02</ele>
        <time>2020-07-26T13:32:07Z</time>
      </trkpt>
      <trkpt lat="45.677321897819638" lon="6.965211164206266">
        <ele>1882.9100000000001</ele>
        <time>2020-07-26T13:32:11Z</time>
      </trkpt>
      <trkpt lat="45.677375458180904" lon="6.965306298807263">
        <ele>1880.8299999999999</ele>
        <time>2020-07-26T13:32:23Z</time>
      </trkpt>
      <trkpt lat="45.67743631079793" lon="6.96538919582963">
        <ele>1879.3099999999999</ele>
        <time>2020-07-26T13:32:34Z</time>
      </trkpt>
      <trkpt lat="45.677511664107442" lon="6.965454071760178">
        <ele>1877.3</ele>
        <time>2020-07-26T13:32:44Z</time>
      </trkpt>
      <trkpt lat="45.677553238347173" lon="6.965464297682047">
        <ele>1874.8699999999999</ele>
        <time>2020-07-26T13:32:54Z</time>
      </trkpt>
      <trkpt lat="45.677589699625969" lon="6.965453317388892">
        <ele>1873.53</ele>
        <time>2020-07-26T13:33:01Z</time>
      </trkpt>
      <trkpt lat="45.677650719881058" lon="6.965600084513426">
        <ele>1872.45</ele>
        <time>2020-07-26T13:33:14Z</time>
      </trkpt>
      <trkpt lat="45.677696736529469" lon="6.965606287121773">
        <ele>1870.8800000000001</ele>
        <time>2020-07-26T13:33:20Z</time>
      </trkpt>
      <trkpt lat="45.67781307734549" lon="6.965700667351484">
        <ele>1868.8099999999999</ele>
        <time>2020-07-26T13:33:32Z</time>
      </trkpt>
      <trkpt lat="45.677868062630296" lon="6.965843997895718">
        <ele>1869.9300000000001</ele>
        <time>2020-07-26T13:33:42Z</time>
      </trkpt>
      <trkpt lat="45.677875690162182" lon="6.96585732512176">
        <ele>1870.0699999999999</ele>
        <time>2020-07-26T13:33:43Z</time>
      </trkpt>
      <trkpt lat="45.677904104813933" lon="6.965887080878019">
        <ele>1869.76</ele>
        <time>2020-07-26T13:33:46Z</time>
      </trkpt>
      <trkpt lat="45.677979625761509" lon="6.966027561575174">
        <ele>1868.1900000000001</ele>
        <time>2020-07-26T13:33:59Z</time>
      </trkpt>
      <trkpt lat="45.678006364032626" lon="6.966089839115739">
        <ele>1866.6500000000001</ele>
        <time>2020-07-26T13:34:07Z</time>
      </trkpt>
      <trkpt lat="45.67800359800458" lon="6.96613484993577">
        <ele>1866.4400000000001</ele>
        <time>2020-07-26T13:34:10Z</time>
      </trkpt>
      <trkpt lat="45.678008543327451" lon="6.966172903776169">
        <ele>1866.1600000000001</ele>
        <time>2020-07-26T13:34:13Z</time>
      </trkpt>
      <trkpt lat="45.678053889423609" lon="6.966270804405212">
        <ele>1863.5999999999999</ele>
        <time>2020-07-26T13:34:23Z</time>
      </trkpt>
      <trkpt lat="45.67810476757586" lon="6.966379350051284">
        <ele>1860.6700000000001</ele>
        <time>2020-07-26T13:34:37Z</time>
      </trkpt>
      <trkpt lat="45.678157657384872" lon="6.966378595679998">
        <ele>1858.3800000000001</ele>
        <time>2020-07-26T13:34:49Z</time>
      </trkpt>
      <trkpt lat="45.67817416973412" lon="6.966271391138434">
        <ele>1856.3499999999999</ele>
        <time>2020-07-26T13:35:00Z</time>
      </trkpt>
      <trkpt lat="45.678200488910079" lon="6.966188242658973">
        <ele>1854.6500000000001</ele>
        <time>2020-07-26T13:35:10Z</time>
      </trkpt>
      <trkpt lat="45.678231837227941" lon="6.96623451076448">
        <ele>1853.6600000000001</ele>
        <time>2020-07-26T13:35:14Z</time>
      </trkpt>
      <trkpt lat="45.678321020677686" lon="6.966412290930748">
        <ele>1852.1800000000001</ele>
        <time>2020-07-26T13:35:26Z</time>
      </trkpt>
      <trkpt lat="45.678404755890369" lon="6.966621587052941">
        <ele>1850.9400000000001</ele>
        <time>2020-07-26T13:35:40Z</time>
      </trkpt>
      <trkpt lat="45.678409030660987" lon="6.966631226241589">
        <ele>1850.8900000000001</ele>
        <time>2020-07-26T13:35:41Z</time>
      </trkpt>
      <trkpt lat="45.678520342335105" lon="6.966766426339746">
        <ele>1849.8199999999999</ele>
        <time>2020-07-26T13:35:56Z</time>
      </trkpt>
      <trkpt lat="45.678563928231597" lon="6.966800289228559">
        <ele>1849.71</ele>
        <time>2020-07-26T13:36:01Z</time>
      </trkpt>
      <trkpt lat="45.67867549136281" lon="6.966925850138068">
        <ele>1849.8</ele>
        <time>2020-07-26T13:36:14Z</time>
      </trkpt>
      <trkpt lat="45.678712790831923" lon="6.967002544552088">
        <ele>1850.1500000000001</ele>
        <time>2020-07-26T13:36:20Z</time>
      </trkpt>
      <trkpt lat="45.678758723661304" lon="6.967031210660934">
        <ele>1850.6700000000001</ele>
        <time>2020-07-26T13:36:34Z</time>
      </trkpt>
      <trkpt lat="45.678770793601871" lon="6.967036239802837">
        <ele>1850.6099999999999</ele>
        <time>2020-07-26T13:36:39Z</time>
      </trkpt>
      <trkpt lat="45.678789149969816" lon="6.967046968638897">
        <ele>1850.3900000000001</ele>
        <time>2020-07-26T13:36:41Z</time>
      </trkpt>
      <trkpt lat="45.678834244608879" lon="6.96706373244524">
        <ele>1851</ele>
        <time>2020-07-26T13:36:46Z</time>
      </trkpt>
      <trkpt lat="45.678918231278658" lon="6.967096170410514">
        <ele>1852.78</ele>
        <time>2020-07-26T13:36:57Z</time>
      </trkpt>
      <trkpt lat="45.678941532969475" lon="6.967096924781799">
        <ele>1853.1400000000001</ele>
        <time>2020-07-26T13:37:00Z</time>
      </trkpt>
      <trkpt lat="45.679051419720054" lon="6.96717320010066">
        <ele>1852.3599999999999</ele>
        <time>2020-07-26T13:37:12Z</time>
      </trkpt>
      <trkpt lat="45.679061813279986" lon="6.967208655551076">
        <ele>1852.3199999999999</ele>
        <time>2020-07-26T13:37:15Z</time>
      </trkpt>
      <trkpt lat="45.67909617908299" lon="6.96723522618413">
        <ele>1852.5599999999999</ele>
        <time>2020-07-26T13:37:19Z</time>
      </trkpt>
      <trkpt lat="45.679174633696675" lon="6.967155179008842">
        <ele>1851.79</ele>
        <time>2020-07-26T13:37:32Z</time>
      </trkpt>
      <trkpt lat="45.679185781627893" lon="6.967132547870278">
        <ele>1851.74</ele>
        <time>2020-07-26T13:37:47Z</time>
      </trkpt>
      <trkpt lat="45.679229786619544" lon="6.967039676383138">
        <ele>1850.8199999999999</ele>
        <time>2020-07-26T13:37:58Z</time>
      </trkpt>
      <trkpt lat="45.679258788004518" lon="6.966940350830555">
        <ele>1850.1500000000001</ele>
        <time>2020-07-26T13:38:07Z</time>
      </trkpt>
      <trkpt lat="45.67932827398181" lon="6.966866757720709">
        <ele>1849.4200000000001</ele>
        <time>2020-07-26T13:38:19Z</time>
      </trkpt>
      <trkpt lat="45.679364316165447" lon="6.96684286929667">
        <ele>1848.1900000000001</ele>
        <time>2020-07-26T13:38:28Z</time>
      </trkpt>
      <trkpt lat="45.679432461038232" lon="6.966746225953102">
        <ele>1844.96</ele>
        <time>2020-07-26T13:38:40Z</time>
      </trkpt>
      <trkpt lat="45.679509155452251" lon="6.96669920347631">
        <ele>1843.6400000000001</ele>
        <time>2020-07-26T13:38:50Z</time>
      </trkpt>
      <trkpt lat="45.679521393030882" lon="6.966691743582487">
        <ele>1843.1800000000001</ele>
        <time>2020-07-26T13:39:07Z</time>
      </trkpt>
      <trkpt lat="45.679517118260264" lon="6.966689061373472">
        <ele>1842.8599999999999</ele>
        <time>2020-07-26T13:39:23Z</time>
      </trkpt>
      <trkpt lat="45.679554166272283" lon="6.966660730540752">
        <ele>1842.8199999999999</ele>
        <time>2020-07-26T13:39:35Z</time>
      </trkpt>
      <trkpt lat="45.679591717198491" lon="6.966698449105024">
        <ele>1842.8900000000001</ele>
        <time>2020-07-26T13:39:50Z</time>
      </trkpt>
      <trkpt lat="45.679577887058258" lon="6.966701969504356">
        <ele>1842.3199999999999</ele>
        <time>2020-07-26T13:40:05Z</time>
      </trkpt>
      <trkpt lat="45.679578306153417" lon="6.966696940362454">
        <ele>1842.0999999999999</ele>
        <time>2020-07-26T13:40:30Z</time>
      </trkpt>
      <trkpt lat="45.679588029161096" lon="6.966689564287663">
        <ele>1842.1199999999999</ele>
        <time>2020-07-26T13:40:53Z</time>
      </trkpt>
      <trkpt lat="45.679577551782131" lon="6.966682691127062">
        <ele>1842.05</ele>
        <time>2020-07-26T13:41:20Z</time>
      </trkpt>
      <trkpt lat="45.679588448256254" lon="6.966669866815209">
        <ele>1842.45</ele>
        <time>2020-07-26T13:41:43Z</time>
      </trkpt>
      <trkpt lat="45.679560033604503" lon="6.966627119109035">
        <ele>1842.3099999999999</ele>
        <time>2020-07-26T13:42:07Z</time>
      </trkpt>
      <trkpt lat="45.679552825167775" lon="6.966626029461622">
        <ele>1842.4200000000001</ele>
        <time>2020-07-26T13:42:39Z</time>
      </trkpt>
      <trkpt lat="45.679560117423534" lon="6.966606834903359">
        <ele>1842.8900000000001</ele>
        <time>2020-07-26T13:43:13Z</time>
      </trkpt>
      <trkpt lat="45.679552908986807" lon="6.966618988662958">
        <ele>1842.9000000000001</ele>
        <time>2020-07-26T13:43:29Z</time>
      </trkpt>
      <trkpt lat="45.679556848481297" lon="6.966620245948434">
        <ele>1842.9000000000001</ele>
        <time>2020-07-26T13:43:36Z</time>
      </trkpt>
      <trkpt lat="45.679656760767102" lon="6.966652180999517">
        <ele>1843.1099999999999</ele>
        <time>2020-07-26T13:43:46Z</time>
      </trkpt>
      <trkpt lat="45.679715937003493" lon="6.966701466590166">
        <ele>1843.8800000000001</ele>
        <time>2020-07-26T13:43:53Z</time>
      </trkpt>
      <trkpt lat="45.679778885096312" lon="6.966671543195844">
        <ele>1844.28</ele>
        <time>2020-07-26T13:43:59Z</time>
      </trkpt>
      <trkpt lat="45.679889526218176" lon="6.966647068038583">
        <ele>1844.79</ele>
        <time>2020-07-26T13:44:11Z</time>
      </trkpt>
      <trkpt lat="45.679958257824183" lon="6.966627202928066">
        <ele>1845.7</ele>
        <time>2020-07-26T13:44:19Z</time>
      </trkpt>
      <trkpt lat="45.680048363283277" lon="6.966600380837917">
        <ele>1846.95</ele>
        <time>2020-07-26T13:44:29Z</time>
      </trkpt>
      <trkpt lat="45.680085830390453" lon="6.966553693637252">
        <ele>1847.5999999999999</ele>
        <time>2020-07-26T13:44:34Z</time>
      </trkpt>
      <trkpt lat="45.680141570046544" lon="6.966521171852946">
        <ele>1849.01</ele>
        <time>2020-07-26T13:44:41Z</time>
      </trkpt>
      <trkpt lat="45.680288169533014" lon="6.966484375298023">
        <ele>1847.9200000000001</ele>
        <time>2020-07-26T13:44:54Z</time>
      </trkpt>
      <trkpt lat="45.680422699078918" lon="6.96655847132206">
        <ele>1847.46</ele>
        <time>2020-07-26T13:45:07Z</time>
      </trkpt>
      <trkpt lat="45.680430242791772" lon="6.966566182672977">
        <ele>1847.4200000000001</ele>
        <time>2020-07-26T13:45:08Z</time>
      </trkpt>
      <trkpt lat="45.680507607758045" lon="6.966631561517716">
        <ele>1844.5699999999999</ele>
        <time>2020-07-26T13:45:20Z</time>
      </trkpt>
      <trkpt lat="45.680537866428494" lon="6.966633405536413">
        <ele>1843.5799999999999</ele>
        <time>2020-07-26T13:45:23Z</time>
      </trkpt>
      <trkpt lat="45.680640963837504" lon="6.966641368344426">
        <ele>1843.24</ele>
        <time>2020-07-26T13:45:35Z</time>
      </trkpt>
      <trkpt lat="45.680655799806118" lon="6.966638350859284">
        <ele>1843.3</ele>
        <time>2020-07-26T13:45:37Z</time>
      </trkpt>
      <trkpt lat="45.680730231106281" lon="6.966650253161788">
        <ele>1842.5799999999999</ele>
        <time>2020-07-26T13:45:46Z</time>
      </trkpt>
      <trkpt lat="45.680871466174722" lon="6.966654863208532">
        <ele>1840.01</ele>
        <time>2020-07-26T13:46:01Z</time>
      </trkpt>
      <trkpt lat="45.680911028757691" lon="6.96667673997581">
        <ele>1838.46</ele>
        <time>2020-07-26T13:46:06Z</time>
      </trkpt>
      <trkpt lat="45.680955788120627" lon="6.966732479631901">
        <ele>1837.6500000000001</ele>
        <time>2020-07-26T13:46:11Z</time>
      </trkpt>
      <trkpt lat="45.681028962135315" lon="6.966756284236908">
        <ele>1837.71</ele>
        <time>2020-07-26T13:46:22Z</time>
      </trkpt>
      <trkpt lat="45.681080594658852" lon="6.966651678085327">
        <ele>1835.5899999999999</ele>
        <time>2020-07-26T13:46:35Z</time>
      </trkpt>
      <trkpt lat="45.681129042059183" lon="6.966565176844597">
        <ele>1833.4000000000001</ele>
        <time>2020-07-26T13:46:48Z</time>
      </trkpt>
      <trkpt lat="45.681194253265858" lon="6.966486051678658">
        <ele>1830.24</ele>
        <time>2020-07-26T13:47:00Z</time>
      </trkpt>
      <trkpt lat="45.681255273520947" lon="6.966428468003869">
        <ele>1827.55</ele>
        <time>2020-07-26T13:47:12Z</time>
      </trkpt>
      <trkpt lat="45.681188888847828" lon="6.966389156877995">
        <ele>1824.1800000000001</ele>
        <time>2020-07-26T13:47:23Z</time>
      </trkpt>
      <trkpt lat="45.681129461154342" lon="6.966381361708045">
        <ele>1821.6099999999999</ele>
        <time>2020-07-26T13:47:34Z</time>
      </trkpt>
      <trkpt lat="45.681119486689568" lon="6.966309696435928">
        <ele>1818.9300000000001</ele>
        <time>2020-07-26T13:47:45Z</time>
      </trkpt>
      <trkpt lat="45.681238425895572" lon="6.966247502714396">
        <ele>1816.5899999999999</ele>
        <time>2020-07-26T13:47:59Z</time>
      </trkpt>
      <trkpt lat="45.681255608797073" lon="6.966227889060974">
        <ele>1816.4300000000001</ele>
        <time>2020-07-26T13:48:01Z</time>
      </trkpt>
      <trkpt lat="45.681300032883883" lon="6.966215902939439">
        <ele>1815.8299999999999</ele>
        <time>2020-07-26T13:48:05Z</time>
      </trkpt>
      <trkpt lat="45.681363483890891" lon="6.966212633997202">
        <ele>1814.8699999999999</ele>
        <time>2020-07-26T13:48:11Z</time>
      </trkpt>
      <trkpt lat="45.681411176919937" lon="6.966204335913062">
        <ele>1813.8599999999999</ele>
        <time>2020-07-26T13:48:15Z</time>
      </trkpt>
      <trkpt lat="45.681613348424435" lon="6.966223111376166">
        <ele>1811.5899999999999</ele>
        <time>2020-07-26T13:48:32Z</time>
      </trkpt>
      <trkpt lat="45.681635644286871" lon="6.966204503551126">
        <ele>1811.4200000000001</ele>
        <time>2020-07-26T13:48:35Z</time>
      </trkpt>
      <trkpt lat="45.68171720020473" lon="6.966127473860979">
        <ele>1809.3299999999999</ele>
        <time>2020-07-26T13:48:47Z</time>
      </trkpt>
      <trkpt lat="45.681755170226097" lon="6.966034602373838">
        <ele>1807.3499999999999</ele>
        <time>2020-07-26T13:48:57Z</time>
      </trkpt>
      <trkpt lat="45.681801438331604" lon="6.965939803048968">
        <ele>1804.96</ele>
        <time>2020-07-26T13:49:09Z</time>
      </trkpt>
      <trkpt lat="45.681805713102221" lon="6.965916585177183">
        <ele>1804.4100000000001</ele>
        <time>2020-07-26T13:49:11Z</time>
      </trkpt>
      <trkpt lat="45.681829433888197" lon="6.965857408940792">
        <ele>1803.1500000000001</ele>
        <time>2020-07-26T13:49:16Z</time>
      </trkpt>
      <trkpt lat="45.682005705311894" lon="6.965736877173185">
        <ele>1800.74</ele>
        <time>2020-07-26T13:49:33Z</time>
      </trkpt>
      <trkpt lat="45.682028084993362" lon="6.965708965435624">
        <ele>1800.3399999999999</ele>
        <time>2020-07-26T13:49:36Z</time>
      </trkpt>
      <trkpt lat="45.682077370584011" lon="6.965607795864344">
        <ele>1798.0799999999999</ele>
        <time>2020-07-26T13:49:48Z</time>
      </trkpt>
      <trkpt lat="45.682103941217065" lon="6.965570747852325">
        <ele>1797.0699999999999</ele>
        <time>2020-07-26T13:49:53Z</time>
      </trkpt>
      <trkpt lat="45.682126739993691" lon="6.965512158349156">
        <ele>1796.1600000000001</ele>
        <time>2020-07-26T13:49:57Z</time>
      </trkpt>
      <trkpt lat="45.682210139930248" lon="6.965411994606257">
        <ele>1794.78</ele>
        <time>2020-07-26T13:50:09Z</time>
      </trkpt>
      <trkpt lat="45.682213995605707" lon="6.965392716228962">
        <ele>1794.3900000000001</ele>
        <time>2020-07-26T13:50:11Z</time>
      </trkpt>
      <trkpt lat="45.682246098294854" lon="6.965310238301754">
        <ele>1793.3800000000001</ele>
        <time>2020-07-26T13:50:17Z</time>
      </trkpt>
      <trkpt lat="45.682340059429407" lon="6.965127931907773">
        <ele>1792.74</ele>
        <time>2020-07-26T13:50:32Z</time>
      </trkpt>
      <trkpt lat="45.682397726923227" lon="6.964987870305777">
        <ele>1790.05</ele>
        <time>2020-07-26T13:50:44Z</time>
      </trkpt>
      <trkpt lat="45.682472912594676" lon="6.964833810925484">
        <ele>1788.0699999999999</ele>
        <time>2020-07-26T13:50:58Z</time>
      </trkpt>
      <trkpt lat="45.682480121031404" lon="6.964804725721479">
        <ele>1787.6500000000001</ele>
        <time>2020-07-26T13:51:13Z</time>
      </trkpt>
      <trkpt lat="45.682481378316879" lon="6.964816460385919">
        <ele>1787.21</ele>
        <time>2020-07-26T13:51:31Z</time>
      </trkpt>
      <trkpt lat="45.68248875439167" lon="6.964809168130159">
        <ele>1788.3499999999999</ele>
        <time>2020-07-26T13:51:42Z</time>
      </trkpt>
      <trkpt lat="45.682496633380651" lon="6.96480237878859">
        <ele>1787.8800000000001</ele>
        <time>2020-07-26T13:51:43Z</time>
      </trkpt>
      <trkpt lat="45.682549858465791" lon="6.964765246957541">
        <ele>1786.72</ele>
        <time>2020-07-26T13:51:49Z</time>
      </trkpt>
      <trkpt lat="45.682691847905517" lon="6.96457858197391">
        <ele>1786.3299999999999</ele>
        <time>2020-07-26T13:52:06Z</time>
      </trkpt>
      <trkpt lat="45.68278580904007" lon="6.964478669688106">
        <ele>1784.4200000000001</ele>
        <time>2020-07-26T13:52:18Z</time>
      </trkpt>
      <trkpt lat="45.682791341096163" lon="6.964468862861395">
        <ele>1784.1700000000001</ele>
        <time>2020-07-26T13:52:19Z</time>
      </trkpt>
      <trkpt lat="45.682855043560266" lon="6.964292591437697">
        <ele>1781.5699999999999</ele>
        <time>2020-07-26T13:52:32Z</time>
      </trkpt>
      <trkpt lat="45.682870214805007" lon="6.964272391051054">
        <ele>1781.3599999999999</ele>
        <time>2020-07-26T13:52:34Z</time>
      </trkpt>
      <trkpt lat="45.682901730760932" lon="6.964051946997643">
        <ele>1779.0999999999999</ele>
        <time>2020-07-26T13:52:48Z</time>
      </trkpt>
      <trkpt lat="45.682932073250413" lon="6.96386905387044">
        <ele>1777.4000000000001</ele>
        <time>2020-07-26T13:53:00Z</time>
      </trkpt>
      <trkpt lat="45.682975323870778" lon="6.963779367506504">
        <ele>1776.6400000000001</ele>
        <time>2020-07-26T13:53:11Z</time>
      </trkpt>
      <trkpt lat="45.682980353012681" lon="6.963769644498825">
        <ele>1776.5899999999999</ele>
        <time>2020-07-26T13:53:13Z</time>
      </trkpt>
      <trkpt lat="45.683004995808005" lon="6.963721951469779">
        <ele>1776.3800000000001</ele>
        <time>2020-07-26T13:53:17Z</time>
      </trkpt>
      <trkpt lat="45.683079678565264" lon="6.963573256507516">
        <ele>1773.4000000000001</ele>
        <time>2020-07-26T13:53:32Z</time>
      </trkpt>
      <trkpt lat="45.683079427108169" lon="6.963413329795003">
        <ele>1770.1300000000001</ele>
        <time>2020-07-26T13:53:47Z</time>
      </trkpt>
      <trkpt lat="45.683088898658752" lon="6.963308053091168">
        <ele>1767.55</ele>
        <time>2020-07-26T13:53:57Z</time>
      </trkpt>
      <trkpt lat="45.683097280561924" lon="6.963210739195347">
        <ele>1765.55</ele>
        <time>2020-07-26T13:54:05Z</time>
      </trkpt>
      <trkpt lat="45.683183865621686" lon="6.963130021467805">
        <ele>1762.54</ele>
        <time>2020-07-26T13:54:17Z</time>
      </trkpt>
      <trkpt lat="45.683239689096808" lon="6.963116526603699">
        <ele>1761.98</ele>
        <time>2020-07-26T13:54:22Z</time>
      </trkpt>
      <trkpt lat="45.68333750590682" lon="6.962987193837762">
        <ele>1760.48</ele>
        <time>2020-07-26T13:54:35Z</time>
      </trkpt>
      <trkpt lat="45.683410009369254" lon="6.962883928790689">
        <ele>1757.8699999999999</ele>
        <time>2020-07-26T13:54:49Z</time>
      </trkpt>
      <trkpt lat="45.683409087359905" lon="6.962735401466489">
        <ele>1755.1600000000001</ele>
        <time>2020-07-26T13:55:03Z</time>
      </trkpt>
      <trkpt lat="45.683399783447385" lon="6.962707405909896">
        <ele>1754.8499999999999</ele>
        <time>2020-07-26T13:55:05Z</time>
      </trkpt>
      <trkpt lat="45.683384276926517" lon="6.962679326534271">
        <ele>1754.71</ele>
        <time>2020-07-26T13:55:07Z</time>
      </trkpt>
      <trkpt lat="45.683289980515838" lon="6.962533313781023">
        <ele>1754.47</ele>
        <time>2020-07-26T13:55:20Z</time>
      </trkpt>
      <trkpt lat="45.683283945545554" lon="6.962342625483871">
        <ele>1753.21</ele>
        <time>2020-07-26T13:55:32Z</time>
      </trkpt>
      <trkpt lat="45.683329626917839" lon="6.96224631741643">
        <ele>1751.2</ele>
        <time>2020-07-26T13:55:43Z</time>
      </trkpt>
      <trkpt lat="45.683357119560242" lon="6.962140370160341">
        <ele>1748.6300000000001</ele>
        <time>2020-07-26T13:55:55Z</time>
      </trkpt>
      <trkpt lat="45.68338243290782" lon="6.962074739858508">
        <ele>1746.47</ele>
        <time>2020-07-26T13:56:05Z</time>
      </trkpt>
      <trkpt lat="45.683442279696465" lon="6.962115727365017">
        <ele>1744.8499999999999</ele>
        <time>2020-07-26T13:56:16Z</time>
      </trkpt>
      <trkpt lat="45.683488799259067" lon="6.962041547521949">
        <ele>1742.72</ele>
        <time>2020-07-26T13:56:26Z</time>
      </trkpt>
      <trkpt lat="45.683518471196294" lon="6.961957141757011">
        <ele>1741.28</ele>
        <time>2020-07-26T13:56:38Z</time>
      </trkpt>
      <trkpt lat="45.683442950248718" lon="6.96191405877471">
        <ele>1738.45</ele>
        <time>2020-07-26T13:56:54Z</time>
      </trkpt>
      <trkpt lat="45.683435909450054" lon="6.961811715736985">
        <ele>1735.52</ele>
        <time>2020-07-26T13:57:09Z</time>
      </trkpt>
      <trkpt lat="45.683449152857065" lon="6.961794029921293">
        <ele>1734.6199999999999</ele>
        <time>2020-07-26T13:57:13Z</time>
      </trkpt>
      <trkpt lat="45.683460552245378" lon="6.961745163425803">
        <ele>1733.54</ele>
        <time>2020-07-26T13:57:16Z</time>
      </trkpt>
      <trkpt lat="45.683475639671087" lon="6.96172446012497">
        <ele>1732.79</ele>
        <time>2020-07-26T13:57:18Z</time>
      </trkpt>
      <trkpt lat="45.683496175333858" lon="6.961670899763703">
        <ele>1731.1099999999999</ele>
        <time>2020-07-26T13:57:24Z</time>
      </trkpt>
      <trkpt lat="45.683519225567579" lon="6.961644161492586">
        <ele>1730.03</ele>
        <time>2020-07-26T13:57:27Z</time>
      </trkpt>
      <trkpt lat="45.683556441217661" lon="6.96163603104651">
        <ele>1729.1300000000001</ele>
        <time>2020-07-26T13:57:31Z</time>
      </trkpt>
      <trkpt lat="45.683648893609643" lon="6.961646256968379">
        <ele>1728.55</ele>
        <time>2020-07-26T13:57:39Z</time>
      </trkpt>
      <trkpt lat="45.683787614107132" lon="6.961608622223139">
        <ele>1728.73</ele>
        <time>2020-07-26T13:57:50Z</time>
      </trkpt>
      <trkpt lat="45.68382759578526" lon="6.961625553667545">
        <ele>1728.4200000000001</ele>
        <time>2020-07-26T13:57:59Z</time>
      </trkpt>
      <trkpt lat="45.683846119791269" lon="6.96161549538374">
        <ele>1728.53</ele>
        <time>2020-07-26T13:58:10Z</time>
      </trkpt>
      <trkpt lat="45.683873360976577" lon="6.961603173986077">
        <ele>1728.4100000000001</ele>
        <time>2020-07-26T13:58:19Z</time>
      </trkpt>
      <trkpt lat="45.683895070105791" lon="6.961596719920635">
        <ele>1728.0799999999999</ele>
        <time>2020-07-26T13:58:21Z</time>
      </trkpt>
      <trkpt lat="45.683944607153535" lon="6.961586074903607">
        <ele>1727.74</ele>
        <time>2020-07-26T13:58:26Z</time>
      </trkpt>
      <trkpt lat="45.684072850272059" lon="6.961637288331986">
        <ele>1727.9300000000001</ele>
        <time>2020-07-26T13:58:39Z</time>
      </trkpt>
      <trkpt lat="45.684173936024308" lon="6.961744073778391">
        <ele>1728.8299999999999</ele>
        <time>2020-07-26T13:58:50Z</time>
      </trkpt>
      <trkpt lat="45.684283822774887" lon="6.961808614432812">
        <ele>1729.8499999999999</ele>
        <time>2020-07-26T13:59:02Z</time>
      </trkpt>
      <trkpt lat="45.684314668178558" lon="6.961827808991075">
        <ele>1730.26</ele>
        <time>2020-07-26T13:59:05Z</time>
      </trkpt>
      <trkpt lat="45.684437965974212" lon="6.962028639391065">
        <ele>1730.3800000000001</ele>
        <time>2020-07-26T13:59:19Z</time>
      </trkpt>
      <trkpt lat="45.684489263221622" lon="6.962159145623446">
        <ele>1728.75</ele>
        <time>2020-07-26T13:59:32Z</time>
      </trkpt>
      <trkpt lat="45.684527819976211" lon="6.962265763431788">
        <ele>1726.8900000000001</ele>
        <time>2020-07-26T13:59:44Z</time>
      </trkpt>
      <trkpt lat="45.684537794440985" lon="6.962360395118594">
        <ele>1724.99</ele>
        <time>2020-07-26T13:59:56Z</time>
      </trkpt>
      <trkpt lat="45.684564700350165" lon="6.962458211928606">
        <ele>1723.0599999999999</ele>
        <time>2020-07-26T14:00:06Z</time>
      </trkpt>
      <trkpt lat="45.68458448164165" lon="6.962439687922597">
        <ele>1721.98</ele>
        <time>2020-07-26T14:00:12Z</time>
      </trkpt>
      <trkpt lat="45.684590600430965" lon="6.962291998788714">
        <ele>1720.95</ele>
        <time>2020-07-26T14:00:22Z</time>
      </trkpt>
      <trkpt lat="45.684599820524454" lon="6.962218154221773">
        <ele>1719.99</ele>
        <time>2020-07-26T14:00:27Z</time>
      </trkpt>
      <trkpt lat="45.684628067538142" lon="6.962110865861177">
        <ele>1718.27</ele>
        <time>2020-07-26T14:00:39Z</time>
      </trkpt>
      <trkpt lat="45.684666624292731" lon="6.9622219260782">
        <ele>1715.8</ele>
        <time>2020-07-26T14:00:51Z</time>
      </trkpt>
      <trkpt lat="45.684722028672695" lon="6.962300548329949">
        <ele>1713.04</ele>
        <time>2020-07-26T14:01:02Z</time>
      </trkpt>
      <trkpt lat="45.684775672852993" lon="6.962351007387042">
        <ele>1710.2</ele>
        <time>2020-07-26T14:01:15Z</time>
      </trkpt>
      <trkpt lat="45.684828227385879" lon="6.962386965751648">
        <ele>1708.5</ele>
        <time>2020-07-26T14:01:23Z</time>
      </trkpt>
      <trkpt lat="45.684924451634288" lon="6.962427953258157">
        <ele>1706.23</ele>
        <time>2020-07-26T14:01:35Z</time>
      </trkpt>
      <trkpt lat="45.684981700032949" lon="6.96246131323278">
        <ele>1704.7</ele>
        <time>2020-07-26T14:01:44Z</time>
      </trkpt>
      <trkpt lat="45.684977676719427" lon="6.962375901639462">
        <ele>1701.72</ele>
        <time>2020-07-26T14:01:58Z</time>
      </trkpt>
      <trkpt lat="45.684901736676693" lon="6.962252939119935">
        <ele>1699</ele>
        <time>2020-07-26T14:02:13Z</time>
      </trkpt>
      <trkpt lat="45.684836860746145" lon="6.962098712101579">
        <ele>1697.26</ele>
        <time>2020-07-26T14:02:27Z</time>
      </trkpt>
      <trkpt lat="45.684834429994226" lon="6.962084379047155">
        <ele>1697.1099999999999</ele>
        <time>2020-07-26T14:02:28Z</time>
      </trkpt>
      <trkpt lat="45.684821354225278" lon="6.962041547521949">
        <ele>1696.55</ele>
        <time>2020-07-26T14:02:31Z</time>
      </trkpt>
      <trkpt lat="45.684768967330456" lon="6.961859073489904">
        <ele>1694.45</ele>
        <time>2020-07-26T14:02:45Z</time>
      </trkpt>
      <trkpt lat="45.684743234887719" lon="6.961751114577055">
        <ele>1691.48</ele>
        <time>2020-07-26T14:02:58Z</time>
      </trkpt>
      <trkpt lat="45.684780701994896" lon="6.961689339950681">
        <ele>1688.95</ele>
        <time>2020-07-26T14:03:09Z</time>
      </trkpt>
      <trkpt lat="45.684847589582205" lon="6.961640138179064">
        <ele>1685.8699999999999</ele>
        <time>2020-07-26T14:03:19Z</time>
      </trkpt>
      <trkpt lat="45.684912968426943" lon="6.961591774597764">
        <ele>1683.6300000000001</ele>
        <time>2020-07-26T14:03:30Z</time>
      </trkpt>
      <trkpt lat="45.684997793287039" lon="6.961560426279903">
        <ele>1680.9300000000001</ele>
        <time>2020-07-26T14:03:42Z</time>
      </trkpt>
      <trkpt lat="45.685045067220926" lon="6.961549445986748">
        <ele>1678.6700000000001</ele>
        <time>2020-07-26T14:03:52Z</time>
      </trkpt>
      <trkpt lat="45.685082701966166" lon="6.961437799036503">
        <ele>1677.27</ele>
        <time>2020-07-26T14:04:03Z</time>
      </trkpt>
      <trkpt lat="45.685104494914412" lon="6.961389100179076">
        <ele>1676.28</ele>
        <time>2020-07-26T14:04:08Z</time>
      </trkpt>
      <trkpt lat="45.685111535713077" lon="6.961327074095607">
        <ele>1675.52</ele>
        <time>2020-07-26T14:04:12Z</time>
      </trkpt>
      <trkpt lat="45.685126287862659" lon="6.961225904524326">
        <ele>1674.52</ele>
        <time>2020-07-26T14:04:21Z</time>
      </trkpt>
      <trkpt lat="45.685179093852639" lon="6.961085759103298">
        <ele>1670.9100000000001</ele>
        <time>2020-07-26T14:04:33Z</time>
      </trkpt>
      <trkpt lat="45.685260146856308" lon="6.960999509319663">
        <ele>1667.99</ele>
        <time>2020-07-26T14:04:44Z</time>
      </trkpt>
      <trkpt lat="45.685328207910061" lon="6.961005292832851">
        <ele>1664.8099999999999</ele>
        <time>2020-07-26T14:04:55Z</time>
      </trkpt>
      <trkpt lat="45.685419151559472" lon="6.961145605891943">
        <ele>1661.98</ele>
        <time>2020-07-26T14:05:09Z</time>
      </trkpt>
      <trkpt lat="45.685508251190186" lon="6.961254989728332">
        <ele>1661.03</ele>
        <time>2020-07-26T14:05:20Z</time>
      </trkpt>
      <trkpt lat="45.685631884261966" lon="6.961325062438846">
        <ele>1660.3800000000001</ele>
        <time>2020-07-26T14:05:31Z</time>
      </trkpt>
      <trkpt lat="45.685703717172146" lon="6.961380047723651">
        <ele>1658.47</ele>
        <time>2020-07-26T14:05:42Z</time>
      </trkpt>
      <trkpt lat="45.685714613646269" lon="6.961386585608125">
        <ele>1658.1900000000001</ele>
        <time>2020-07-26T14:05:43Z</time>
      </trkpt>
      <trkpt lat="45.685750572010875" lon="6.961405528709292">
        <ele>1657.9300000000001</ele>
        <time>2020-07-26T14:05:46Z</time>
      </trkpt>
      <trkpt lat="45.685778735205531" lon="6.96140636689961">
        <ele>1657.6700000000001</ele>
        <time>2020-07-26T14:05:48Z</time>
      </trkpt>
      <trkpt lat="45.685853082686663" lon="6.961437128484249">
        <ele>1657.3099999999999</ele>
        <time>2020-07-26T14:05:54Z</time>
      </trkpt>
      <trkpt lat="45.685952072963119" lon="6.961445342749357">
        <ele>1657.1300000000001</ele>
        <time>2020-07-26T14:06:02Z</time>
      </trkpt>
      <trkpt lat="45.686110910028219" lon="6.961506027728319">
        <ele>1655.8299999999999</ele>
        <time>2020-07-26T14:06:15Z</time>
      </trkpt>
      <trkpt lat="45.686160027980804" lon="6.961559588089585">
        <ele>1655.29</ele>
        <time>2020-07-26T14:06:26Z</time>
      </trkpt>
      <trkpt lat="45.686225993558764" lon="6.961637455970049">
        <ele>1652.8699999999999</ele>
        <time>2020-07-26T14:06:40Z</time>
      </trkpt>
      <trkpt lat="45.686292881146073" lon="6.961687663570046">
        <ele>1650.23</ele>
        <time>2020-07-26T14:06:52Z</time>
      </trkpt>
      <trkpt lat="45.686333114281297" lon="6.961691351607442">
        <ele>1648.9000000000001</ele>
        <time>2020-07-26T14:06:57Z</time>
      </trkpt>
      <trkpt lat="45.686404276639223" lon="6.961757484823465">
        <ele>1646.49</ele>
        <time>2020-07-26T14:07:09Z</time>
      </trkpt>
      <trkpt lat="45.686492705717683" lon="6.961843315511942">
        <ele>1643.5999999999999</ele>
        <time>2020-07-26T14:07:23Z</time>
      </trkpt>
      <trkpt lat="45.686573088169098" lon="6.961898971349001">
        <ele>1641.0899999999999</ele>
        <time>2020-07-26T14:07:36Z</time>
      </trkpt>
      <trkpt lat="45.686625642701983" lon="6.961968122050166">
        <ele>1640.0899999999999</ele>
        <time>2020-07-26T14:07:47Z</time>
      </trkpt>
      <trkpt lat="45.68668020889163" lon="6.962003912776709">
        <ele>1637.97</ele>
        <time>2020-07-26T14:08:00Z</time>
      </trkpt>
      <trkpt lat="45.686693033203483" lon="6.9620147254318">
        <ele>1637.72</ele>
        <time>2020-07-26T14:08:02Z</time>
      </trkpt>
      <trkpt lat="45.686736200004816" lon="6.962069375440478">
        <ele>1636.6099999999999</ele>
        <time>2020-07-26T14:08:08Z</time>
      </trkpt>
      <trkpt lat="45.686767129227519" lon="6.962139699608088">
        <ele>1635.54</ele>
        <time>2020-07-26T14:08:13Z</time>
      </trkpt>
      <trkpt lat="45.686792191118002" lon="6.962198205292225">
        <ele>1634.8900000000001</ele>
        <time>2020-07-26T14:08:17Z</time>
      </trkpt>
      <trkpt lat="45.686797052621841" lon="6.962242964655161">
        <ele>1634.5</ele>
        <time>2020-07-26T14:08:20Z</time>
      </trkpt>
      <trkpt lat="45.686815576627851" lon="6.96229225024581">
        <ele>1633.99</ele>
        <time>2020-07-26T14:08:24Z</time>
      </trkpt>
      <trkpt lat="45.686825048178434" lon="6.962391911074519">
        <ele>1632.1700000000001</ele>
        <time>2020-07-26T14:08:36Z</time>
      </trkpt>
      <trkpt lat="45.686852037906647" lon="6.962436335161328">
        <ele>1632.55</ele>
        <time>2020-07-26T14:08:40Z</time>
      </trkpt>
      <trkpt lat="45.686906687915325" lon="6.962545132264495">
        <ele>1630.4200000000001</ele>
        <time>2020-07-26T14:08:48Z</time>
      </trkpt>
      <trkpt lat="45.686940802261233" lon="6.962592154741287">
        <ele>1629.8800000000001</ele>
        <time>2020-07-26T14:09:00Z</time>
      </trkpt>
      <trkpt lat="45.686975922435522" lon="6.962595842778683">
        <ele>1629.6500000000001</ele>
        <time>2020-07-26T14:09:15Z</time>
      </trkpt>
      <trkpt lat="45.68700953386724" lon="6.96261964738369">
        <ele>1629.47</ele>
        <time>2020-07-26T14:09:19Z</time>
      </trkpt>
      <trkpt lat="45.687172980979085" lon="6.962695252150297">
        <ele>1628.46</ele>
        <time>2020-07-26T14:09:33Z</time>
      </trkpt>
      <trkpt lat="45.687292004004121" lon="6.962752919644117">
        <ele>1627.4000000000001</ele>
        <time>2020-07-26T14:09:45Z</time>
      </trkpt>
      <trkpt lat="45.687369955703616" lon="6.962832631543279">
        <ele>1626</ele>
        <time>2020-07-26T14:09:56Z</time>
      </trkpt>
      <trkpt lat="45.687418654561043" lon="6.962890969589353">
        <ele>1624.3299999999999</ele>
        <time>2020-07-26T14:10:04Z</time>
      </trkpt>
      <trkpt lat="45.687438352033496" lon="6.962891472503543">
        <ele>1623.9200000000001</ele>
        <time>2020-07-26T14:10:06Z</time>
      </trkpt>
      <trkpt lat="45.687473556026816" lon="6.962916031479836">
        <ele>1623.4100000000001</ele>
        <time>2020-07-26T14:10:16Z</time>
      </trkpt>
      <trkpt lat="45.687452182173729" lon="6.962896334007382">
        <ele>1623.1400000000001</ele>
        <time>2020-07-26T14:10:52Z</time>
      </trkpt>
      <trkpt lat="45.687445225194097" lon="6.96289231069386">
        <ele>1623.1099999999999</ele>
        <time>2020-07-26T14:10:55Z</time>
      </trkpt>
      <trkpt lat="45.687548238784075" lon="6.962882252410054">
        <ele>1621.96</ele>
        <time>2020-07-26T14:11:03Z</time>
      </trkpt>
      <trkpt lat="45.687753511592746" lon="6.962834391742945">
        <ele>1619.5599999999999</ele>
        <time>2020-07-26T14:11:18Z</time>
      </trkpt>
      <trkpt lat="45.687860464677215" lon="6.962780831381679">
        <ele>1617.8599999999999</ele>
        <time>2020-07-26T14:11:28Z</time>
      </trkpt>
      <trkpt lat="45.687924167141318" lon="6.962777227163315">
        <ele>1616.9100000000001</ele>
        <time>2020-07-26T14:11:34Z</time>
      </trkpt>
      <trkpt lat="45.687995329499245" lon="6.962784687057138">
        <ele>1615.3399999999999</ele>
        <time>2020-07-26T14:11:42Z</time>
      </trkpt>
      <trkpt lat="45.688025839626789" lon="6.962740179151297">
        <ele>1614.5899999999999</ele>
        <time>2020-07-26T14:11:47Z</time>
      </trkpt>
      <trkpt lat="45.688014356419444" lon="6.962618641555309">
        <ele>1612.9200000000001</ele>
        <time>2020-07-26T14:11:57Z</time>
      </trkpt>
      <trkpt lat="45.687960209324956" lon="6.962477155029774">
        <ele>1611.04</ele>
        <time>2020-07-26T14:12:09Z</time>
      </trkpt>
      <trkpt lat="45.687954509630799" lon="6.962343631312251">
        <ele>1610.8699999999999</ele>
        <time>2020-07-26T14:12:17Z</time>
      </trkpt>
      <trkpt lat="45.68806204944849" lon="6.962253525853157">
        <ele>1610.95</ele>
        <time>2020-07-26T14:12:28Z</time>
      </trkpt>
      <trkpt lat="45.688159195706248" lon="6.962403645738959">
        <ele>1609.05</ele>
        <time>2020-07-26T14:12:40Z</time>
      </trkpt>
      <trkpt lat="45.688224490731955" lon="6.962521998211741">
        <ele>1608.9200000000001</ele>
        <time>2020-07-26T14:12:55Z</time>
      </trkpt>
      <trkpt lat="45.688230944797397" lon="6.962533062323928">
        <ele>1609.1199999999999</ele>
        <time>2020-07-26T14:13:10Z</time>
      </trkpt>
      <trkpt lat="45.688228597864509" lon="6.962536498904228">
        <ele>1609.45</ele>
        <time>2020-07-26T14:13:25Z</time>
      </trkpt>
      <trkpt lat="45.688217617571354" lon="6.962497103959322">
        <ele>1609.23</ele>
        <time>2020-07-26T14:13:32Z</time>
      </trkpt>
      <trkpt lat="45.688071520999074" lon="6.962227374315262">
        <ele>1610.5899999999999</ele>
        <time>2020-07-26T14:13:52Z</time>
      </trkpt>
      <trkpt lat="45.688019134104252" lon="6.962154284119606">
        <ele>1610.8099999999999</ele>
        <time>2020-07-26T14:14:05Z</time>
      </trkpt>
      <trkpt lat="45.688027683645487" lon="6.962139029055834">
        <ele>1609.3399999999999</ele>
        <time>2020-07-26T14:14:15Z</time>
      </trkpt>
      <trkpt lat="45.687992898747325" lon="6.962199714034796">
        <ele>1609.21</ele>
        <time>2020-07-26T14:14:41Z</time>
      </trkpt>
      <trkpt lat="45.687994658946991" lon="6.962187811732292">
        <ele>1609.3299999999999</ele>
        <time>2020-07-26T14:15:07Z</time>
      </trkpt>
      <trkpt lat="45.687977392226458" lon="6.962206587195396">
        <ele>1609.5899999999999</ele>
        <time>2020-07-26T14:15:30Z</time>
      </trkpt>
      <trkpt lat="45.688008321449161" lon="6.962180184200406">
        <ele>1610.05</ele>
        <time>2020-07-26T14:16:08Z</time>
      </trkpt>
      <trkpt lat="45.68799365311861" lon="6.962216477841139">
        <ele>1609.6400000000001</ele>
        <time>2020-07-26T14:16:33Z</time>
      </trkpt>
      <trkpt lat="45.687963645905256" lon="6.962243048474193">
        <ele>1609.8499999999999</ele>
        <time>2020-07-26T14:17:08Z</time>
      </trkpt>
      <trkpt lat="45.687959706410766" lon="6.962228296324611">
        <ele>1609.47</ele>
        <time>2020-07-26T14:17:31Z</time>
      </trkpt>
      <trkpt lat="45.687955180183053" lon="6.962243216112256">
        <ele>1611.04</ele>
        <time>2020-07-26T14:17:46Z</time>
      </trkpt>
      <trkpt lat="45.687990048900247" lon="6.962262494489551">
        <ele>1611.03</ele>
        <time>2020-07-26T14:17:56Z</time>
      </trkpt>
      <trkpt lat="45.688011422753334" lon="6.962294261902571">
        <ele>1611.3599999999999</ele>
        <time>2020-07-26T14:17:59Z</time>
      </trkpt>
      <trkpt lat="45.688113933429122" lon="6.962484028190374">
        <ele>1609.8800000000001</ele>
        <time>2020-07-26T14:18:13Z</time>
      </trkpt>
      <trkpt lat="45.688265226781368" lon="6.96271738037467">
        <ele>1609.0999999999999</ele>
        <time>2020-07-26T14:18:30Z</time>
      </trkpt>
      <trkpt lat="45.688438229262829" lon="6.962863644585013">
        <ele>1609.6800000000001</ele>
        <time>2020-07-26T14:18:46Z</time>
      </trkpt>
      <trkpt lat="45.688575524836779" lon="6.962899100035429">
        <ele>1610.77</ele>
        <time>2020-07-26T14:18:58Z</time>
      </trkpt>
      <trkpt lat="45.68862640298903" lon="6.962902871891856">
        <ele>1611.6099999999999</ele>
        <time>2020-07-26T14:19:03Z</time>
      </trkpt>
      <trkpt lat="45.688745090737939" lon="6.962902201339603">
        <ele>1613</ele>
        <time>2020-07-26T14:19:14Z</time>
      </trkpt>
      <trkpt lat="45.688770655542612" lon="6.962899183854461">
        <ele>1613.1800000000001</ele>
        <time>2020-07-26T14:19:16Z</time>
      </trkpt>
      <trkpt lat="45.688874758780003" lon="6.962894322350621">
        <ele>1614.5599999999999</ele>
        <time>2020-07-26T14:19:28Z</time>
      </trkpt>
      <trkpt lat="45.688998056575656" lon="6.962898094207048">
        <ele>1616.25</ele>
        <time>2020-07-26T14:19:42Z</time>
      </trkpt>
      <trkpt lat="45.689039211720228" lon="6.962903458625078">
        <ele>1616.3</ele>
        <time>2020-07-26T14:19:45Z</time>
      </trkpt>
      <trkpt lat="45.689205005764961" lon="6.962888622656465">
        <ele>1616.6199999999999</ele>
        <time>2020-07-26T14:19:58Z</time>
      </trkpt>
      <trkpt lat="45.689360154792666" lon="6.962879570201039">
        <ele>1617.73</ele>
        <time>2020-07-26T14:20:11Z</time>
      </trkpt>
      <trkpt lat="45.689459899440408" lon="6.962768593803048">
        <ele>1619.3499999999999</ele>
        <time>2020-07-26T14:20:22Z</time>
      </trkpt>
      <trkpt lat="45.689606834203005" lon="6.962828943505883">
        <ele>1618.79</ele>
        <time>2020-07-26T14:20:35Z</time>
      </trkpt>
      <trkpt lat="45.689659053459764" lon="6.962856771424413">
        <ele>1618.28</ele>
        <time>2020-07-26T14:20:40Z</time>
      </trkpt>
      <trkpt lat="45.689805317670107" lon="6.962797092273831">
        <ele>1617.1600000000001</ele>
        <time>2020-07-26T14:20:54Z</time>
      </trkpt>
      <trkpt lat="45.689922915771604" lon="6.962756272405386">
        <ele>1615.77</ele>
        <time>2020-07-26T14:21:05Z</time>
      </trkpt>
      <trkpt lat="45.69004244171083" lon="6.962699359282851">
        <ele>1613.8199999999999</ele>
        <time>2020-07-26T14:21:17Z</time>
      </trkpt>
      <trkpt lat="45.690103629603982" lon="6.962495930492878">
        <ele>1612.98</ele>
        <time>2020-07-26T14:21:30Z</time>
      </trkpt>
      <trkpt lat="45.690088793635368" lon="6.962296608835459">
        <ele>1611.8199999999999</ele>
        <time>2020-07-26T14:21:42Z</time>
      </trkpt>
      <trkpt lat="45.690088458359241" lon="6.962178256362677">
        <ele>1610.04</ele>
        <time>2020-07-26T14:21:54Z</time>
      </trkpt>
      <trkpt lat="45.690063815563917" lon="6.962017072364688">
        <ele>1607.55</ele>
        <time>2020-07-26T14:22:05Z</time>
      </trkpt>
      <trkpt lat="45.689981756731868" lon="6.961813559755683">
        <ele>1607.8</ele>
        <time>2020-07-26T14:22:19Z</time>
      </trkpt>
      <trkpt lat="45.689911181107163" lon="6.961726974695921">
        <ele>1605.8</ele>
        <time>2020-07-26T14:22:32Z</time>
      </trkpt>
      <trkpt lat="45.689781429246068" lon="6.961601078510284">
        <ele>1604.5899999999999</ele>
        <time>2020-07-26T14:22:48Z</time>
      </trkpt>
      <trkpt lat="45.689689312130213" lon="6.961514912545681">
        <ele>1603.9100000000001</ele>
        <time>2020-07-26T14:22:59Z</time>
      </trkpt>
      <trkpt lat="45.689672632142901" lon="6.961485911160708">
        <ele>1603.71</ele>
        <time>2020-07-26T14:23:02Z</time>
      </trkpt>
      <trkpt lat="45.689650839194655" lon="6.961412820965052">
        <ele>1602.96</ele>
        <time>2020-07-26T14:23:07Z</time>
      </trkpt>
      <trkpt lat="45.689590238034725" lon="6.961134877055883">
        <ele>1603.5599999999999</ele>
        <time>2020-07-26T14:23:25Z</time>
      </trkpt>
      <trkpt lat="45.689567942172289" lon="6.961046447977424">
        <ele>1603.98</ele>
        <time>2020-07-26T14:23:38Z</time>
      </trkpt>
      <trkpt lat="45.689506754279137" lon="6.961073186248541">
        <ele>1604.8499999999999</ele>
        <time>2020-07-26T14:23:50Z</time>
      </trkpt>
      <trkpt lat="45.689415894448757" lon="6.961083076894283">
        <ele>1605.6800000000001</ele>
        <time>2020-07-26T14:24:03Z</time>
      </trkpt>
      <trkpt lat="45.689405500888824" lon="6.961070755496621">
        <ele>1606</ele>
        <time>2020-07-26T14:24:23Z</time>
      </trkpt>
    </trkseg>
  </trk>

</gpx>